[[{"header":{"parameterUnit":"m.s-1","parameterCategory":1,"la1":30.6,"la2":28.766,"lo1":-90.7593,"lo2":-88.6598,"dy":0.0162,"dx":0.0183,"nx":116,"ny":114,"refTime":"2023-07-03T18:00:00:Z","depth":0,"parameterNumber":2,"parameterNumberName":"U-component_of_WINDS"},"data":[0.0,0.0,0.0,0.0,0.0,0.0,0.0,0.0,0.0,0.0,0.0,0.0,0.0,0.0,0.0,0.0,0.0,0.0,0.0,0.0,0.0,0.0,0.0,0.0,0.0,0.0,0.0,0.0,0.0,0.0,0.0,0.0,0.0,0.0,0.0,0.0,0.0,0.0,0.0,0.0,0.0,0.0,0.0,0.0,0.0,0.0,0.0,0.0,0.0,0.0,0.0,0.0,0.0,0.0,0.0,0.0,0.0,0.0,0.0,0.0,0.0,0.0,0.0,0.0,0.0,0.0,0.0,0.0,0.0,0.0,0.0,0.0,0.0,0.0,0.0,0.0,0.0,0.0,0.0,0.0,0.0,0.0,0.0,0.0,0.0,0.0,0.0,0.0,0.0,0.0,0.0,0.0,0.0,0.0,0.0,0.0,0.0,0.0,0.0,0.0,0.0,0.0,0.0,0.0,0.0,0.0,0.0,0.0,0.0,0.0,0.0,0.0,0.0,0.0,0.0,0.0,0.0,0.0,0.0,0.0,0.0,0.0,0.0,0.0,0.0,0.0,0.0,0.0,0.0,0.0,0.0,0.0,0.0,0.0,0.0,0.0,0.0,0.0,0.0,0.0,0.0,0.0,0.0,0.0,0.0,0.0,0.0,0.0,0.0,0.0,0.0,0.0,0.0,0.0,0.0,0.0,0.0,0.0,0.0,0.0,0.0,0.0,0.0,0.0,0.0,0.0,0.0,0.0,0.0,0.0,0.0,0.0,0.0,0.0,0.0,0.0,0.0,0.0,0.0,0.0,0.0,0.0,0.0,0.0,0.0,0.0,0.0,0.0,0.0,0.0,0.0,0.0,0.0,0.0,0.0,0.0,0.0,0.0,0.0,0.0,0.0,0.0,0.0,0.0,0.0,0.0,0.0,0.0,0.0,0.0,0.0,0.0,0.0,0.0,0.0,0.0,0.0,0.0,0.0,0.0,0.0,0.0,0.0,0.0,0.0,0.0,0.0,0.0,0.0,0.0,0.0,0.0,0.0,0.0,0.0,0.0,0.0,0.0,0.0,0.0,0.0,0.0,0.0,0.0,0.0,0.0,0.0,0.0,0.0,0.0,0.0,0.0,0.0,0.0,0.0,0.0,0.0,0.0,0.0,0.0,0.0,0.0,0.0,0.0,0.0,0.0,0.0,0.0,0.0,0.0,0.0,0.0,0.0,0.0,0.0,0.0,0.0,0.0,0.0,0.0,0.0,0.0,0.0,0.0,0.0,0.0,0.0,0.0,0.0,0.0,0.0,0.0,0.0,0.0,0.0,0.0,0.0,0.0,0.0,0.0,0.0,0.0,0.0,0.0,0.0,0.0,0.0,0.0,0.0,0.0,0.0,0.0,0.0,0.0,0.0,0.0,0.0,0.0,0.0,0.0,0.0,0.0,0.0,0.0,0.0,0.0,0.0,0.0,0.0,0.0,0.0,0.0,0.0,0.0,0.0,0.0,0.0,0.0,0.0,0.0,0.0,0.0,0.0,0.0,0.0,0.0,0.0,0.0,0.0,0.0,0.0,0.0,0.0,0.0,0.0,0.0,0.0,0.0,0.0,0.0,0.0,0.0,0.0,0.0,0.0,0.0,0.0,0.0,0.0,0.0,0.0,0.0,0.0,0.0,0.0,0.0,0.0,0.0,0.0,0.0,0.0,0.0,0.0,0.0,0.0,0.0,0.0,0.0,0.0,0.0,0.0,0.0,0.0,0.0,0.0,0.0,0.0,0.0,0.0,0.0,0.0,0.0,0.0,0.0,0.0,0.0,0.0,0.0,0.0,0.0,0.0,0.0,0.0,0.0,0.0,0.0,0.0,0.0,0.0,0.0,0.0,0.0,0.0,0.0,0.0,0.0,0.0,0.0,0.0,0.0,0.0,0.0,0.0,0.0,0.0,0.0,0.0,0.0,0.0,0.0,0.0,0.0,0.0,0.0,0.0,0.0,0.0,0.0,0.0,0.0,0.0,0.0,0.0,0.0,0.0,0.0,0.0,0.0,0.0,0.0,0.0,0.0,0.0,0.0,0.0,0.0,0.0,0.0,0.0,0.0,0.0,0.0,0.0,0.0,0.0,0.0,0.0,0.0,0.0,0.0,0.0,0.0,0.0,0.0,0.0,0.0,0.0,0.0,0.0,0.0,0.0,0.0,0.0,0.0,0.0,0.0,0.0,0.0,0.0,0.0,0.0,0.0,0.0,0.0,0.0,0.0,0.0,0.0,0.0,0.0,0.0,0.0,0.0,0.0,0.0,0.0,0.0,0.0,0.0,0.0,0.0,0.0,0.0,0.0,0.0,0.0,0.0,0.0,0.0,0.0,0.0,0.0,0.0,0.0,0.0,0.0,0.0,0.0,0.0,0.0,0.0,0.0,0.0,0.0,0.0,0.0,0.0,0.0,0.0,0.0,0.0,0.0,0.0,0.0,0.0,0.0,0.0,0.0,0.0,0.0,0.0,0.0,0.0,0.0,0.0,0.0,0.0,0.0,0.0,0.0,0.0,0.0,0.0,0.0,0.0,0.0,0.0,0.0,0.0,0.0,0.0,0.0,0.0,0.0,0.0,0.0,0.0,0.0,0.0,0.0,0.0,0.0,0.0,0.0,0.0,0.0,0.0,0.0,0.0,0.0,0.0,0.0,0.0,0.0,0.0,0.0,0.0,0.0,0.0,0.0,0.0,0.0,0.0,0.0,0.0,0.0,0.0,0.0,0.0,0.0,0.0,0.0,0.0,0.0,0.0,0.0,0.0,0.0,0.0,0.0,0.0,0.0,0.0,0.0,0.0,0.0,0.0,0.0,0.0,0.0,0.0,0.0,0.0,0.0,0.0,0.0,0.0,0.0,0.0,0.0,0.0,0.0,0.0,0.0,0.0,0.0,0.0,0.0,0.0,0.0,0.0,0.0,0.0,0.0,0.0,0.0,0.0,0.0,0.0,0.0,0.0,0.0,0.0,0.0,0.0,0.0,0.0,0.0,0.0,0.0,0.0,0.0,0.0,0.0,0.0,0.0,0.0,0.0,0.0,0.0,0.0,0.0,0.0,0.0,0.0,0.0,0.0,0.0,0.0,0.0,0.0,0.0,0.0,0.0,0.0,0.0,0.0,0.0,0.0,0.0,0.0,0.0,0.0,0.0,0.0,0.0,0.0,0.0,0.0,0.0,0.0,0.0,0.0,0.0,0.0,0.0,0.0,0.0,0.0,0.0,0.0,0.0,0.0,0.0,0.0,0.0,0.0,0.0,0.0,0.0,0.0,0.0,0.0,0.0,0.0,0.0,0.0,0.0,0.0,0.0,0.0,0.0,0.0,0.0,0.0,0.0,0.0,0.0,0.0,0.0,0.0,0.0,0.0,0.0,0.0,0.0,0.0,0.0,0.0,0.0,0.0,0.0,0.0,0.0,0.0,0.0,0.0,0.0,0.0,0.0,0.0,0.0,0.0,0.0,0.0,0.0,0.0,0.0,0.0,0.0,0.0,0.0,0.0,0.0,0.0,0.0,0.0,0.0,0.0,0.0,0.0,0.0,0.0,0.0,0.0,0.0,0.0,0.0,0.0,0.0,0.0,0.0,0.0,0.0,0.0,0.0,0.0,0.0,0.0,0.0,0.0,0.0,0.0,0.0,0.0,0.0,0.0,0.0,0.0,0.0,0.0,0.0,0.0,0.0,0.0,0.0,0.0,0.0,0.0,0.0,0.0,0.0,0.0,0.0,0.0,0.0,0.0,0.0,0.0,0.0,0.0,0.0,0.0,0.0,0.0,0.0,0.0,0.0,0.0,0.0,0.0,0.0,0.0,0.0,0.0,0.0,0.0,0.0,0.0,0.0,0.0,0.0,0.0,0.0,0.0,0.0,0.0,0.0,0.0,0.0,0.0,0.0,0.0,0.0,0.0,0.0,0.0,0.0,0.0,0.0,0.0,0.0,0.0,0.0,0.0,0.0,0.0,0.0,0.0,0.0,0.0,0.0,0.0,0.0,0.0,0.0,0.0,0.0,0.0,0.0,0.0,0.0,0.0,0.0,0.0,0.0,0.0,0.0,0.0,0.0,0.0,0.0,0.0,0.0,0.0,0.0,0.0,0.0,0.0,0.0,0.0,0.0,0.0,0.0,0.0,0.0,0.0,0.0,0.0,0.0,0.0,0.0,0.0,0.0,0.0,0.0,0.0,0.0,0.0,0.0,0.0,0.0,0.0,0.0,0.0,0.0,0.0,0.0,0.0,0.0,0.0,0.0,0.0,0.0,0.0,0.0,0.0,0.0,0.0,0.0,0.0,0.0,0.0,0.0,0.0,0.0,0.0,0.0,0.0,0.0,0.0,0.0,0.0,0.0,0.0,0.0,0.0,0.0,0.0,0.0,0.0,0.0,0.0,0.0,0.0,0.0,0.0,0.0,0.0,0.0,0.0,0.0,0.0,0.0,0.0,0.0,0.0,0.0,0.0,0.0,0.0,0.0,0.0,0.0,0.0,0.0,0.0,0.0,0.0,0.0,0.0,0.0,0.0,0.0,0.0,0.0,0.0,0.0,0.0,0.0,0.0,0.0,0.0,0.0,0.0,0.0,0.0,0.0,0.0,0.0,0.0,0.0,0.0,0.0,0.0,0.0,0.0,0.0,0.0,0.0,0.0,0.0,0.0,0.0,0.0,0.0,0.0,0.0,0.0,0.0,0.0,0.0,0.0,0.0,0.0,0.0,0.0,0.0,0.0,0.0,0.0,0.0,0.0,0.0,0.0,0.0,0.0,0.0,0.0,0.0,0.0,0.0,0.0,0.0,0.0,0.0,0.0,0.0,0.0,0.0,0.0,0.0,0.0,0.0,0.0,0.0,0.0,0.0,0.0,0.0,0.0,0.0,0.0,0.0,0.0,0.0,0.0,0.0,0.0,0.0,0.0,0.0,0.0,0.0,0.0,0.0,0.0,0.0,0.0,0.0,0.0,0.0,0.0,0.0,0.0,0.0,0.0,0.0,0.0,0.0,0.0,0.0,0.0,0.0,0.0,0.0,0.0,0.0,0.0,0.0,0.0,0.0,0.0,0.0,0.0,0.0,0.0,0.0,0.0,0.0,0.0,0.0,0.0,0.0,0.0,0.0,0.0,0.0,0.0,0.0,0.0,0.0,0.0,0.0,0.0,0.0,0.0,0.0,0.0,0.0,0.0,0.0,0.0,0.0,0.0,0.0,0.0,0.0,0.0,0.0,0.0,0.0,0.0,0.0,0.0,0.0,0.0,0.0,0.0,0.0,0.0,0.0,0.0,0.0,0.0,0.0,0.0,0.0,0.0,0.0,0.0,0.0,0.0,0.0,0.0,0.0,0.0,0.0,0.0,0.0,0.0,0.0,0.0,0.0,0.0,0.0,0.0,0.0,0.0,0.0,0.0,0.0,0.0,0.0,0.0,0.0,0.0,0.0,0.0,0.0,0.0,0.0,0.0,0.0,0.0,0.0,0.0,0.0,0.0,0.0,0.0,0.0,0.0,0.0,0.0,0.0,0.0,0.0,0.0,0.0,0.0,0.0,0.0,0.0,0.0,0.0,0.0,0.0,0.0,0.0,0.0,0.0,0.0,0.0,0.0,0.0,0.0,0.0,0.0,0.0,0.0,0.0,0.0,0.0,0.0,0.0,0.0,0.0,0.0,0.0,0.0,0.0,0.0,0.0,0.0,0.0,0.0,0.0,0.0,0.0,0.0,0.0,0.0,0.0,0.0,0.0,0.0,0.0,0.0,0.0,0.0,0.0,0.0,0.0,0.0,0.0,0.0,0.0,0.0,0.0,0.0,0.0,0.0,0.0,0.0,0.0,0.0,0.0,0.0,0.0,0.0,0.0,0.0,0.0,0.0,0.0,0.0,0.0,0.0,0.0,0.0,0.0,0.0,0.0,0.0,0.0,0.0,0.0,0.0,0.0,0.0,0.0,0.0,0.0,0.0,0.0,0.0,0.0,0.0,0.0,0.0,0.0,0.0,0.0,0.0,0.0,0.0,0.0,0.0,0.0,0.0,0.0,0.0,0.0,0.0,0.0,0.0,0.0,0.0,0.0,0.0,0.0,0.0,0.0,0.0,0.0,0.0,0.0,0.0,0.0,-1.8543,0.0,0.0,0.0,0.0,0.0,0.0,0.0,0.0,0.0,0.0,0.0,0.0,0.0,0.0,0.0,0.0,0.0,0.0,0.0,0.0,0.0,0.0,0.0,0.0,0.0,0.0,0.0,0.0,0.0,0.0,0.0,0.0,0.0,0.0,0.0,0.0,0.0,0.0,0.0,0.0,0.0,0.0,0.0,0.0,0.0,0.0,0.0,0.0,0.0,0.0,0.0,0.0,0.0,0.0,0.0,0.0,0.0,0.0,0.0,0.0,0.0,0.0,0.0,0.0,0.0,0.0,0.0,0.0,0.0,0.0,0.0,0.0,0.0,0.0,0.0,0.0,0.0,0.0,0.0,0.0,0.0,0.0,0.0,0.0,0.0,0.0,0.0,0.0,0.0,0.0,0.0,0.0,0.0,0.0,0.0,0.0,0.0,0.0,0.0,0.0,0.0,0.0,0.0,0.0,0.0,0.0,0.0,0.0,0.0,0.0,0.0,0.0,0.0,0.0,0.0,0.0,-1.8776,0.0,0.0,0.0,0.0,0.0,0.0,0.0,0.0,0.0,0.0,0.0,0.0,0.0,0.0,0.0,0.0,0.0,0.0,0.0,0.0,0.0,0.0,0.0,0.0,0.0,0.0,0.0,0.0,0.0,0.0,0.0,0.0,0.0,0.0,0.0,0.0,0.0,0.0,0.0,0.0,0.0,0.0,0.0,0.0,0.0,0.0,0.0,0.0,0.0,0.0,0.0,0.0,0.0,0.0,0.0,0.0,0.0,0.0,0.0,0.0,0.0,0.0,0.0,0.0,0.0,0.0,0.0,0.0,0.0,0.0,0.0,0.0,0.0,0.0,0.0,0.0,0.0,0.0,0.0,0.0,0.0,0.0,0.0,0.0,0.0,0.0,0.0,0.0,0.0,0.0,0.0,0.0,0.0,0.0,0.0,0.0,0.0,0.0,0.0,0.0,0.0,0.0,0.0,0.0,0.0,0.0,0.0,0.0,-1.9975,-1.9405,-1.9359,-1.9598,-1.9339,-1.8738,-1.8791,-1.8619,-1.8256,-1.7908,0.0,0.0,0.0,0.0,0.0,0.0,0.0,0.0,0.0,0.0,0.0,0.0,0.0,0.0,0.0,0.0,0.0,0.0,0.0,0.0,0.0,0.0,0.0,0.0,0.0,0.0,0.0,0.0,0.0,0.0,0.0,0.0,0.0,0.0,0.0,0.0,0.0,0.0,0.0,0.0,0.0,0.0,0.0,0.0,0.0,0.0,0.0,0.0,0.0,0.0,0.0,0.0,0.0,0.0,0.0,0.0,0.0,0.0,0.0,0.0,0.0,0.0,0.0,0.0,0.0,0.0,0.0,0.0,0.0,0.0,0.0,0.0,0.0,0.0,0.0,0.0,0.0,0.0,0.0,0.0,0.0,0.0,0.0,0.0,0.0,0.0,-2.1581,-2.1581,0.0,0.0,0.0,0.0,0.0,0.0,0.0,0.0,0.0,0.0,0.0,0.0,0.0,-2.2578,-2.312,-2.2249,-2.1351,-2.0485,-2.0791,-1.9841,-1.7915,-1.9074,-1.892,-1.7777,-1.7804,0.0,-1.7432,-1.8398,0.0,0.0,0.0,0.0,0.0,0.0,0.0,0.0,0.0,0.0,0.0,0.0,0.0,0.0,0.0,0.0,0.0,0.0,0.0,0.0,0.0,0.0,0.0,0.0,0.0,0.0,0.0,0.0,0.0,0.0,0.0,0.0,0.0,0.0,0.0,0.0,0.0,0.0,0.0,0.0,0.0,0.0,0.0,0.0,0.0,0.0,0.0,0.0,0.0,0.0,0.0,0.0,0.0,0.0,0.0,0.0,0.0,0.0,0.0,0.0,0.0,0.0,0.0,0.0,0.0,0.0,0.0,0.0,0.0,0.0,0.0,0.0,0.0,0.0,0.0,0.0,0.0,0.0,0.0,0.0,0.0,0.0,0.0,0.0,0.0,-2.1356,-2.1523,-2.1523,-2.1317,-2.1093,0.0,0.0,0.0,0.0,0.0,0.0,0.0,0.0,0.0,-2.3203,-2.3232,-2.3555,-2.4274,-2.3121,-2.2437,-2.2224,-2.0937,-1.9734,-1.8708,-1.8558,-1.8146,-1.7582,-1.7582,-1.7508,-1.7427,-1.7818,-1.7546,-1.6847,0.0,0.0,0.0,0.0,-1.6513,-1.656,0.0,0.0,0.0,0.0,0.0,0.0,0.0,0.0,0.0,0.0,0.0,0.0,0.0,0.0,0.0,0.0,0.0,0.0,0.0,0.0,0.0,0.0,0.0,0.0,0.0,0.0,0.0,0.0,0.0,0.0,0.0,0.0,0.0,0.0,0.0,0.0,0.0,0.0,0.0,0.0,0.0,0.0,0.0,0.0,0.0,0.0,0.0,0.0,0.0,0.0,0.0,0.0,0.0,0.0,0.0,0.0,0.0,0.0,0.0,0.0,0.0,0.0,0.0,0.0,0.0,0.0,0.0,0.0,0.0,0.0,0.0,0.0,0.0,0.0,0.0,0.0,0.0,-2.1385,-2.1483,-2.1375,-2.1453,-2.1387,0.0,0.0,0.0,0.0,0.0,0.0,-2.2812,-2.2842,-2.3232,-2.4092,-2.4111,-2.4334,-2.4727,-2.3687,-2.2992,-2.2626,-2.0597,-1.942,-1.9065,-1.8048,-1.7582,-1.7582,-1.7582,-1.7582,-1.7562,-1.74,-1.7266,-1.7179,-1.6907,-1.6774,-1.6714,-1.6794,-1.682,-1.686,0.0,0.0,0.0,0.0,0.0,0.0,0.0,0.0,0.0,0.0,0.0,0.0,0.0,0.0,0.0,0.0,0.0,0.0,0.0,0.0,0.0,0.0,0.0,0.0,0.0,0.0,0.0,0.0,0.0,0.0,0.0,0.0,0.0,0.0,0.0,0.0,0.0,0.0,0.0,0.0,0.0,0.0,0.0,0.0,0.0,0.0,0.0,0.0,0.0,0.0,0.0,0.0,0.0,0.0,0.0,0.0,0.0,0.0,0.0,0.0,0.0,0.0,0.0,0.0,0.0,0.0,0.0,0.0,0.0,0.0,0.0,0.0,0.0,0.0,0.0,0.0,0.0,0.0,0.0,-2.1904,-2.2207,0.0,0.0,0.0,0.0,-2.2422,-2.2471,-2.2842,-2.3682,-2.3721,-2.4121,-2.5028,-2.5047,-2.4622,-2.3755,-2.3714,-2.2349,-1.9782,-1.9679,-1.8916,-1.7687,-1.7635,-1.7582,-1.7582,-1.7582,-1.7582,-1.7582,-1.7569,-1.7454,-1.7199,-1.7186,-1.7005,-1.674,-1.7072,-1.7179,-1.7219,0.0,0.0,0.0,0.0,0.0,0.0,0.0,0.0,0.0,0.0,0.0,0.0,0.0,0.0,0.0,0.0,0.0,0.0,0.0,0.0,0.0,0.0,0.0,0.0,0.0,0.0,0.0,0.0,0.0,0.0,0.0,0.0,0.0,0.0,0.0,0.0,0.0,0.0,0.0,0.0,0.0,0.0,0.0,0.0,0.0,0.0,0.0,0.0,0.0,0.0,0.0,0.0,0.0,0.0,0.0,0.0,0.0,0.0,0.0,0.0,0.0,0.0,0.0,0.0,0.0,0.0,0.0,0.0,0.0,0.0,0.0,0.0,0.0,0.0,0.0,0.0,0.0,0.0,0.0,-2.1934,-2.2256,0.0,-2.1924,-2.2425,-2.2764,-2.2867,-2.3428,-2.3994,-2.458,-2.4666,-2.4883,-2.5478,-2.5498,-2.5324,-2.4971,-2.4971,-2.4048,-2.2215,-2.1347,-2.0238,-1.8864,-1.7989,-1.7582,-1.7595,-1.7796,-1.7883,-1.7896,-1.809,-1.7876,-1.7448,-1.7649,-1.7662,-1.7609,-1.7903,-1.807,-1.8029,0.0,0.0,0.0,0.0,0.0,0.0,0.0,0.0,0.0,0.0,0.0,0.0,0.0,0.0,0.0,0.0,0.0,0.0,0.0,0.0,0.0,0.0,0.0,0.0,0.0,0.0,0.0,0.0,0.0,0.0,0.0,0.0,0.0,0.0,0.0,0.0,0.0,0.0,0.0,0.0,0.0,0.0,-2.16,0.0,0.0,0.0,0.0,0.0,0.0,0.0,0.0,0.0,0.0,0.0,0.0,0.0,0.0,0.0,0.0,0.0,0.0,0.0,0.0,0.0,0.0,0.0,0.0,0.0,0.0,0.0,0.0,0.0,0.0,0.0,0.0,0.0,0.0,0.0,-2.2353,-2.1934,-2.2383,-2.2617,-2.2344,-2.3002,-2.3496,-2.3769,-2.4316,-2.4824,-2.5273,-2.5293,-2.543,-2.5674,-2.5693,-2.5479,-2.502,-2.4559,-2.389,-2.3018,-2.1194,-2.0138,-1.9695,-1.8358,-1.7796,-1.7903,-1.8103,-1.8196,-1.8217,-1.841,-1.8257,-1.7909,-1.8116,-1.8196,-1.8223,-1.8417,-1.849,-1.849,0.0,0.0,0.0,0.0,0.0,0.0,0.0,0.0,0.0,0.0,0.0,0.0,0.0,0.0,0.0,0.0,0.0,0.0,0.0,0.0,0.0,0.0,0.0,0.0,0.0,0.0,0.0,0.0,0.0,0.0,0.0,0.0,0.0,0.0,0.0,0.0,0.0,0.0,0.0,0.0,0.0,0.0,-2.2422,0.0,0.0,0.0,0.0,0.0,0.0,0.0,0.0,0.0,0.0,0.0,0.0,0.0,0.0,0.0,0.0,0.0,0.0,0.0,0.0,0.0,0.0,0.0,0.0,0.0,0.0,0.0,0.0,0.0,0.0,0.0,0.0,0.0,-2.1963,-2.2266,-2.2383,-2.1973,-2.2656,-2.3164,-2.3227,-2.3619,-2.417,-2.5057,-2.5125,-2.5283,-2.5664,-2.5693,-2.5693,-2.5693,-2.5693,-2.5069,-2.3791,-2.2458,-2.1803,-2.1752,-1.902,-1.8576,-2.0075,-1.8629,-1.8217,-1.849,-1.8504,-1.8504,-1.8504,-1.851,-1.8517,-1.8517,-1.851,-1.8504,-1.8504,-1.8517,-1.8517,-1.8517,0.0,0.0,0.0,0.0,0.0,0.0,0.0,0.0,0.0,0.0,0.0,0.0,0.0,0.0,0.0,0.0,0.0,0.0,0.0,0.0,0.0,0.0,0.0,0.0,0.0,0.0,0.0,0.0,0.0,0.0,0.0,0.0,0.0,0.0,0.0,0.0,0.0,0.0,0.0,0.0,0.0,0.0,-2.249,0.0,0.0,0.0,0.0,0.0,0.0,0.0,0.0,0.0,0.0,0.0,0.0,0.0,0.0,0.0,0.0,0.0,0.0,0.0,0.0,0.0,0.0,0.0,0.0,0.0,0.0,0.0,0.0,0.0,0.0,0.0,0.0,-2.2471,-2.2353,-2.2705,-2.2877,-2.2769,-2.3281,-2.3613,-2.3613,-2.4333,-2.4861,-2.5096,-2.5371,-2.5557,-2.5684,-2.5693,-2.5693,-2.5693,-2.5693,-2.5528,-2.5177,-2.4766,-2.4097,-2.3126,-2.1623,-2.061,-2.0083,-1.8905,-1.841,-1.8504,-1.8718,-1.8804,-1.8824,-1.9038,-1.9125,-1.9105,-1.8891,-1.8804,-1.8831,-1.9045,-1.9125,-1.9125,0.0,0.0,0.0,0.0,0.0,0.0,0.0,0.0,0.0,0.0,0.0,0.0,0.0,0.0,0.0,0.0,0.0,0.0,0.0,0.0,0.0,0.0,0.0,0.0,0.0,0.0,0.0,0.0,0.0,0.0,0.0,0.0,0.0,0.0,0.0,0.0,0.0,0.0,0.0,0.0,0.0,0.0,-2.2711,-2.2578,-2.2048,-2.1377,-2.1155,-2.0588,-1.9846,-1.9204,0.0,0.0,0.0,0.0,0.0,0.0,0.0,0.0,0.0,0.0,0.0,0.0,0.0,0.0,0.0,0.0,0.0,0.0,0.0,0.0,0.0,0.0,0.0,0.0,-2.25,-2.273,-2.273,-2.2945,-2.3159,-2.3389,-2.3633,-2.3926,-2.4287,-2.4822,-2.5194,-2.5332,-2.5596,-2.5693,-2.5693,-2.5693,-2.5693,-2.5693,-2.5693,-2.5693,-2.5693,-2.5299,-2.4703,-2.3835,-2.2262,-2.1139,-2.0377,-1.9237,-1.8738,-1.8865,-1.9038,-1.9112,-1.9125,-1.9299,-1.9424,0.0,0.0,0.0,0.0,0.0,-1.9424,-1.9424,0.0,0.0,0.0,0.0,0.0,0.0,0.0,0.0,0.0,0.0,0.0,0.0,0.0,0.0,0.0,0.0,0.0,0.0,0.0,0.0,0.0,0.0,0.0,0.0,0.0,0.0,0.0,0.0,0.0,0.0,0.0,0.0,0.0,0.0,0.0,0.0,0.0,0.0,0.0,0.0,0.0,0.0,-2.3052,-2.2682,-2.1907,-2.0916,-2.033,-1.941,-1.843,-1.817,0.0,0.0,0.0,0.0,0.0,0.0,0.0,0.0,0.0,0.0,0.0,0.0,0.0,0.0,0.0,0.0,0.0,0.0,0.0,0.0,0.0,0.0,0.0,0.0,-2.2818,-2.311,-2.3159,-2.3169,-2.3315,-2.374,-2.3877,-2.4228,-2.5037,-2.5165,-2.5312,-2.5664,-2.5693,-2.5693,-2.5693,0.0,0.0,0.0,0.0,-2.5781,-2.583,-2.4995,-2.4443,-2.4137,-2.1988,-2.0973,-2.0877,-1.9554,-1.9118,-1.9424,-1.9424,-1.9424,-1.9424,-1.9424,-1.9424,-1.9424,-1.9424,-1.9424,-1.9424,-1.9424,-1.9424,-1.9424,0.0,0.0,0.0,0.0,0.0,0.0,0.0,0.0,0.0,0.0,0.0,0.0,0.0,0.0,0.0,0.0,0.0,0.0,0.0,0.0,0.0,0.0,0.0,0.0,0.0,0.0,0.0,0.0,0.0,0.0,0.0,0.0,0.0,0.0,0.0,0.0,0.0,0.0,0.0,0.0,0.0,0.0,-2.3081,-2.3003,-2.2834,-2.2499,-2.1412,-2.0685,-1.9939,-1.8039,-1.7733,-1.8062,-1.7124,0.0,0.0,0.0,0.0,0.0,0.0,0.0,0.0,0.0,0.0,0.0,0.0,0.0,0.0,0.0,0.0,0.0,0.0,0.0,0.0,-2.25,-2.2818,-2.3218,-2.3613,-2.3662,-2.3691,-2.3779,-2.4404,-2.493,-2.5096,-2.54,-2.5644,-2.5684,-2.5693,-2.5693,-2.5693,-2.5693,-2.5849,-2.625,-2.626,-2.6426,-2.6768,-2.6582,-2.5876,-2.4652,0.0,0.0,-2.0877,-1.9775,-1.9312,-1.9424,-1.9424,-1.9424,-1.9424,-1.9424,-1.9424,-1.9424,-1.9424,-1.9424,-1.9424,-1.9424,-1.9424,-1.9424,0.0,0.0,0.0,0.0,0.0,0.0,0.0,0.0,0.0,0.0,0.0,0.0,0.0,0.0,0.0,0.0,0.0,0.0,0.0,0.0,0.0,0.0,0.0,0.0,0.0,0.0,0.0,0.0,0.0,0.0,0.0,0.0,0.0,0.0,0.0,0.0,0.0,0.0,0.0,0.0,0.0,0.0,-2.3047,-2.2448,-2.181,-2.1132,-1.9951,-1.8964,-1.8085,-1.687,-1.6723,-1.6882,-1.6188,-1.6362,-1.6706,0.0,0.0,0.0,0.0,0.0,0.0,0.0,0.0,0.0,0.0,0.0,0.0,0.0,0.0,-2.1953,0.0,0.0,-2.2578,-2.275,-2.2955,-2.3247,-2.373,-2.3975,-2.4189,-2.4404,-2.4851,-2.5156,-2.5381,-2.5605,-2.5693,-2.5693,-2.5693,-2.5781,-2.6055,-2.6064,-2.626,-2.6689,-2.6699,-2.6807,-2.7012,-2.7236,-2.6205,-2.3986,-2.3657,-2.2346,-2.0139,-1.9632,-1.9424,-1.9424,-1.9424,-1.9424,-1.9424,-1.9424,-1.9424,-1.9424,-1.9424,-1.9424,-1.9424,-1.9424,-1.9424,-1.9424,0.0,0.0,0.0,0.0,0.0,0.0,0.0,0.0,0.0,0.0,0.0,0.0,0.0,0.0,0.0,0.0,0.0,0.0,0.0,0.0,0.0,0.0,0.0,0.0,0.0,0.0,0.0,0.0,0.0,0.0,0.0,0.0,0.0,0.0,0.0,0.0,0.0,0.0,0.0,0.0,0.0,0.0,-2.296,-2.1756,-2.0711,-1.967,-1.8234,-1.7037,-1.6109,-1.5872,-1.5784,-1.5744,-1.5558,-1.5444,-1.5513,-1.6031,-1.6507,0.0,0.0,0.0,0.0,0.0,0.0,0.0,0.0,0.0,-2.157,-2.2041,-2.2129,-2.2236,-2.2568,-2.2637,-2.273,-2.3149,-2.3218,-2.3447,-2.3965,-2.4326,-2.4707,-2.5146,-2.5195,-2.5342,-2.5654,-2.5693,-2.5693,-2.5693,-2.5762,-2.6016,-2.6367,-2.6465,-2.6709,-2.7129,-2.7139,-2.7178,-2.7266,-2.7617,-2.6467,-2.3737,-2.38,-2.2379,-1.9815,-1.9533,-1.9424,-1.9424,-1.9424,-1.9424,-1.9424,-1.9424,-1.9424,-1.9424,-1.9424,-1.9424,-1.9424,-1.9424,-1.9424,-1.9424,0.0,0.0,0.0,0.0,0.0,0.0,0.0,0.0,0.0,0.0,0.0,0.0,0.0,0.0,0.0,0.0,0.0,0.0,0.0,0.0,0.0,0.0,0.0,0.0,0.0,0.0,0.0,0.0,0.0,0.0,0.0,0.0,0.0,0.0,0.0,0.0,0.0,0.0,0.0,0.0,0.0,0.0,-2.296,-2.1756,-2.1203,-2.08,-1.8503,-1.7598,-1.7318,-1.6204,-1.5784,-1.5771,-1.5744,-1.5605,-1.5553,-1.63,0.0,-1.7854,-1.8754,-1.9904,-2.0709,-2.0111,-2.0889,-2.196,0.0,0.0,-2.249,-2.2867,-2.2955,-2.2974,-2.3013,-2.3023,-2.3169,-2.3652,-2.3721,-2.3994,-2.4861,-2.5008,-2.5156,-2.5557,-2.5615,-2.5635,-2.5684,-2.5693,-2.5693,-2.5693,-2.6103,-2.6338,-2.6387,-2.6738,-2.7139,-2.763,-2.7598,-2.7773,-2.8144,-2.8203,-2.7391,-2.5736,-2.4425,-2.2927,-2.1309,-1.9982,-1.9424,-1.9424,-1.9424,-1.9424,-1.9424,-1.9424,-1.9424,-1.9424,-1.9424,-1.9424,-1.9424,-1.9424,-1.9424,-1.9424,0.0,0.0,0.0,0.0,0.0,0.0,0.0,0.0,0.0,0.0,0.0,0.0,0.0,0.0,0.0,0.0,0.0,0.0,0.0,0.0,0.0,0.0,0.0,0.0,0.0,0.0,0.0,0.0,0.0,0.0,0.0,0.0,0.0,0.0,0.0,0.0,0.0,0.0,0.0,0.0,0.0,0.0,-2.296,-2.1756,-2.0749,-1.98,-1.8054,-1.698,0.0,0.0,-1.5578,-1.5578,-1.5578,-1.5491,-1.5526,-1.6111,-1.6688,0.0,-1.8557,-2.0199,-2.1278,0.0,-2.0927,-2.2165,-2.1872,-2.2188,-2.2627,-2.3013,-2.3091,-2.3091,-2.3091,-2.3305,-2.3574,0.0,-2.3994,-2.4365,-2.5028,-2.5116,-2.5234,-2.5635,-2.5693,-2.5693,-2.5693,-2.5967,-2.6113,-2.6113,-2.6514,-2.6865,-2.7119,-2.7295,-2.7588,-2.8018,-2.8027,-2.8115,-2.8291,-2.8291,-2.7565,-2.6118,-2.5443,-2.3877,-2.1586,-2.0981,-2.0199,-1.9424,-1.9424,-1.9424,-1.9424,-1.9424,-1.9424,-1.9424,-1.9424,-1.9424,-1.9424,-1.9424,-1.9424,-1.9424,0.0,0.0,0.0,0.0,0.0,0.0,0.0,0.0,0.0,0.0,0.0,0.0,0.0,0.0,0.0,0.0,0.0,0.0,0.0,0.0,0.0,0.0,0.0,0.0,0.0,0.0,0.0,0.0,0.0,0.0,0.0,0.0,0.0,0.0,0.0,0.0,0.0,0.0,0.0,0.0,0.0,0.0,-2.2984,-2.1998,-2.0748,-1.935,-1.8098,-1.68,0.0,0.0,-1.5714,-1.5714,-1.5714,-1.5659,-1.5763,-1.6745,-1.7345,-1.7886,-1.8764,0.0,0.0,-1.9974,-2.1119,-2.2461,-2.168,-2.2097,-2.2773,-2.3033,-2.3091,-2.313,-2.3257,-2.3574,-2.3867,-2.4102,-2.4394,-2.4746,-2.5185,-2.5254,-2.5371,-2.5654,-2.5791,-2.5869,-2.5869,-2.6201,-2.6435,-2.6553,-2.6953,-2.7334,-2.7699,-2.7826,-2.7978,-2.8281,-2.8291,-2.8291,-2.8291,-2.8291,-2.778,-2.6717,-2.6264,-2.4986,-2.2806,-2.1975,-2.1031,-1.9982,-1.9591,-1.9424,-1.9424,-1.9424,-1.9424,-1.9424,-1.9424,-1.9424,-1.9424,-1.9424,-1.9424,-1.9424,0.0,0.0,0.0,0.0,0.0,0.0,0.0,0.0,0.0,0.0,0.0,0.0,0.0,0.0,0.0,0.0,0.0,0.0,0.0,0.0,0.0,0.0,0.0,0.0,0.0,0.0,0.0,0.0,0.0,0.0,0.0,0.0,0.0,0.0,0.0,0.0,0.0,0.0,0.0,0.0,0.0,0.0,-2.3052,-2.2643,-2.1712,-2.0489,-1.9209,0.0,0.0,0.0,-1.6566,-1.6566,-1.6566,-1.6343,0.0,-1.8661,-1.9845,0.0,0.0,0.0,-2.1723,-2.1013,-2.1951,-2.3071,-2.3028,-2.3081,-2.3081,-2.3091,-2.3091,-2.3227,-2.3691,-2.3779,-2.4062,-2.494,-2.5086,-2.5205,-2.5606,-2.5664,-2.5674,-2.5693,-2.6113,-2.6367,0.0,-2.6387,-2.6562,-2.6963,-2.7402,-2.7708,-2.7718,-2.8057,-2.8281,-2.8291,-2.8291,-2.8291,-2.8291,-2.8291,-2.8291,-2.8237,-2.6771,-2.6045,-2.5873,-2.2919,-2.1586,-2.1472,-2.0033,-1.9424,-1.9424,-1.9424,-1.9424,-1.9424,-1.9424,-1.9424,-1.9424,-1.9424,-1.9424,-1.9424,0.0,0.0,0.0,0.0,0.0,0.0,0.0,0.0,0.0,0.0,0.0,0.0,0.0,0.0,0.0,0.0,0.0,0.0,0.0,0.0,0.0,0.0,0.0,0.0,0.0,0.0,0.0,0.0,0.0,0.0,0.0,0.0,0.0,0.0,0.0,0.0,0.0,0.0,0.0,0.0,0.0,0.0,-2.2705,-2.2568,-2.1447,-2.0023,0.0,0.0,0.0,0.0,0.0,0.0,-1.7382,0.0,0.0,-1.8774,-2.0026,-2.1024,-2.1115,0.0,-2.2308,-2.2361,-2.2712,-2.3091,-2.3091,-2.3091,-2.3091,-2.3091,-2.3091,-2.314,-2.333,-2.3818,-2.4297,-2.459,-2.5127,-2.5566,-2.5664,-2.5693,-2.5693,-2.5693,-2.6123,0.0,0.0,0.0,0.0,-2.7432,-2.7842,-2.8086,-2.8086,-2.8223,-2.8291,-2.8291,-2.8291,-2.8291,-2.8291,-2.8291,-2.8291,-2.8291,-2.6825,-2.61,-2.5991,-2.2983,-2.2145,-2.2927,-2.0486,-1.9982,-2.0752,-1.9815,-1.9424,-1.9424,-1.9424,-1.9424,-1.9424,-1.9424,-1.9424,-1.9424,0.0,0.0,0.0,0.0,0.0,0.0,0.0,0.0,0.0,0.0,0.0,0.0,0.0,0.0,0.0,0.0,0.0,0.0,0.0,0.0,0.0,0.0,0.0,0.0,0.0,0.0,0.0,0.0,0.0,0.0,0.0,0.0,0.0,0.0,0.0,0.0,0.0,0.0,0.0,0.0,0.0,0.0,-2.2275,-2.2109,-2.1278,0.0,0.0,0.0,0.0,0.0,0.0,0.0,0.0,-1.8471,-1.8944,-1.9571,-2.0478,-2.1327,-2.1953,-2.2305,-2.2617,-2.2994,-2.3091,-2.3091,-2.3091,-2.3091,-2.314,-2.334,-2.3198,-2.3188,-2.35,-2.3997,-2.4414,-2.4414,-2.5019,-2.5498,-2.5498,-2.5498,-2.5615,-2.5937,-2.6348,-2.6777,0.0,0.0,0.0,-2.7891,-2.8135,-2.8291,-2.8291,-2.8291,-2.8291,-2.8291,-2.8291,-2.8291,-2.8291,-2.8291,-2.8291,-2.8291,-2.734,-2.6888,-2.6825,-2.4314,-2.3702,-2.4488,-2.2047,-2.1209,-2.1529,-2.0587,-1.9866,-1.9424,-1.9424,-1.9424,-1.9424,-1.9424,-1.9424,-1.9424,0.0,0.0,0.0,0.0,0.0,0.0,0.0,0.0,0.0,0.0,0.0,0.0,0.0,0.0,0.0,0.0,0.0,0.0,0.0,0.0,0.0,0.0,0.0,0.0,0.0,0.0,0.0,0.0,0.0,0.0,0.0,0.0,0.0,0.0,0.0,0.0,0.0,0.0,0.0,0.0,0.0,0.0,-2.1807,-2.1356,0.0,0.0,0.0,0.0,0.0,0.0,0.0,0.0,0.0,-1.9871,-2.0752,-2.1103,-2.1239,-2.1434,-2.2295,-2.2529,-2.2637,-2.2994,-2.3091,-2.3091,-2.3091,-2.3091,-2.3218,-2.3672,-2.3428,-2.3344,0.0,0.0,-2.4414,-2.4414,-2.4805,-2.5145,-2.5145,-2.5145,-2.5468,0.0,0.0,0.0,0.0,0.0,0.0,-2.8291,0.0,-2.8291,-2.8291,-2.8291,-2.8291,-2.8291,-2.8291,-2.8291,-2.8291,-2.8291,-2.8291,-2.8291,-2.8291,-2.8291,-2.8237,-2.6771,-2.6155,-2.61,-2.4488,-2.3039,-2.1805,-2.1635,-2.0752,-1.954,-1.9424,-1.9424,-1.9424,-1.9424,-1.9424,-1.9424,0.0,0.0,0.0,0.0,0.0,0.0,0.0,0.0,0.0,0.0,0.0,0.0,0.0,0.0,0.0,0.0,0.0,0.0,0.0,0.0,0.0,0.0,0.0,0.0,0.0,0.0,0.0,0.0,0.0,0.0,0.0,0.0,0.0,0.0,0.0,0.0,0.0,0.0,0.0,0.0,0.0,0.0,-2.1387,0.0,0.0,0.0,0.0,0.0,0.0,0.0,0.0,0.0,0.0,-2.1339,-2.1572,-2.1689,-2.1943,-2.2236,-2.2451,-2.2744,-2.2955,-2.3062,-2.3091,-2.3091,-2.3091,-2.3091,-2.312,-2.3237,-2.3169,-2.3159,0.0,0.0,0.0,-2.4414,-2.5068,0.0,-2.5566,-2.5566,0.0,-2.6328,0.0,-2.7187,-2.7679,-2.8047,0.0,0.0,-2.8291,-2.8291,-2.8291,-2.8291,-2.8291,-2.8291,-2.8291,-2.8291,-2.8291,-2.8291,-2.8291,-2.8291,-2.8291,-2.8291,-2.8237,-2.6771,-2.6717,-2.7609,-2.4939,-2.4267,-2.4765,-2.2533,-2.1365,-2.0923,-1.9815,-1.9424,-1.9424,-1.9424,-1.9424,-1.9424,0.0,0.0,0.0,0.0,0.0,0.0,0.0,0.0,0.0,0.0,0.0,0.0,0.0,0.0,0.0,0.0,0.0,0.0,0.0,0.0,0.0,0.0,0.0,0.0,0.0,0.0,0.0,0.0,0.0,0.0,0.0,0.0,0.0,0.0,0.0,0.0,0.0,0.0,0.0,0.0,0.0,0.0,0.0,0.0,0.0,0.0,0.0,0.0,0.0,0.0,0.0,-2.1562,-2.1807,-2.1885,-2.1924,-2.2109,0.0,-2.2549,-2.2734,-2.2916,-2.3091,-2.3091,-2.3091,-2.3052,-2.2867,-2.2818,-2.292,-2.3105,-2.2998,0.0,-2.3359,0.0,0.0,0.0,0.0,0.0,-2.5439,-2.5439,-2.5752,0.0,-2.6875,0.0,-2.7881,-2.8154,-2.8291,0.0,-2.8291,-2.8291,-2.8291,-2.8291,-2.8291,-2.8291,-2.8291,-2.8291,-2.8291,-2.8291,-2.8291,-2.8291,-2.8291,-2.8291,-2.8291,-2.7447,-2.7501,-2.8237,0.0,-2.5882,-2.5982,-2.4258,-2.3207,-2.2428,-2.0923,-2.0371,-2.0314,-1.9649,-1.9424,-1.9424,0.0,0.0,0.0,0.0,0.0,0.0,0.0,0.0,0.0,0.0,0.0,0.0,0.0,0.0,0.0,0.0,0.0,0.0,0.0,0.0,0.0,0.0,0.0,0.0,0.0,0.0,0.0,0.0,0.0,0.0,0.0,0.0,0.0,0.0,0.0,0.0,0.0,0.0,0.0,0.0,0.0,0.0,0.0,0.0,0.0,0.0,0.0,0.0,0.0,0.0,-2.1924,-2.1982,-2.2031,-2.2051,-2.2129,-2.249,-2.2598,-2.2676,-2.3003,-2.3091,-2.3091,-2.3091,-2.3091,-2.2984,-2.2607,-2.251,-2.2598,-2.2973,0.0,-2.2734,-2.3486,-2.4014,-2.4228,-2.3926,0.0,-2.5135,-2.5194,-2.5156,-2.5625,-2.6865,-2.7012,-2.7353,-2.8213,-2.8291,-2.8291,-2.8291,-2.8291,-2.8291,-2.8291,-2.8291,-2.8291,-2.8291,-2.8291,-2.8291,-2.8291,-2.8291,-2.8291,-2.8291,-2.8291,-2.8291,-2.8291,-2.8291,-2.8291,-2.8291,-2.8291,-2.7555,-2.6381,-2.6155,-2.5325,-2.3933,-2.2476,-2.1862,-2.1699,-2.0263,-1.97,-1.9649,0.0,0.0,0.0,0.0,0.0,0.0,0.0,0.0,0.0,0.0,0.0,0.0,0.0,0.0,0.0,0.0,0.0,0.0,0.0,0.0,0.0,0.0,0.0,0.0,0.0,0.0,0.0,0.0,0.0,0.0,0.0,0.0,0.0,0.0,0.0,0.0,0.0,0.0,0.0,0.0,0.0,0.0,0.0,0.0,0.0,0.0,0.0,0.0,0.0,0.0,-2.2119,-2.2461,-2.2769,-2.2877,-2.2896,-2.2964,-2.2984,-2.3003,-2.3081,-2.3091,-2.3091,-2.3091,-2.3091,-2.2984,-2.2607,-2.251,0.0,0.0,-2.2324,-2.2559,-2.2705,-2.3369,-2.3984,-2.4258,0.0,0.0,0.0,0.0,-2.5967,0.0,0.0,0.0,0.0,0.0,0.0,0.0,0.0,-2.8291,-2.8291,-2.8291,-2.8291,-2.8291,-2.8291,-2.8291,-2.8291,-2.8291,-2.8291,-2.8291,-2.8291,-2.8291,-2.8291,-2.8291,-2.8291,-2.8291,-2.8291,0.0,-2.7843,-2.6599,-2.5936,-2.5544,-2.4044,-2.3431,-2.3263,-2.1756,-2.1194,-2.1031,0.0,0.0,0.0,0.0,0.0,0.0,0.0,0.0,0.0,0.0,-2.6499,0.0,0.0,0.0,0.0,0.0,0.0,0.0,0.0,0.0,0.0,0.0,0.0,0.0,0.0,0.0,0.0,0.0,0.0,0.0,0.0,0.0,0.0,0.0,0.0,0.0,0.0,0.0,0.0,0.0,0.0,0.0,0.0,0.0,0.0,0.0,0.0,0.0,0.0,0.0,-2.1973,-2.2588,-2.2964,-2.3091,-2.3091,-2.3091,-2.3091,-2.3091,-2.3091,-2.3091,-2.3091,-2.3091,-2.3091,-2.2925,-2.2334,0.0,0.0,0.0,-2.1709,-2.1941,-2.2432,0.0,0.0,0.0,0.0,0.0,0.0,0.0,0.0,0.0,0.0,0.0,0.0,0.0,0.0,0.0,0.0,-2.8291,-2.8291,-2.8291,-2.8291,-2.8291,-2.8291,-2.8291,-2.8291,-2.8291,-2.8291,-2.8291,-2.8291,-2.8291,-2.8291,-2.8291,-2.8291,-2.8291,-2.8291,0.0,-2.8237,-2.7565,-2.7222,-2.7114,-2.5599,-2.4986,-2.482,-2.3319,-2.2258,-2.1472,0.0,0.0,0.0,0.0,0.0,0.0,0.0,0.0,-2.6499,-2.6499,-2.6499,-2.6499,-2.6499,-2.6499,0.0,0.0,0.0,0.0,0.0,0.0,0.0,0.0,0.0,0.0,0.0,0.0,0.0,0.0,0.0,0.0,0.0,0.0,0.0,0.0,0.0,0.0,0.0,0.0,0.0,0.0,0.0,0.0,0.0,0.0,0.0,0.0,0.0,0.0,0.0,0.0,-2.1639,-2.2272,-2.2691,-2.2886,-2.2955,-2.2955,-2.2955,-2.2984,-2.3071,-2.3091,-2.3091,-2.3091,-2.3091,-2.2877,-2.208,-2.1885,0.0,0.0,-2.1132,-2.1424,-2.2236,0.0,-2.3193,0.0,0.0,0.0,0.0,0.0,0.0,0.0,0.0,0.0,0.0,0.0,0.0,0.0,0.0,0.0,-2.8291,-2.8291,-2.8291,-2.8291,-2.8291,-2.8291,-2.8291,-2.8291,-2.8291,-2.8291,-2.8291,-2.8291,-2.8291,-2.8291,-2.8291,-2.8291,-2.8291,0.0,0.0,-2.8291,-2.8291,-2.8174,-2.6997,-2.6554,-2.6381,-2.4884,-2.3543,-2.2476,0.0,0.0,0.0,0.0,0.0,0.0,0.0,0.0,-2.6499,-2.6499,-2.6499,-2.6499,-2.6499,-2.6499,0.0,0.0,0.0,0.0,0.0,0.0,0.0,0.0,0.0,0.0,0.0,0.0,0.0,-2.4862,-2.4779,0.0,0.0,0.0,0.0,0.0,0.0,0.0,0.0,0.0,0.0,0.0,0.0,0.0,0.0,0.0,0.0,0.0,0.0,0.0,0.0,0.0,0.0,-2.1385,-2.1865,-2.2266,-2.2568,-2.2568,0.0,0.0,-2.2994,-2.3091,-2.3091,-2.3091,-2.3091,-2.2877,-2.208,0.0,0.0,-2.084,-2.0947,-2.1337,-2.1855,-2.2285,-2.2842,0.0,0.0,0.0,0.0,0.0,0.0,0.0,0.0,0.0,0.0,0.0,0.0,0.0,0.0,0.0,-2.8291,-2.8291,-2.8291,-2.8291,-2.8291,-2.8291,-2.8291,-2.8291,-2.8291,-2.8291,-2.8291,-2.8291,-2.8291,-2.8291,-2.8291,-2.8291,-2.8291,0.0,0.0,-2.8291,-2.8291,-2.8291,-2.8121,-2.8121,-2.7897,-2.6436,-2.5818,-2.5261,0.0,0.0,0.0,0.0,0.0,0.0,0.0,-2.6499,-2.6499,-2.6499,-2.6499,-2.6499,-2.6499,-2.6499,0.0,0.0,0.0,0.0,0.0,0.0,0.0,0.0,0.0,0.0,0.0,0.0,0.0,-2.5908,-2.53,0.0,0.0,0.0,0.0,0.0,0.0,-2.1441,0.0,0.0,0.0,0.0,0.0,0.0,0.0,0.0,0.0,0.0,0.0,0.0,0.0,0.0,0.0,0.0,-2.1123,-2.1387,0.0,0.0,-2.251,-2.2607,-2.2984,-2.3091,-2.3091,-2.3091,-2.2906,-2.2607,-2.2021,0.0,-2.1318,-2.0732,-2.0742,-2.0967,-2.1406,-2.1846,-2.2334,0.0,0.0,0.0,0.0,0.0,0.0,0.0,0.0,0.0,0.0,0.0,0.0,0.0,0.0,0.0,-2.8291,-2.8291,-2.8291,-2.8291,-2.8291,-2.8291,-2.8291,-2.8291,-2.8291,-2.8291,-2.8291,-2.8291,-2.8291,-2.8291,-2.8291,-2.8291,-2.8291,0.0,0.0,-2.8291,-2.8291,-2.8291,-2.8291,-2.8291,-2.8237,-2.7618,-2.6879,-2.5927,0.0,0.0,0.0,0.0,0.0,0.0,-2.6499,-2.6499,-2.6499,-2.6499,-2.6499,-2.6499,-2.6499,-2.6499,-2.6499,-2.6499,0.0,0.0,0.0,0.0,0.0,0.0,0.0,0.0,0.0,0.0,0.0,-2.6499,-2.5804,-2.5441,0.0,0.0,-2.3927,-2.3891,0.0,0.0,0.0,0.0,0.0,0.0,0.0,0.0,0.0,0.0,0.0,0.0,0.0,0.0,0.0,0.0,0.0,0.0,0.0,0.0,0.0,0.0,-2.2227,-2.2422,-2.2789,-2.3003,-2.3091,-2.3091,-2.2779,-2.2402,0.0,0.0,-2.1103,-2.0693,-2.0605,-2.0703,-2.1112,-2.1592,-2.2021,0.0,0.0,0.0,0.0,0.0,0.0,0.0,0.0,0.0,0.0,0.0,0.0,0.0,0.0,0.0,-2.8291,-2.8291,-2.8291,-2.8291,-2.8291,-2.8291,-2.8291,-2.8291,-2.8291,-2.8291,-2.8291,-2.8291,-2.8291,-2.8291,-2.8291,-2.8291,-2.8291,0.0,0.0,-2.8291,-2.8291,-2.8291,-2.8291,-2.8291,-2.8291,-2.8291,-2.7618,-2.6717,0.0,0.0,0.0,0.0,0.0,0.0,0.0,-2.6499,-2.6499,-2.6499,-2.6499,-2.6499,-2.6499,-2.6499,-2.6499,-2.6499,0.0,0.0,0.0,0.0,0.0,0.0,0.0,0.0,0.0,0.0,0.0,-2.6499,-2.6499,-2.6487,-2.6452,-2.5453,-2.4969,-2.4933,0.0,0.0,0.0,0.0,0.0,0.0,0.0,0.0,0.0,0.0,0.0,0.0,0.0,0.0,0.0,0.0,0.0,0.0,0.0,0.0,0.0,0.0,-2.1553,-2.1982,-2.2402,-2.2822,-2.3091,-2.3091,-2.2779,-2.2402,0.0,0.0,-2.1103,-2.0693,-2.0605,-2.0703,-2.1112,-2.1592,-2.2021,-2.2441,0.0,0.0,0.0,0.0,0.0,0.0,0.0,0.0,0.0,0.0,0.0,0.0,0.0,0.0,-2.8291,-2.8291,-2.8291,-2.8291,-2.8291,-2.8291,-2.8291,-2.8291,-2.8291,-2.8291,-2.8291,-2.8291,-2.8291,-2.8291,-2.8291,-2.8291,0.0,0.0,0.0,-2.8291,-2.8291,-2.8291,-2.8291,-2.8291,-2.8291,-2.8291,-2.8291,-2.8067,0.0,0.0,0.0,0.0,0.0,0.0,0.0,0.0,-2.6499,-2.6499,-2.6499,-2.6499,-2.6499,-2.6499,-2.6499,-2.6499,0.0,0.0,0.0,0.0,0.0,0.0,0.0,0.0,0.0,0.0,0.0,-2.6499,-2.6499,-2.6499,-2.6499,-2.6164,-2.6025,-2.599,-2.4957,0.0,0.0,0.0,0.0,0.0,0.0,0.0,0.0,0.0,0.0,0.0,0.0,0.0,0.0,0.0,0.0,0.0,0.0,0.0,0.0,0.0,0.0,0.0,-2.1973,-2.2178,-2.2285,-2.2285,-2.1953,-2.157,-2.1434,0.0,-2.0732,-2.0635,-2.0605,-2.0644,-2.0752,-2.1387,-2.1934,-2.206,-2.2676,0.0,0.0,0.0,0.0,0.0,0.0,0.0,0.0,0.0,0.0,0.0,0.0,0.0,-2.8291,-2.8291,-2.8291,-2.8291,-2.8291,-2.8291,-2.8291,-2.8291,-2.8291,-2.8291,-2.8291,-2.8291,-2.8291,-2.8291,-2.8291,0.0,0.0,0.0,0.0,-2.8291,-2.8291,-2.8291,-2.8291,-2.8291,-2.8291,-2.8291,-2.8291,-2.8237,0.0,0.0,0.0,0.0,0.0,0.0,0.0,0.0,-2.6499,-2.6499,-2.6499,-2.6499,-2.6499,-2.6499,-2.6499,-2.6499,0.0,0.0,0.0,0.0,0.0,0.0,0.0,0.0,0.0,0.0,0.0,0.0,-2.6499,-2.6499,-2.6499,-2.6499,-2.6499,-2.6452,-2.5838,0.0,0.0,0.0,0.0,0.0,0.0,0.0,-2.3441,0.0,0.0,0.0,0.0,0.0,0.0,0.0,0.0,0.0,0.0,0.0,0.0,0.0,-2.1317,0.0,0.0,-2.1768,-2.1885,-2.1885,-2.1562,0.0,0.0,0.0,-2.0605,-2.0605,-2.0605,-2.0654,-2.0791,-2.1396,-2.1934,-2.21,-2.2652,0.0,0.0,0.0,0.0,0.0,0.0,0.0,0.0,0.0,0.0,0.0,0.0,0.0,-2.8291,-2.8291,-2.8291,-2.8291,-2.8291,-2.8291,-2.8291,-2.8291,-2.8291,-2.8291,-2.8291,-2.8291,-2.8291,-2.8291,-2.8291,0.0,0.0,0.0,0.0,-2.8291,-2.8291,-2.8291,-2.8291,-2.8291,-2.8291,-2.8291,-2.8291,-2.8291,0.0,0.0,0.0,0.0,0.0,0.0,0.0,0.0,0.0,0.0,0.0,-2.6499,-2.6499,-2.6499,0.0,0.0,0.0,0.0,0.0,0.0,0.0,0.0,0.0,0.0,0.0,0.0,0.0,-2.6499,-2.6499,-2.6499,-2.6499,-2.6499,-2.6499,-2.6499,-2.6499,0.0,0.0,0.0,0.0,0.0,0.0,0.0,0.0,0.0,0.0,0.0,0.0,0.0,0.0,0.0,0.0,0.0,0.0,0.0,0.0,0.0,0.0,0.0,0.0,0.0,0.0,0.0,0.0,0.0,0.0,0.0,0.0,0.0,0.0,-2.081,-2.1152,-2.1633,-2.2105,-2.2441,0.0,0.0,0.0,0.0,0.0,0.0,0.0,0.0,0.0,0.0,0.0,0.0,0.0,0.0,-2.8291,-2.8291,-2.8291,-2.8291,-2.8291,-2.8291,-2.8291,-2.8291,-2.8291,-2.8291,-2.8291,-2.8291,-2.8291,-2.8291,-2.8291,0.0,0.0,0.0,0.0,-2.8291,-2.8291,-2.8291,-2.8291,-2.8291,-2.8291,-2.8291,-2.8291,-2.8291,0.0,0.0,0.0,0.0,0.0,0.0,0.0,0.0,0.0,0.0,0.0,-2.6499,-2.6499,0.0,0.0,0.0,0.0,0.0,0.0,0.0,0.0,0.0,0.0,0.0,0.0,0.0,0.0,-2.6499,-2.6499,-2.6499,-2.6499,-2.6499,-2.6499,-2.6499,-2.6499,0.0,0.0,0.0,0.0,0.0,0.0,0.0,0.0,0.0,0.0,0.0,-2.3781,-2.3331,0.0,0.0,0.0,0.0,0.0,0.0,0.0,0.0,-2.3147,-2.3132,-2.2992,0.0,-2.1806,-2.1095,-2.084,-2.0723,0.0,0.0,0.0,0.0,0.0,0.0,0.0,0.0,0.0,0.0,0.0,0.0,0.0,0.0,0.0,0.0,0.0,0.0,0.0,0.0,0.0,0.0,0.0,-2.8291,-2.8291,-2.8291,-2.8291,-2.8291,-2.8291,-2.8291,-2.8291,-2.8291,-2.8291,-2.8291,-2.8291,-2.8291,-2.8291,-2.8291,-2.8291,0.0,0.0,0.0,-2.8291,-2.8291,-2.8291,-2.8291,-2.8291,-2.8291,-2.8291,-2.8291,-2.8291,-2.8291,0.0,0.0,0.0,0.0,0.0,0.0,0.0,0.0,0.0,0.0,0.0,0.0,0.0,0.0,0.0,0.0,0.0,0.0,0.0,0.0,0.0,0.0,0.0,0.0,0.0,0.0,0.0,0.0,0.0,-2.6499,-2.6499,-2.6499,-2.6499,-2.6499,-2.6499,0.0,0.0,0.0,0.0,0.0,-2.6499,0.0,0.0,0.0,0.0,0.0,-2.5063,-2.4588,0.0,-2.4192,-2.4192,-2.4192,0.0,0.0,0.0,0.0,-2.4192,-2.4084,-2.3635,-2.2776,-2.1886,-2.1375,-2.1221,-2.1221,0.0,0.0,0.0,0.0,0.0,0.0,0.0,0.0,0.0,0.0,0.0,0.0,0.0,0.0,0.0,0.0,0.0,0.0,0.0,0.0,0.0,0.0,0.0,-2.8291,-2.8291,-2.8291,-2.8291,-2.8291,-2.8291,-2.8291,-2.8291,-2.8291,-2.8291,-2.8291,-2.8291,-2.8291,-2.8291,-2.8291,-2.8291,0.0,0.0,0.0,-2.8291,-2.8291,-2.8291,-2.8291,-2.8291,-2.8291,-2.8291,-2.8291,-2.8291,-2.8291,0.0,0.0,0.0,0.0,0.0,0.0,0.0,0.0,0.0,0.0,0.0,0.0,0.0,0.0,0.0,0.0,0.0,0.0,0.0,0.0,0.0,0.0,0.0,0.0,0.0,0.0,0.0,0.0,0.0,0.0,0.0,0.0,-2.6499,-2.6499,-2.6499,0.0,0.0,0.0,0.0,0.0,-2.6499,0.0,0.0,0.0,0.0,0.0,0.0,0.0,0.0,-2.5229,-2.5229,-2.5229,-2.5229,0.0,0.0,0.0,0.0,0.0,-2.4181,-2.3265,-2.2515,-2.2301,-2.2215,-2.2215,0.0,0.0,0.0,0.0,0.0,0.0,0.0,0.0,0.0,0.0,0.0,0.0,0.0,0.0,0.0,0.0,0.0,0.0,0.0,0.0,0.0,0.0,0.0,-2.8291,-2.8291,-2.8291,-2.8291,-2.8291,-2.8291,-2.8291,-2.8291,-2.8291,-2.8291,-2.8291,-2.8291,-2.8291,-2.8291,-2.8291,-2.8291,-2.8291,0.0,0.0,-2.8291,-2.8291,-2.8291,-2.8291,-2.8291,-2.8291,-2.8291,-2.8291,-2.8291,-2.8291,0.0,0.0,0.0,0.0,0.0,0.0,0.0,0.0,0.0,0.0,0.0,0.0,0.0,0.0,0.0,0.0,0.0,0.0,0.0,0.0,0.0,0.0,0.0,0.0,0.0,0.0,0.0,0.0,0.0,0.0,-2.6499,-2.6499,-2.6499,-2.6499,-2.6499,-2.6499,-2.6499,-2.6499,-2.6499,-2.6499,-2.6499,0.0,0.0,0.0,0.0,0.0,0.0,0.0,0.0,-2.628,-2.628,-2.628,-2.628,0.0,0.0,0.0,0.0,0.0,-2.6082,-2.5636,-2.492,-2.3615,-2.3257,-2.3257,0.0,0.0,0.0,0.0,0.0,0.0,0.0,0.0,0.0,0.0,0.0,0.0,0.0,0.0,0.0,0.0,0.0,0.0,0.0,0.0,0.0,0.0,0.0,-2.8291,-2.8291,-2.8291,-2.8291,-2.8291,-2.8291,-2.8291,-2.8291,-2.8291,-2.8291,-2.8291,-2.8291,-2.8291,-2.8291,-2.8291,-2.8291,-2.8291,0.0,-2.8291,-2.8291,-2.8291,-2.8291,-2.8291,-2.8291,-2.8291,-2.8291,-2.8291,-2.8291,-2.8291,0.0,0.0,0.0,0.0,0.0,0.0,0.0,0.0,0.0,0.0,0.0,0.0,0.0,0.0,0.0,0.0,0.0,0.0,0.0,0.0,0.0,0.0,0.0,0.0,0.0,0.0,0.0,0.0,0.0,-2.6499,-2.6499,-2.6499,-2.6499,-2.6499,0.0,-2.6499,-2.6499,-2.6499,-2.6499,-2.6499,0.0,0.0,0.0,0.0,0.0,0.0,0.0,0.0,0.0,0.0,-2.6499,-2.6499,-2.6499,0.0,0.0,0.0,0.0,0.0,-2.6499,-2.6338,-2.6088,-2.5661,-2.5343,-2.5173,-2.5173,0.0,0.0,0.0,0.0,0.0,0.0,0.0,0.0,0.0,0.0,0.0,0.0,0.0,0.0,0.0,0.0,0.0,0.0,0.0,0.0,0.0,0.0,0.0,-2.8291,-2.8291,-2.8291,-2.8291,-2.8291,-2.8184,-2.7959,-2.7959,-2.7959,-2.7959,-2.7959,-2.7959,-2.7959,-2.7959,-2.8076,-2.8291,0.0,-2.8291,-2.8291,-2.8291,-2.8291,-2.8291,-2.8291,-2.8291,-2.8291,-2.8291,-2.8291,-2.8291,0.0,0.0,0.0,0.0,0.0,0.0,0.0,0.0,0.0,0.0,0.0,0.0,0.0,0.0,0.0,0.0,0.0,0.0,0.0,0.0,0.0,0.0,0.0,0.0,0.0,0.0,-2.6499,-2.6499,-2.6499,-2.6499,-2.6499,-2.6499,-2.6499,-2.6499,0.0,-2.6499,-2.6499,-2.6499,-2.6499,-2.6499,0.0,0.0,0.0,0.0,0.0,0.0,0.0,0.0,0.0,0.0,0.0,0.0,0.0,0.0,0.0,-2.6499,-2.6499,-2.6499,-2.6499,-2.6587,-2.6788,-2.7216,0.0,-2.6649,-2.6891,0.0,0.0,0.0,0.0,0.0,0.0,0.0,0.0,0.0,0.0,0.0,0.0,0.0,0.0,0.0,0.0,0.0,0.0,0.0,0.0,0.0,0.0,0.0,-2.8291,-2.8291,-2.8291,-2.8291,-2.8193,-2.7988,-2.7718,-2.7568,-2.7562,-2.7562,-2.7562,-2.7562,-2.7562,-2.7562,-2.7685,-2.7988,-2.7988,-2.8047,-2.8144,-2.8144,-2.8203,-2.8291,-2.8291,-2.8291,-2.8291,-2.8291,-2.8291,-2.8291,0.0,0.0,0.0,0.0,0.0,0.0,0.0,0.0,0.0,0.0,0.0,0.0,0.0,0.0,0.0,0.0,0.0,0.0,0.0,0.0,0.0,0.0,0.0,0.0,0.0,-2.6499,-2.6499,-2.6499,-2.6499,-2.6499,-2.6499,-2.6499,-2.6499,-2.6499,0.0,-2.6499,-2.6499,-2.6499,-2.6499,-2.6499,-2.6499,0.0,0.0,0.0,0.0,0.0,0.0,0.0,0.0,0.0,0.0,0.0,0.0,0.0,-2.6499,-2.6499,-2.6499,-2.6499,-2.6499,-2.6864,-2.7231,-2.7268,0.0,0.0,-2.7762,-2.7672,0.0,0.0,0.0,0.0,0.0,0.0,0.0,0.0,0.0,0.0,0.0,0.0,0.0,0.0,0.0,0.0,0.0,0.0,0.0,0.0,0.0,0.0,-2.8291,-2.8291,-2.8291,-2.8291,-2.792,-2.7748,-2.7718,-2.7266,-2.706,-2.706,-2.706,-2.706,-2.706,-2.706,-2.708,-2.7109,-2.7109,-2.7334,-2.7767,-2.7767,-2.7939,-2.8291,-2.8291,-2.8291,-2.8291,-2.8291,-2.8291,-2.8291,0.0,0.0,0.0,0.0,0.0,0.0,0.0,0.0,0.0,0.0,0.0,0.0,0.0,0.0,0.0,0.0,0.0,0.0,0.0,0.0,0.0,0.0,0.0,-2.6499,-2.6499,-2.6499,-2.6499,-2.6499,-2.6499,-2.6499,-2.6499,-2.6499,0.0,0.0,0.0,-2.6499,-2.6499,-2.6499,-2.6499,-2.6499,-2.6499,-2.6499,0.0,0.0,0.0,0.0,0.0,0.0,0.0,0.0,-2.6499,0.0,0.0,0.0,-2.6499,-2.6499,-2.6499,-2.6499,-2.6499,-2.6901,-2.7281,-2.7281,0.0,0.0,0.0,0.0,0.0,0.0,0.0,0.0,0.0,0.0,0.0,0.0,0.0,0.0,0.0,0.0,0.0,0.0,0.0,0.0,0.0,0.0,0.0,0.0,0.0,0.0,-2.8291,-2.8291,-2.8291,-2.8291,-2.7933,-2.7539,-2.7266,-2.6836,-2.6494,-2.6181,-2.6494,-2.6631,-2.6631,-2.6631,-2.6768,-2.7012,-2.7012,-2.7109,-2.7266,-2.7266,-2.7519,-2.793,-2.8193,-2.8291,-2.8291,-2.8291,-2.8291,-2.8291,0.0,0.0,0.0,0.0,0.0,0.0,0.0,0.0,0.0,0.0,0.0,0.0,0.0,0.0,0.0,0.0,0.0,0.0,0.0,0.0,0.0,0.0,0.0,-2.6499,-2.6499,-2.6499,-2.6499,-2.6499,-2.6499,-2.6499,-2.6499,0.0,0.0,0.0,0.0,-2.6499,-2.6499,-2.6499,-2.6499,-2.6499,-2.6499,-2.6499,0.0,0.0,0.0,0.0,0.0,0.0,0.0,0.0,0.0,0.0,0.0,0.0,0.0,0.0,-2.6499,-2.6537,-2.6713,-2.7027,-2.7318,0.0,0.0,0.0,0.0,0.0,0.0,0.0,0.0,0.0,0.0,0.0,0.0,0.0,0.0,0.0,0.0,0.0,0.0,0.0,0.0,0.0,0.0,0.0,0.0,0.0,0.0,0.0,0.0,-2.8291,-2.8232,-2.8096,-2.7685,-2.7256,-2.6816,-2.6396,-2.6035,-2.5693,-2.6045,-2.6182,-2.6182,-2.6182,-2.6338,-2.6611,-2.6611,-2.6689,-2.6816,-2.6816,-2.7148,-2.7748,-2.7988,-2.8174,-2.8291,-2.8291,-2.8291,-2.8291,0.0,0.0,0.0,0.0,0.0,0.0,0.0,0.0,0.0,0.0,0.0,0.0,0.0,0.0,0.0,0.0,0.0,0.0,0.0,0.0,0.0,0.0,0.0,-2.6499,-2.6499,-2.6499,-2.6499,-2.6499,-2.6499,-2.6499,-2.6499,-2.6499,0.0,0.0,0.0,-2.6499,-2.6499,-2.6499,-2.6499,-2.6499,-2.6499,-2.6499,-2.6499,0.0,0.0,0.0,0.0,0.0,0.0,0.0,-2.6499,0.0,0.0,0.0,0.0,0.0,-2.6487,-2.6612,-2.7165,-2.7281,-2.7419,0.0,0.0,0.0,0.0,0.0,0.0,0.0,0.0,0.0,0.0,0.0,0.0,0.0,0.0,0.0,0.0,0.0,0.0,0.0,0.0,0.0,0.0,0.0,0.0,0.0,0.0,0.0,0.0,-2.8291,-2.8096,-2.7728,-2.7236,-2.6807,-2.6396,-2.5908,-2.5693,-2.5693,-2.5693,-2.5693,-2.5693,-2.5693,-2.5693,-2.5693,-2.5693,-2.5977,-2.6387,-2.6387,-2.6885,-2.7708,-2.7718,-2.792,-2.8281,-2.8291,-2.8291,-2.8291,0.0,0.0,0.0,0.0,0.0,0.0,0.0,0.0,0.0,0.0,0.0,0.0,0.0,0.0,0.0,0.0,0.0,0.0,0.0,0.0,0.0,0.0,0.0,0.0,0.0,0.0,-2.6499,-2.6499,-2.6499,-2.6499,0.0,0.0,0.0,-2.6499,0.0,-2.6499,-2.6499,-2.6499,-2.6499,-2.6499,-2.6499,-2.6499,-2.6499,0.0,0.0,0.0,0.0,0.0,0.0,0.0,0.0,0.0,0.0,0.0,0.0,0.0,-2.6172,-2.6524,-2.6688,-2.7268,0.0,0.0,0.0,0.0,0.0,0.0,0.0,0.0,0.0,0.0,0.0,0.0,0.0,0.0,0.0,0.0,0.0,0.0,0.0,0.0,0.0,0.0,0.0,0.0,0.0,0.0,0.0,0.0,0.0,-2.8568,-2.7793,-2.7718,-2.6953,-2.6514,-2.6387,-2.5908,-2.5693,-2.5693,-2.5693,-2.5693,-2.5693,-2.5693,-2.5693,-2.5693,-2.5693,-2.5762,-2.5908,-2.626,-2.6543,-2.6826,-2.7483,-2.7796,-2.7891,-2.8184,-2.8291,-2.8291,0.0,0.0,0.0,0.0,0.0,0.0,0.0,0.0,0.0,0.0,0.0,0.0,0.0,0.0,0.0,0.0,0.0,0.0,0.0,0.0,0.0,0.0,0.0,0.0,0.0,-2.6499,-2.6499,0.0,0.0,0.0,0.0,0.0,-2.6499,-2.6499,0.0,-2.6499,-2.6499,-2.6499,-2.6499,-2.6499,-2.6499,-2.6499,-2.6499,0.0,0.0,0.0,0.0,0.0,0.0,0.0,0.0,0.0,0.0,0.0,0.0,-2.6239,-2.6386,-2.6637,-2.7291,0.0,0.0,0.0,0.0,0.0,0.0,0.0,0.0,0.0,0.0,0.0,0.0,0.0,0.0,0.0,0.0,0.0,0.0,0.0,0.0,0.0,0.0,0.0,0.0,0.0,0.0,0.0,0.0,0.0,0.0,-2.9146,-2.8181,-2.7464,-2.6748,-2.6309,-2.6133,-2.582,-2.5693,-2.5693,-2.5693,-2.5693,-2.5693,-2.5693,-2.5693,-2.5693,-2.5693,-2.5693,-2.5703,-2.6025,-2.623,-2.6455,-2.7139,-2.7562,-2.7767,-2.8135,-2.8291,-2.8291,0.0,0.0,0.0,0.0,0.0,0.0,0.0,0.0,0.0,0.0,0.0,0.0,0.0,0.0,0.0,0.0,0.0,0.0,0.0,0.0,0.0,0.0,0.0,0.0,0.0,0.0,0.0,0.0,0.0,0.0,0.0,0.0,-2.6499,-2.6499,0.0,-2.6499,-2.6499,-2.6499,-2.6499,-2.6499,-2.6499,-2.6499,-2.6499,-2.6499,0.0,0.0,0.0,0.0,0.0,0.0,0.0,0.0,0.0,0.0,0.0,-2.6841,-2.6876,-2.6901,0.0,0.0,0.0,0.0,0.0,0.0,0.0,0.0,0.0,0.0,0.0,0.0,0.0,0.0,0.0,0.0,0.0,0.0,0.0,0.0,0.0,0.0,0.0,0.0,0.0,0.0,0.0,0.0,0.0,0.0,0.0,-3.0037,-2.8979,-2.7309,-2.6883,-2.6468,-2.6062,-2.6062,-2.5965,-2.5878,-2.5878,-2.583,-2.5693,-2.5693,-2.5693,-2.5693,-2.5693,-2.5693,-2.5693,-2.5693,-2.5977,-2.6377,-2.6836,-2.7256,-2.7718,-2.8125,-2.8291,-2.8291,0.0,0.0,0.0,0.0,0.0,0.0,0.0,0.0,0.0,0.0,0.0,0.0,0.0,0.0,0.0,0.0,0.0,0.0,0.0,0.0,0.0,0.0,0.0,0.0,0.0,0.0,0.0,0.0,0.0,0.0,0.0,0.0,0.0,-2.6499,0.0,-2.6499,-2.6499,-2.6499,-2.6499,-2.6499,-2.6499,-2.6499,-2.6499,-2.6499,-2.6499,0.0,0.0,0.0,0.0,0.0,0.0,0.0,-2.5925,-2.6047,-2.6273,-2.6025,-2.6537,-2.718,0.0,0.0,0.0,0.0,0.0,0.0,0.0,0.0,0.0,0.0,0.0,0.0,0.0,0.0,0.0,0.0,0.0,0.0,0.0,0.0,0.0,0.0,0.0,0.0,0.0,0.0,0.0,0.0,0.0,0.0,-3.285,-3.0967,-2.9774,-2.9389,-2.8979,-2.8686,-2.8634,-2.8577,-2.8132,0.0,-2.7173,-2.6668,-2.5693,-2.5693,-2.5693,-2.5693,-2.5693,-2.5693,-2.5693,-2.5693,-2.5742,-2.5908,-2.6719,-2.707,-2.7246,-2.8008,-2.8291,-2.8291,0.0,0.0,0.0,0.0,0.0,0.0,0.0,0.0,0.0,0.0,0.0,0.0,0.0,0.0,0.0,0.0,0.0,0.0,0.0,0.0,0.0,0.0,0.0,0.0,0.0,0.0,0.0,0.0,0.0,0.0,0.0,0.0,0.0,-2.6499,0.0,-2.6499,-2.6499,-2.6499,-2.6499,-2.6499,-2.6499,-2.6499,-2.6461,-2.6185,-2.6084,-2.6084,-2.6084,0.0,0.0,0.0,0.0,0.0,0.0,0.0,-2.6487,-2.6414,-2.664,-2.7102,0.0,0.0,0.0,0.0,0.0,0.0,0.0,0.0,0.0,0.0,0.0,0.0,0.0,0.0,0.0,0.0,0.0,0.0,0.0,0.0,0.0,0.0,0.0,0.0,0.0,0.0,0.0,0.0,0.0,-3.3784,-3.3149,-3.1775,-3.0696,-3.003,-2.9607,-2.9131,-2.8541,-2.9085,-2.8495,-2.6716,-2.7315,-2.6945,-2.5693,-2.5693,-2.5693,-2.5693,-2.5693,-2.5693,-2.5693,-2.5693,-2.5693,-2.5771,-2.668,-2.7012,-2.7119,-2.7978,-2.8291,-2.8291,0.0,0.0,0.0,0.0,0.0,0.0,0.0,0.0,0.0,0.0,0.0,0.0,0.0,0.0,0.0,0.0,0.0,0.0,0.0,0.0,0.0,0.0,0.0,0.0,0.0,0.0,0.0,0.0,0.0,0.0,0.0,0.0,0.0,-2.6499,0.0,-2.6499,-2.6487,-2.6386,-2.6348,-2.6336,-2.6248,-2.621,-2.616,-2.5649,-2.546,-2.546,-2.546,-2.546,-2.5536,-2.6047,0.0,0.0,0.0,0.0,-2.6449,-2.7014,-2.6914,-2.6939,0.0,0.0,0.0,0.0,0.0,0.0,0.0,0.0,0.0,0.0,0.0,0.0,0.0,0.0,0.0,0.0,0.0,0.0,0.0,0.0,0.0,0.0,0.0,0.0,0.0,0.0,0.0,0.0,0.0,-3.4099,-3.2997,-3.2505,-3.1752,-3.0559,-3.0205,-2.9544,-2.8552,-2.9544,-2.8901,-2.6658,-2.7494,-2.7125,-2.5684,-2.5917,-2.5927,-2.5684,-2.5917,-2.5917,-2.5693,-2.5693,-2.5693,-2.5762,-2.6602,-2.6953,-2.7109,-2.7891,-2.8232,-2.8291,0.0,0.0,0.0,0.0,0.0,0.0,0.0,0.0,0.0,0.0,0.0,0.0,0.0,0.0,0.0,0.0,0.0,0.0,-2.9002,0.0,0.0,-2.8876,-2.9442,0.0,0.0,0.0,0.0,0.0,0.0,0.0,0.0,0.0,0.0,-2.6499,0.0,0.0,-2.6461,-2.5925,-2.5711,-2.5674,-2.5222,-2.5046,-2.5034,-2.4958,-2.4888,-2.4888,-2.4888,-2.4888,-2.4933,-2.5008,-2.5046,0.0,0.0,0.0,-2.5824,-2.6436,-2.6889,-2.7218,0.0,0.0,0.0,0.0,0.0,0.0,0.0,0.0,0.0,0.0,0.0,0.0,0.0,0.0,0.0,0.0,0.0,0.0,0.0,0.0,0.0,0.0,0.0,0.0,0.0,0.0,0.0,0.0,-3.4274,-3.3921,-3.3763,-3.3252,-3.2866,-3.268,-3.2649,-3.2525,-3.2382,-3.2525,-3.1877,-3.0451,-2.959,-2.7945,-2.5732,-2.6849,-2.6754,-2.5781,-2.6849,-2.6706,-2.5693,-2.5693,-2.5693,-2.5732,-2.6279,-2.6699,-2.707,-2.7568,-2.7978,-2.8291,0.0,0.0,0.0,0.0,0.0,0.0,0.0,0.0,0.0,0.0,0.0,0.0,0.0,0.0,0.0,-3.0419,-3.0389,-3.0389,-3.0389,-3.0329,-3.0133,-2.9766,-2.9628,-2.938,-2.9002,0.0,0.0,0.0,0.0,0.0,0.0,-2.7351,-2.7162,0.0,0.0,0.0,0.0,0.0,-2.6252,-2.6278,-2.5646,-2.5537,-2.5636,-2.4707,-2.4732,-2.5172,-2.4582,-2.4356,-2.4406,-2.4687,-2.4788,-2.4825,-2.5096,0.0,0.0,0.0,-2.6411,0.0,0.0,0.0,0.0,0.0,0.0,0.0,0.0,0.0,0.0,0.0,0.0,0.0,0.0,0.0,0.0,0.0,0.0,0.0,0.0,0.0,0.0,0.0,0.0,0.0,0.0,0.0,0.0,0.0,-3.3583,-3.3432,-3.3432,-3.3206,-3.3124,-3.3124,-3.3124,-3.2754,-3.2052,-3.2742,-3.2469,-3.1178,-3.0,-2.8808,-2.7804,-2.9039,-2.8168,-2.5781,-2.704,-2.7268,-2.6802,-2.7484,-2.7757,-2.7762,-2.7523,-2.764,-2.7975,-2.7801,-2.793,-2.8291,0.0,0.0,0.0,0.0,0.0,0.0,0.0,0.0,0.0,0.0,0.0,0.0,0.0,0.0,0.0,0.0,-3.1511,-3.1511,-3.1511,-3.094,-3.0614,-3.0614,-2.9981,-2.9628,-2.9628,0.0,0.0,0.0,0.0,0.0,-2.8363,-2.8149,-2.8149,0.0,-2.7263,-2.7129,0.0,0.0,0.0,-2.6601,-2.609,-2.6077,-2.6214,-2.5081,-2.5121,-2.5707,-2.4824,-2.4493,-2.4537,-2.4864,-2.4822,-2.469,-2.483,-2.5019,0.0,0.0,0.0,0.0,0.0,0.0,0.0,0.0,0.0,0.0,0.0,0.0,0.0,0.0,0.0,0.0,0.0,0.0,0.0,0.0,0.0,0.0,0.0,0.0,0.0,0.0,0.0,0.0,0.0,0.0,0.0,0.0,-3.3124,-3.3124,-3.3124,-3.3124,-3.3124,-3.3124,-3.3124,-3.2655,-3.1677,-3.2612,-3.2469,-3.1178,-3.0631,-3.0,-2.9453,-3.0631,-2.9533,-2.6706,-2.7945,-2.8366,-2.8132,-2.9039,-2.9407,-2.9349,-2.8744,-2.8623,-2.8736,-2.8156,-2.8137,-2.8291,0.0,0.0,0.0,0.0,0.0,0.0,0.0,0.0,0.0,0.0,0.0,0.0,-3.1511,-3.1511,-3.1511,-3.1511,-3.1511,-3.1511,-3.1511,-3.1467,-3.1438,-3.1438,-3.138,0.0,-3.138,0.0,0.0,0.0,0.0,0.0,-3.0133,-2.9317,-2.938,-3.0072,-2.8395,-2.767,-2.769,0.0,0.0,0.0,0.0,0.0,0.0,0.0,-2.6399,-2.64,-2.5953,-2.5805,-2.577,-2.5469,-2.4904,-2.4419,-2.4912,-2.4605,-2.418,0.0,0.0,0.0,0.0,0.0,0.0,0.0,0.0,0.0,0.0,0.0,0.0,0.0,0.0,0.0,0.0,0.0,0.0,0.0,0.0,0.0,0.0,0.0,0.0,0.0,0.0,0.0,0.0,0.0,0.0,0.0,-3.3124,-3.3124,-3.3124,-3.3124,-3.3124,-3.3124,-3.3124,-3.3068,-3.2982,-3.3068,-3.2469,-3.1223,-3.2382,-3.1701,-2.9453,-3.0631,-3.0451,-2.9269,-3.0496,-3.035,-2.9315,-2.9361,-2.9407,-2.9407,-2.9338,-2.9139,-2.8783,-2.8765,-2.8553,-2.8291,0.0,0.0,0.0,0.0,0.0,0.0,0.0,0.0,0.0,0.0,0.0,0.0,0.0,-3.1511,-3.1511,-3.1511,-3.1511,-3.1511,-3.1511,-3.1511,-3.1511,-3.1511,-3.1511,-3.1511,-3.1511,0.0,0.0,0.0,0.0,-3.0494,-3.0299,-2.9981,-3.0011,-3.0238,-2.9066,-2.8844,-2.9296,-2.8316,0.0,0.0,0.0,0.0,0.0,0.0,-2.6965,-2.8282,-2.7103,-2.6675,-2.6605,-2.6066,-2.5107,-2.4067,-2.3888,-2.3892,-2.4167,-2.5059,-2.5448,0.0,0.0,0.0,0.0,0.0,0.0,0.0,0.0,0.0,0.0,0.0,0.0,0.0,0.0,0.0,0.0,0.0,0.0,0.0,0.0,0.0,0.0,0.0,0.0,0.0,0.0,0.0,0.0,0.0,0.0,-3.3124,-3.3124,-3.3124,-3.3124,-3.3124,-3.3124,-3.3124,-3.3124,-3.3124,-3.2884,-3.2426,-3.2884,-3.2612,-3.1789,-3.2239,-3.2196,-3.1789,-3.2239,-3.1689,-3.0631,-3.1424,-3.1789,-3.1701,-3.0866,-3.0169,-2.9615,-2.9991,-2.9201,-2.8078,0.0,0.0,0.0,0.0,0.0,0.0,0.0,0.0,0.0,0.0,0.0,0.0,0.0,0.0,-3.1511,-3.1511,-3.1511,-3.1511,-3.1511,-3.1511,-3.1511,-3.1511,-3.1511,-3.1511,-3.1511,0.0,0.0,0.0,0.0,0.0,0.0,-3.0703,-3.0703,-3.0673,-2.9873,-2.9811,0.0,0.0,0.0,-2.8368,0.0,0.0,-2.8088,0.0,0.0,-2.9717,-2.8448,-2.7983,-2.7889,-2.7252,-2.623,-2.5103,-2.4585,-2.4275,-2.4305,-2.5403,-2.5552,0.0,-2.6703,0.0,0.0,0.0,0.0,0.0,0.0,0.0,0.0,0.0,0.0,0.0,0.0,0.0,0.0,0.0,0.0,0.0,0.0,0.0,0.0,0.0,0.0,0.0,0.0,0.0,0.0,0.0,0.0,0.0,-3.3124,-3.3124,-3.3124,-3.3124,-3.3124,-3.3124,-3.3124,-3.3124,-3.3124,-3.3124,-3.3124,-3.3124,-3.3124,-3.3124,-3.3124,-3.3124,-3.3124,-3.2612,-3.1909,-3.2754,-3.3124,-3.3025,-3.2152,-3.1364,-3.0706,-3.1266,-3.0417,-2.9106,0.0,0.0,0.0,0.0,0.0,0.0,0.0,0.0,0.0,-3.1511,0.0,0.0,0.0,0.0,0.0,-3.1511,-3.1511,-3.1511,-3.1511,-3.1511,-3.1511,-3.1511,-3.1511,-3.1511,-3.1511,0.0,0.0,0.0,0.0,0.0,0.0,0.0,-3.1466,-3.1451,-3.0776,-3.0379,-3.0259,0.0,-2.9083,-2.844,0.0,-2.9729,-2.9307,0.0,0.0,0.0,-3.0011,-2.9778,-2.9635,-2.9027,-2.826,-2.7499,-2.7132,-2.5756,-2.4516,-2.5577,-2.5395,0.0,0.0,0.0,0.0,0.0,0.0,0.0,0.0,0.0,0.0,0.0,0.0,0.0,0.0,0.0,0.0,0.0,0.0,0.0,0.0,0.0,0.0,0.0,0.0,0.0,0.0,0.0,0.0,0.0,-3.3124,-3.3124,-3.3124,-3.3124,-3.3124,-3.3124,-3.3124,-3.3124,-3.3124,-3.3124,-3.3124,-3.3124,-3.3124,-3.3124,-3.3124,-3.3124,-3.3124,-3.3124,-3.3124,-3.3124,-3.3124,-3.3124,-3.3124,-3.3124,-3.3124,-3.2614,-3.1964,-3.2532,-3.2225,-3.14,0.0,0.0,0.0,0.0,0.0,0.0,0.0,0.0,0.0,0.0,0.0,0.0,-3.1511,-3.1511,-3.1511,-3.1511,-3.1511,-3.1511,-3.1511,-3.1511,-3.1511,-3.1511,-3.1511,-3.1511,-3.1511,0.0,0.0,0.0,0.0,0.0,0.0,0.0,0.0,0.0,-3.0118,-2.9829,-2.9766,-2.914,0.0,-2.9298,-2.9883,-2.986,0.0,0.0,0.0,0.0,0.0,-3.157,-3.0735,-3.1219,-2.9463,-2.7033,-2.6681,-2.5532,-2.4516,-2.5577,-2.5395,0.0,-2.6197,0.0,0.0,0.0,0.0,0.0,0.0,0.0,0.0,0.0,0.0,0.0,0.0,0.0,0.0,0.0,0.0,0.0,0.0,0.0,0.0,0.0,0.0,0.0,0.0,0.0,0.0,0.0,-3.3124,-3.3124,-3.3124,-3.3124,-3.3124,-3.3124,-3.3124,-3.3124,-3.3124,-3.3124,-3.3124,-3.3124,-3.3124,-3.3124,-3.3124,-3.3124,-3.3124,-3.3124,-3.3124,-3.3124,-3.3124,-3.3124,-3.3124,-3.3124,-3.3124,-3.2381,-3.1553,-3.3028,-3.252,-3.1203,0.0,0.0,0.0,0.0,0.0,0.0,0.0,0.0,-3.1511,0.0,0.0,0.0,-3.1511,-3.1511,-3.1511,-3.1511,-3.1511,-3.1511,-3.1511,-3.1511,-3.1511,-3.1511,-3.1511,-3.1511,-3.1511,0.0,0.0,0.0,0.0,0.0,0.0,0.0,0.0,0.0,0.0,0.0,0.0,0.0,0.0,0.0,-3.0279,0.0,0.0,-3.2027,-3.27,0.0,0.0,0.0,-3.1947,-3.2335,-3.0783,-2.8559,-2.8092,-2.7067,-2.6067,-2.6304,0.0,0.0,0.0,0.0,0.0,0.0,0.0,0.0,-2.7519,-2.8122,-2.8812,0.0,0.0,0.0,0.0,0.0,0.0,0.0,0.0,0.0,0.0,0.0,0.0,0.0,0.0,0.0,0.0,-3.3124,-3.3124,-3.3124,-3.3124,-3.3124,-3.3124,-3.3124,-3.3124,-3.3124,-3.3124,-3.3124,-3.3124,-3.3124,-3.3124,-3.3124,-3.3124,-3.3124,-3.3124,-3.3124,-3.3124,-3.3124,-3.3124,-3.3124,-3.3124,-3.3124,-3.3124,-3.3124,-3.3124,-3.2655,-3.2169,-3.3408,-3.3167,-3.23,0.0,0.0,0.0,0.0,0.0,0.0,0.0,0.0,-3.1511,0.0,0.0,-3.1511,-3.1511,-3.1511,-3.1511,-3.1511,-3.1511,-3.1511,-3.1511,-3.1511,-3.1511,-3.1511,-3.1511,-3.1511,-3.1511,0.0,0.0,0.0,0.0,0.0,0.0,0.0,0.0,0.0,0.0,0.0,0.0,0.0,0.0,-2.8861,-3.0658,-3.0558,0.0,0.0,-3.3608,-3.2396,-3.3099,-3.3258,-3.3059,-3.2667,-3.2012,-3.1221,-3.0393,-2.9358,-2.8297,-2.7395,-2.6983,0.0,0.0,0.0,0.0,0.0,-2.6499,0.0,-2.7695,-2.7971,-2.8298,0.0,0.0,0.0,0.0,0.0,0.0,0.0,0.0,0.0,0.0,0.0,0.0,0.0,0.0,0.0,-3.3124,-3.3124,-3.3124,-3.3124,-3.3124,-3.3124,-3.3124,-3.3124,-3.3124,-3.3124,-3.3124,-3.3124,-3.3124,-3.3124,-3.3124,-3.3124,-3.3124,-3.3124,-3.3124,-3.3124,-3.3124,-3.3124,-3.3124,-3.3124,-3.3124,-3.3124,-3.3124,-3.3124,-3.3124,-3.3124,-3.3174,-3.3633,-3.3847,-3.3858,-3.1511,0.0,0.0,0.0,0.0,0.0,0.0,0.0,0.0,0.0,0.0,-3.1511,-3.1511,-3.1511,-3.1511,-3.1511,-3.1511,-3.1511,-3.1511,-3.1511,-3.1511,-3.1511,-3.1511,-3.1511,-3.1511,-3.1511,0.0,0.0,0.0,0.0,0.0,0.0,0.0,0.0,0.0,0.0,0.0,0.0,0.0,-2.946,-3.0357,0.0,-3.0972,-3.3532,-3.4136,-3.3749,-3.4684,-3.4211,-3.3099,-3.2467,-3.2605,-3.27,0.0,-2.9626,-2.8733,-2.8033,-2.7232,0.0,0.0,0.0,-2.6499,-2.6499,-2.6499,0.0,-2.6763,-2.7165,-2.7507,0.0,0.0,0.0,0.0,0.0,0.0,0.0,0.0,0.0,0.0,0.0,0.0,0.0,0.0,0.0,-3.3124,-3.3124,-3.3124,-3.3124,-3.3124,-3.3124,-3.3124,-3.3124,-3.3124,-3.3124,-3.3124,-3.3124,-3.3124,-3.3124,-3.3124,-3.3124,-3.3124,-3.3124,-3.3124,-3.3124,-3.3124,-3.3124,-3.3124,-3.3124,-3.3124,-3.3124,-3.3124,-3.3124,-3.3124,-3.3124,-3.3093,-3.3206,-3.352,-3.3941,-3.1511,0.0,0.0,0.0,0.0,0.0,0.0,0.0,0.0,0.0,0.0,0.0,-3.1511,-3.1511,-3.1511,-3.1511,-3.1511,-3.1511,-3.1511,-3.1511,-3.1511,-3.1511,-3.1511,-3.1511,-3.1511,-3.1511,-3.1511,0.0,0.0,0.0,0.0,0.0,0.0,0.0,0.0,0.0,0.0,0.0,-2.8472,-2.9235,-3.0851,0.0,-3.1856,-3.414,-3.4578,-3.4129,-3.5133,-3.5005,-3.4309,-3.3953,-3.3917,0.0,-3.1803,-3.0908,-3.0337,-2.92,-2.8546,-2.8158,0.0,0.0,-2.7007,-2.6589,-2.6499,0.0,0.0,-2.7115,-2.7392,0.0,0.0,0.0,0.0,0.0,0.0,0.0,0.0,0.0,0.0,0.0,0.0,0.0,0.0,0.0,-3.2616,-3.2403,-3.2227,-3.2227,-3.2227,-3.2227,-3.2227,-3.2227,-3.2227,-3.2227,-3.2227,-3.2227,-3.2227,-3.2227,-3.2378,-3.2641,-3.2641,-3.2805,-3.3124,-3.3124,-3.3124,-3.3124,-3.3124,-3.3124,-3.3124,-3.3124,-3.3124,-3.3124,-3.3124,-3.3124,-3.3124,-3.3124,-3.3257,-3.3571,-3.1511,0.0,0.0,0.0,0.0,0.0,0.0,0.0,0.0,0.0,0.0,0.0,-3.169,-3.1809,-3.1884,-3.1884,-3.1884,-3.1824,-3.1705,-3.169,-3.169,-3.169,-3.157,-3.157,-3.169,-3.157,-3.1511,0.0,0.0,0.0,0.0,0.0,0.0,0.0,0.0,0.0,0.0,0.0,0.0,-2.9535,0.0,-3.2224,-3.205,-3.4278,-3.4602,-3.4045,-3.5124,-3.5504,-3.5504,-3.5504,-3.513,-3.442,-3.2803,-3.227,0.0,0.0,0.0,0.0,0.0,0.0,0.0,-2.6964,-2.6714,-2.6806,0.0,0.0,0.0,0.0,0.0,0.0,0.0,0.0,0.0,0.0,0.0,0.0,0.0,0.0,0.0,0.0,0.0,0.0,-3.1876,-3.1499,-3.1286,-3.1386,-3.1298,-3.1286,-3.1386,-3.1386,-3.1386,-3.1386,-3.1386,-3.1386,-3.1386,-3.1386,-3.1612,-3.2051,-3.2164,-3.2453,-3.2918,-3.3074,-3.3124,-3.3124,-3.3124,-3.3124,-3.3124,-3.3124,-3.3124,-3.3124,-3.3124,-3.3124,-3.3124,-3.3124,-3.3124,-3.3156,-3.1511,-3.1511,0.0,0.0,0.0,0.0,0.0,0.0,0.0,0.0,0.0,0.0,-3.2378,-3.2916,-3.3275,-3.3275,-3.3275,-3.3021,-3.2437,-3.2378,-3.2378,-3.2378,-3.1809,-3.178,-3.2363,-3.1795,-3.1511,-3.1511,0.0,0.0,0.0,0.0,0.0,0.0,-2.9592,0.0,0.0,0.0,-3.0911,0.0,-3.2392,-3.178,0.0,-3.296,-3.3662,-3.3734,-3.5038,-3.5504,-3.5504,0.0,-3.5444,-3.5135,0.0,-3.2832,-3.2444,-3.2046,0.0,0.0,0.0,0.0,0.0,0.0,-2.7571,-2.7397,-2.6734,0.0,-2.6612,-2.6663,0.0,0.0,0.0,0.0,0.0,0.0,0.0,0.0,0.0,0.0,0.0,0.0,0.0,0.0,0.0,-3.0746,-3.0896,-3.1348,-3.0959,-3.0909,-3.1361,-3.1386,-3.1386,-3.1386,-3.1386,-3.1386,-3.1386,-3.1386,-3.1424,-3.1486,-3.1976,-3.2252,-3.2328,-3.2842,-3.3124,-3.3124,-3.3124,-3.3124,-3.3124,-3.3124,-3.3124,-3.3124,-3.3124,-3.3124,-3.3124,-3.3124,-3.3124,-3.3156,-3.1511,-3.1511,-3.1511,0.0,0.0,0.0,0.0,0.0,0.0,0.0,0.0,0.0,-3.1914,-3.2168,-3.2512,-3.2901,-3.2931,-3.2811,-3.2527,-3.2512,-3.2318,-3.1929,-3.1645,-3.163,-3.1914,-3.1645,-3.1511,-3.1511,-3.1511,0.0,0.0,0.0,0.0,0.0,-3.0896,0.0,-3.127,0.0,-3.1406,0.0,0.0,0.0,0.0,-3.3754,-3.4666,-3.4741,-3.531,-3.5504,-3.5564,0.0,-3.5818,0.0,0.0,0.0,0.0,-3.3573,0.0,0.0,0.0,0.0,0.0,0.0,0.0,0.0,-2.6665,-2.6499,-2.6499,-2.6499,0.0,0.0,0.0,0.0,0.0,0.0,-2.6952,0.0,0.0,0.0,0.0,0.0,0.0,0.0,0.0,0.0,0.0,0.0,-3.0256,-3.0231,-3.0444,-3.047,-3.047,-3.047,-3.047,-3.047,-3.047,-3.047,-3.062,-3.0947,-3.1486,-3.1901,-3.2227,-3.2805,-3.3124,-3.3124,-3.3124,-3.3124,-3.3124,-3.3124,-3.3124,-3.3124,-3.3124,-3.3124,-3.3124,-3.3124,-3.3124,-3.3106,-3.1511,-3.1511,-3.1511,0.0,0.0,0.0,0.0,0.0,0.0,0.0,0.0,0.0,-3.1765,-3.2093,-3.2527,-3.3006,-3.323,-3.326,-3.3066,-3.2886,-3.2647,-3.2333,-3.1795,-3.1675,-3.2034,-3.169,-3.1511,-3.1511,0.0,0.0,0.0,0.0,0.0,0.0,0.0,-3.1869,-3.2482,0.0,-3.1989,-3.2333,-3.2662,-3.2691,-3.2766,-3.4352,-3.519,-3.5534,-3.5714,-3.5774,-3.5863,-3.6522,-3.6417,0.0,-3.6303,-3.4875,-3.3367,0.0,0.0,0.0,-3.253,0.0,0.0,0.0,0.0,0.0,0.0,0.0,0.0,-2.6499,-2.6499,0.0,0.0,0.0,0.0,0.0,0.0,-2.6952,0.0,0.0,0.0,0.0,0.0,0.0,0.0,0.0,0.0,-2.9578,-2.9553,-2.9628,-2.9779,-2.9792,-2.9792,-2.9792,-2.9792,-2.9792,-2.9792,-2.9792,-2.9993,-3.0407,-3.1072,-3.1599,-3.2014,-3.2742,-3.3124,-3.3124,-3.3124,-3.3124,-3.3124,-3.3124,-3.3124,-3.3124,-3.3124,-3.3124,-3.3124,-3.3124,-3.3124,-3.3124,-3.1511,-3.1511,-3.1511,0.0,0.0,0.0,0.0,0.0,0.0,0.0,0.0,0.0,0.0,0.0,-3.4414,-3.4444,-3.5026,-3.513,-3.4488,-3.3814,-3.3739,-3.4384,-3.2557,-3.2108,-3.341,-3.2153,-3.1511,-3.1511,0.0,0.0,0.0,0.0,0.0,0.0,0.0,-3.1869,-3.2512,-3.2497,-3.3215,-3.4354,-3.3709,-3.4233,-3.525,0.0,-3.4367,-3.5594,-3.6237,0.0,0.0,-3.7165,-3.736,0.0,0.0,0.0,0.0,0.0,0.0,0.0,0.0,0.0,0.0,-3.153,0.0,0.0,0.0,0.0,-2.6499,0.0,0.0,0.0,0.0,0.0,0.0,0.0,0.0,0.0,0.0,0.0,0.0,0.0,0.0,0.0,0.0,0.0,-2.8398,-2.8875,-2.8913,-2.9164,-2.9767,-2.9792,-2.9792,-2.9792,-2.9792,-2.9792,-2.9792,-2.9792,-2.9804,-2.9829,-3.0884,-3.1399,-3.1449,-3.2566,-3.3124,-3.3124,-3.3124,-3.3124,-3.3124,-3.3124,-3.3124,-3.3124,-3.3124,-3.3124,-3.3124,-3.3124,-3.3124,-3.3124,-3.1511,-3.1511,-3.1511,0.0,0.0,0.0,0.0,-3.1511,0.0,0.0,-3.2348,0.0,0.0,-3.3559,-3.4039,-3.4474,-3.4728,-3.4726,-3.4518,-3.3858,-3.3589,-3.3814,-3.2333,-3.1914,-3.2826,-3.1959,-3.1511,-3.1511,0.0,0.0,0.0,0.0,0.0,0.0,0.0,-3.2512,0.0,0.0,0.0,0.0,0.0,-3.4696,-3.5459,0.0,-3.537,-3.6178,-3.6402,-3.6746,0.0,-3.7838,-3.7764,-3.7554,-3.8452,-3.7199,-3.5609,-3.6294,-3.5246,-3.3823,0.0,0.0,-3.2742,-3.0975,0.0,0.0,0.0,0.0,0.0,0.0,0.0,0.0,0.0,0.0,0.0,0.0,0.0,0.0,0.0,0.0,0.0,0.0,0.0,0.0,0.0,0.0,0.0,-2.8875,-2.9289,-2.9578,-2.9779,-2.9792,-2.9792,-2.9792,-2.9792,-2.9792,-2.9792,-2.9792,-2.9792,-2.9804,-3.0532,-3.106,-3.1411,-3.2164,-3.2717,-3.3124,-3.3124,-3.3124,-3.3124,-3.3124,-3.3124,-3.3124,-3.3124,-3.3124,-3.3124,-3.3124,-3.3124,-3.3124,-3.1511,-3.1511,0.0,0.0,0.0,0.0,0.0,0.0,0.0,0.0,-3.2856,0.0,-3.4113,0.0,-3.4726,0.0,-3.54,-3.5429,-3.5237,-3.4801,-3.4457,-3.4218,-3.317,-3.2781,-3.32,-3.2303,-3.1854,-3.1854,0.0,-3.1511,0.0,0.0,0.0,0.0,0.0,-3.2662,-3.3529,-3.3948,-3.4397,0.0,0.0,-3.51,0.0,0.0,-3.6118,-3.6552,0.0,-3.7419,-3.7853,-3.8527,-3.8482,-3.8272,-3.9155,-3.7872,-3.6154,-3.6476,-3.5317,-3.3871,-3.3526,-3.3286,0.0,-3.1622,-3.0503,0.0,-2.8298,0.0,-2.6788,0.0,0.0,0.0,0.0,0.0,0.0,0.0,0.0,0.0,0.0,-2.6499,0.0,0.0,0.0,0.0,0.0,0.0,-2.8511,-2.8863,-2.9277,-2.9578,0.0,0.0,-2.9792,-2.9792,-2.9792,-2.9792,-2.9792,-2.9792,-2.9792,-2.9804,-3.0357,-3.0884,-3.1411,-3.1964,-3.2528,-3.3124,-3.3124,-3.3124,-3.3124,-3.3124,-3.3124,-3.3124,-3.3124,-3.3124,-3.3124,-3.3124,-3.3124,-3.3124,-3.1511,-3.1511,0.0,0.0,-3.1525,0.0,0.0,0.0,-3.2079,0.0,-3.3619,-3.4143,-3.5459,-3.6148,-3.6537,-3.6537,-3.7075,-3.7165,-3.6567,-3.6507,-3.6222,-3.5624,-3.4876,-3.4518,-3.4563,-3.32,-3.2512,-3.2512,0.0,0.0,0.0,0.0,0.0,0.0,-3.1511,0.0,-3.3499,-3.3499,-3.4277,-3.5504,-3.5504,-3.5534,-3.5624,-3.6282,-3.6552,-3.6731,-3.7958,-3.8407,-3.8542,-3.92,-3.9388,-3.9388,-3.9388,-3.8003,-3.6369,-3.6277,-3.4843,-3.3327,-3.3651,-3.3697,-3.3621,-3.3311,-3.2206,0.0,0.0,0.0,-2.7318,0.0,0.0,0.0,0.0,0.0,0.0,0.0,0.0,0.0,0.0,0.0,-2.6499,0.0,0.0,0.0,0.0,-2.7329,-2.7758,-2.8762,-2.8875,0.0,0.0,0.0,-2.9767,-2.9792,-2.9792,-2.9792,-2.9792,-2.9792,-2.9792,-2.9804,-3.0331,-3.0859,-3.1411,-3.1938,-3.2503,-3.3124,-3.3124,-3.3124,-3.3124,-3.3124,-3.3124,-3.3124,-3.3124,-3.3124,-3.3124,-3.3124,-3.3124,-3.3124,-3.1511,-3.1511,-3.166,0.0,-3.1824,-3.1675,0.0,0.0,0.0,0.0,-3.5415,-3.6028,-3.6836,-3.7075,-3.7165,-3.7165,-3.7315,0.0,0.0,0.0,0.0,-3.6911,-3.5355,-3.4711,-3.5235,-3.3455,-3.2512,-3.2512,0.0,0.0,-3.1511,0.0,0.0,0.0,0.0,0.0,-3.3499,-3.3499,-3.4277,-3.5504,-3.5504,-3.5804,-3.6297,0.0,-3.7479,-3.7943,-3.8272,-3.8721,-3.9185,-3.9328,-3.9388,-3.9388,-3.9388,-3.9017,-3.8405,-3.7625,-3.6462,-3.5278,-3.4643,-3.3859,-3.3131,-3.2598,-3.1608,-3.0571,0.0,0.0,0.0,0.0,0.0,0.0,0.0,0.0,0.0,0.0,0.0,0.0,0.0,0.0,0.0,-2.6499,-2.6851,-2.7002,-2.6738,-2.7419,-2.8009,-2.8298,-2.8662,0.0,0.0,0.0,0.0,-2.9779,-2.9792,-2.9792,-2.9792,-2.9792,-2.9792,-2.9792,-2.993,-3.0495,-3.1399,-3.1537,-3.2139,-3.3124,-3.3124,-3.3124,-3.3124,-3.3124,-3.3124,-3.3124,-3.3124,-3.3124,-3.3124,-3.3124,-3.3124,-3.3124,-3.1869,-3.2168,0.0,-3.2886,0.0,0.0,-3.332,-3.344,0.0,-3.5714,-3.6252,0.0,-3.7749,-3.8108,-3.8287,-3.8287,-3.8287,0.0,-3.7853,0.0,0.0,-3.7419,-3.6626,-3.6237,-3.6342,-3.4696,-3.3679,-3.3365,-3.2392,0.0,-3.1511,0.0,0.0,0.0,0.0,-3.2079,-3.3095,-3.3679,-3.4367,-3.5085,-3.5385,-3.5893,0.0,-3.718,-3.7823,-3.8422,-3.8736,-3.9095,-3.9388,-3.9388,-3.9388,-3.9388,-3.9388,-3.9068,-3.8583,-3.7994,-3.6749,-3.544,-3.4856,-3.3911,-3.3006,-3.2667,-3.1951,-3.111,-3.0331,-2.9478,-2.8775,0.0,-2.8273,-2.816,0.0,0.0,0.0,0.0,0.0,0.0,0.0,0.0,-2.6499,0.0,-2.6763,-2.6839,-2.6524,-2.7457,-2.8109,-2.8109,-2.8398,0.0,0.0,0.0,0.0,-2.9402,-2.9666,-2.9792,-2.9792,-2.9792,-2.9792,-2.9792,-2.9792,-3.0357,-3.1386,-3.1386,-3.2001,-3.3124,-3.3124,-3.3124,-3.3124,-3.3124,-3.3124,-3.3124,-3.3124,-3.3124,-3.3124,-3.3124,-3.3124,-3.3124,-3.2527,-3.3095,0.0,0.0,0.0,0.0,0.0,-3.4382,0.0,-3.6492,0.0,-3.7285,-3.8407,-3.9065,-3.9388,-3.9388,-3.9388,-3.917,-3.8556,-3.9095,-3.8901,-3.7719,-3.8138,-3.8123,-3.7539,-3.6282,-3.525,-3.4503,-3.3245,-3.2228,0.0,0.0,0.0,0.0,0.0,0.0,0.0,-3.3979,-3.4563,-3.4698,-3.5355,-3.6028,-3.6671,-3.73,-3.7943,-3.8601,-3.92,-3.9388,-3.9388,-3.9388,-3.9388,-3.9388,-3.9388,-3.8745,-3.7994,-3.7994,-3.6646,-3.5061,-3.4938,-3.4108,-3.3283,-3.3154,-3.2641,-3.1951,-3.0947,-3.0294,-2.9741,-2.9126,-2.8662,-2.8599,0.0,0.0,0.0,0.0,0.0,0.0,-2.6713,-2.6713,-2.6688,-2.6612,0.0,0.0,-2.6512,-2.7394,-2.7996,-2.7996,0.0,0.0,0.0,0.0,0.0,-2.9001,-2.9528,-2.9792,-2.9792,0.0,-2.9792,-2.9792,-2.9792,-3.0357,-3.1386,-3.1386,-3.2001,-3.3124,-3.3124,-3.3124,-3.3124,-3.3124,-3.3124,-3.3124,-3.3124,-3.3124,-3.3124,-3.3124,-3.3124,-3.3124,-3.3305,0.0,0.0,0.0,0.0,-3.5684,-3.6731,-3.6791,-3.7045,-3.7943,-3.8556,-3.899,-3.9215,-3.9313,-3.9388,-3.9388,-3.9388,0.0,0.0,0.0,0.0,-3.908,-3.8631,-3.8347,-3.8227,-3.6971,-3.5714,-3.4503,-3.3709,-3.2706,-3.1511,0.0,0.0,0.0,0.0,0.0,-3.338,-3.4174,0.0,-3.5385,-3.6043,-3.6686,-3.7315,-3.7973,-3.8646,-3.926,-3.9379,-3.9388,-3.9388,-3.9388,-3.9388,-3.9388,-3.9388,-3.9265,-3.9104,-3.9104,-3.8234,-3.7074,-3.6172,-3.5197,-3.4191,-3.3313,-3.2641,-3.2039,-3.1399,-3.0846,-3.0306,-2.9754,-2.9566,-2.9415,-2.9126,0.0,0.0,0.0,0.0,0.0,0.0,0.0,-2.7645,-2.7228,-2.7544,-2.7457,-2.6587,-2.7077,-2.7431,0.0,0.0,0.0,0.0,0.0,0.0,0.0,-2.9741,0.0,0.0,0.0,-2.9792,-2.9792,-2.9792,-3.0357,-3.1386,-3.1386,-3.2001,-3.3124,-3.3124,-3.3124,-3.3124,-3.3124,-3.3124,-3.3124,-3.3124,-3.3124,-3.3124,-3.3124,-3.3124,-3.3124,-3.4039,0.0,0.0,0.0,0.0,0.0,0.0,-3.8212,-3.8437,-3.8392,-3.8676,-3.8886,-3.8886,-3.92,-3.9388,-3.9388,-3.9388,-3.9388,-3.9388,-3.9388,-3.9388,-3.9388,-3.9095,-3.8931,-3.8931,-3.7973,-3.6836,-3.5552,-3.4533,-3.3335,-3.2004,0.0,0.0,0.0,0.0,-3.2392,0.0,0.0,0.0,-3.5055,-3.6073,-3.6851,-3.7479,-3.8138,-3.8811,-3.9388,-3.9388,-3.9388,-3.9388,-3.9388,-3.9388,-3.9388,-3.9388,-3.9388,-3.9388,-3.9388,-3.862,-3.7677,-3.7175,-3.6265,-3.5346,-3.4843,-3.4082,-3.3331,-3.2791,-3.1779,-3.0871,-3.0331,-2.9993,-2.9616,-2.9001,-2.8473,0.0,0.0,0.0,0.0,0.0,0.0,-2.8009,-2.7745,-2.7695,-2.7469,-2.6977,0.0,0.0,0.0,0.0,0.0,0.0,0.0,0.0,0.0,0.0,0.0,0.0,0.0,0.0,-2.9792,-3.008,-3.0633,-3.1399,-3.1687,-3.2277,-3.3124,-3.3124,-3.3124,-3.3124,-3.3124,-3.3124,-3.3124,-3.3124,-3.3124,-3.3124,-3.3124,-3.3124,-3.3124,0.0,-3.534,0.0,0.0,-3.7195,0.0,-3.8317,-3.8975,-3.923,-3.8676,-3.8601,-3.8601,-3.8601,-3.9095,-3.9388,-3.9388,-3.9388,-3.9388,-3.9388,-3.9388,-3.9388,-3.9388,-3.9388,-3.9388,-3.9388,-3.8886,-3.7973,-3.6686,-3.5522,-3.4158,-3.2706,-3.2019,0.0,0.0,0.0,0.0,0.0,0.0,-3.4771,-3.5058,-3.6357,-3.718,-3.7689,-3.8362,-3.8945,-3.9388,-3.9388,-3.9388,-3.9388,-3.9388,-3.9388,-3.9388,-3.9388,-3.9388,-3.9388,-3.9388,-3.8782,-3.8069,-3.7866,-3.7175,-3.6487,-3.6251,-3.544,-3.4546,-3.3939,-3.2555,-3.1248,-3.0721,-3.0181,-2.9616,-2.9001,-2.8674,0.0,0.0,0.0,0.0,0.0,0.0,-2.8411,0.0,-2.7896,-2.7595,-2.7469,0.0,0.0,0.0,0.0,0.0,-2.8072,0.0,0.0,0.0,0.0,-2.9616,-2.9616,0.0,-2.9792,-2.9804,-3.0357,-3.0884,-3.1411,-3.1964,-3.2528,-3.3124,-3.3124,-3.3124,-3.3124,-3.3124,-3.3124,-3.3124,-3.3124,-3.3124,-3.3124,-3.3124,-3.3124,-3.3124,0.0,0.0,0.0,0.0,0.0,0.0,-3.8377,-3.8975,-3.9394,-3.9334,-3.9334,-3.9334,-3.9334,-3.9343,-3.9388,-3.9388,-3.9388,-3.9388,-3.9388,-3.9388,-3.9388,-3.9388,-3.9388,-3.9388,-3.9388,-3.9349,-3.8661,-3.733,-3.6626,-3.531,-3.338,-3.2736,0.0,0.0,0.0,0.0,0.0,-3.51,-3.5759,-3.6417,-3.7704,-3.8242,-3.8377,-3.9065,-3.9364,-3.9388,-3.9388,-3.9388,-3.9388,-3.9388,-3.9388,-3.9388,-3.9388,-3.9388,-3.9388,-3.9388,-3.9337,-3.9031,-3.8069,-3.7715,-3.742,-3.6448,-3.544,-3.4546,-3.3939,-3.2555,-3.1248,-3.0721,-3.0181,-2.9616,-2.9001,-2.9315,-2.9465,0.0,0.0,0.0,0.0,0.0,-2.944,-2.8875,0.0,-2.8574,-2.8084,-2.7984,0.0,0.0,-2.7557,0.0,0.0,0.0,0.0,-2.8875,0.0,-2.8963,-2.8963,-2.9528,-2.9792,-2.9804,-3.0357,-3.0884,-3.1411,-3.1964,-3.2528,-3.3124,-3.3124,-3.3124,-3.3124,-3.3124,-3.3124,-3.3124,-3.3124,-3.3124,-3.3124,-3.3124,-3.3124,-3.3124,0.0,0.0,0.0,0.0,0.0,0.0,0.0,-3.9245,-3.9388,-3.9388,-3.9388,-3.9388,-3.9388,-3.9388,-3.9388,-3.9388,-3.9388,-3.9388,-3.9388,-3.9388,-3.9388,-3.9388,-3.9388,-3.9388,-3.9388,-3.9388,-3.8945,0.0,-3.6985,-3.5878,-3.4696,-3.4008,0.0,0.0,0.0,-3.519,-3.5729,-3.6372,-3.6806,-3.712,-3.8018,-3.8392,-3.8467,-3.9155,-3.9388,-3.9388,-3.9388,-3.9388,-3.9388,-3.9388,-3.9388,-3.9388,-3.9388,-3.9388,-3.9388,-3.9388,-3.9388,-3.9301,-3.887,-3.8745,-3.8671,-3.8219,-3.7343,-3.6341,-3.5435,-3.3768,-3.2104,-3.1244,-3.0394,-2.9729,-2.949,-2.9352,-2.9315,-2.9428,0.0,0.0,0.0,0.0,0.0,-2.9478,0.0,-2.88,-2.8587,-2.8298,0.0,0.0,0.0,0.0,0.0,0.0,0.0,-2.8888,0.0,-2.9453,-2.9453,-2.9679,-2.9792,-2.9804,-3.067,-3.1185,-3.1424,-3.2315,-3.2855,-3.3124,-3.3124,-3.3124,-3.3124,-3.3124,-3.3124,-3.3124,-3.3124,-3.3124,-3.3124,-3.3124,-3.3124,-3.3124,-3.7659,0.0,-3.7913,0.0,-3.8691,-3.8856,-3.9349,-3.9388,-3.9388,-3.9388,-3.9388,-3.9388,-3.9388,-3.9388,-3.9388,-3.9388,-3.9388,-3.9388,-3.9388,-3.9388,-3.9388,-3.9388,-3.9388,0.0,-3.9388,-3.9388,-3.9185,-3.8691,-3.7584,-3.6716,-3.6043,-3.5175,0.0,0.0,-3.6282,-3.6596,-3.6806,-3.7434,-3.7704,-3.7749,-3.8422,-3.8691,-3.8751,-3.923,-3.9388,-3.9388,-3.9388,-3.9388,-3.9388,-3.9388,-3.9388,-3.9388,-3.9388,-3.9388,-3.9388,-3.9388,-3.9388,-3.9388,-3.9388,-3.9388,-3.9388,-3.9388,-3.8583,-3.751,-3.6448,-3.4643,-3.2856,-3.1453,-3.0432,-2.9792,-2.9792,-2.9453,-2.9315,-2.9729,0.0,0.0,0.0,-2.9792,0.0,-2.9566,-2.9176,-2.8888,-2.8888,-2.8574,0.0,0.0,0.0,0.0,0.0,0.0,0.0,0.0,0.0,0.0,-2.9541,-2.9704,-2.9792,-2.9804,-3.0884,-3.1386,-3.1436,-3.2566,-3.3124,-3.3124,-3.3124,-3.3124,-3.3124,-3.3124,-3.3124,-3.3124,-3.3124,-3.3124,-3.3124,-3.3124,-3.3124,-3.3124,-3.8257,-3.8377,-3.8601,-3.929,-3.9373,-3.9373,-3.9388,-3.9388,-3.9388,-3.9388,-3.9388,-3.9388,-3.9388,-3.9388,-3.9388,-3.9388,-3.9388,-3.9388,-3.9388,-3.9388,-3.9388,0.0,0.0,-3.9388,-3.9388,-3.9388,-3.9388,-3.9373,0.0,0.0,-3.736,0.0,-3.5848,-3.6477,-3.6492,-3.6821,-3.7434,-3.8093,-3.8377,-3.8437,-3.9125,-3.9373,-3.9373,-3.9388,-3.9388,-3.9388,-3.9388,-3.9388,-3.9388,-3.9388,-3.9388,-3.9388,-3.9388,-3.9388,-3.9388,-3.9388,-3.9388,-3.9388,-3.9388,-3.9388,-3.9388,-3.9388,-3.8583,-3.751,-3.6448,-3.4954,-3.321,-3.1061,-3.0181,-2.9792,-2.9792,-2.9779,-2.9779,-2.9792,0.0,0.0,0.0,-2.9792,0.0,-2.8963,-2.8888,-2.8888,-2.8888,-2.8888,0.0,0.0,0.0,0.0,0.0,0.0,0.0,-2.8888,-2.89,0.0,-2.89,-2.9503,-2.9792,-2.9804,-3.0884,-3.1386,-3.1436,-3.2566,-3.3124,-3.3124,-3.3124,-3.3124,-3.3124,-3.3124,-3.3124,-3.3124,-3.3124,-3.3124,-3.3124,-3.3124,-3.3124,-3.3124,-4.0382,-4.0464,-4.0502,-4.0726,-4.0756,-4.0756,-4.0756,-4.0756,-4.0591,-4.0142,-4.0083,-3.9918,-3.9433,-3.9388,-3.9388,0.0,-3.9388,-3.9388,0.0,-3.9388,-3.9388,-3.9388,-3.9388,-3.9388,-3.9388,-3.9388,-3.9388,-3.9388,0.0,0.0,0.0,-3.7659,-3.7838,-3.8482,-3.8482,-3.8586,-3.8796,-3.9005,-3.9095,-3.911,-3.9334,-3.9388,-3.9388,-3.9388,-3.9388,-3.9388,-3.9388,-3.9388,-3.9388,-3.9388,-3.9388,-3.9388,-3.9388,-3.9388,-3.9388,-3.9388,-3.9388,-3.9388,-3.9388,-3.9388,-3.9388,-3.9388,-3.9141,-3.862,-3.7548,-3.5694,-3.3903,-3.2866,-3.2135,-3.1513,-3.0871,-3.0758,-3.0558,-2.9895,-2.9792,0.0,-2.9792,0.0,-2.9729,-2.9541,-2.9515,-2.9515,-2.9515,-2.9515,0.0,0.0,0.0,0.0,0.0,0.0,0.0,0.0,-2.9315,0.0,-2.9515,-2.9691,-2.998,-3.0357,-3.106,-3.18,-3.2554,-3.2918,-3.3124,-3.3124,-3.3124,-3.3124,-3.3124,-3.3124,-3.3124,-3.3124,-3.3124,-3.3124,-3.3124,-3.3124,-3.3124,-3.3124,-4.1422,-4.1422,-4.1422,-4.1422,-4.1422,-4.1422,-4.1422,-4.1422,-4.1145,-4.0487,-4.0397,-4.0142,-3.9448,-3.9388,0.0,-3.9388,-3.9388,-3.9388,-3.9388,-3.9388,-3.9388,-3.9388,-3.9388,-3.9388,-3.9388,-3.9388,0.0,-3.9388,-3.899,-3.8781,-3.8781,-3.8781,-3.9005,-3.9388,-3.9388,-3.9388,-3.9388,-3.9388,-3.9388,-3.9388,-3.9388,-3.9388,-3.9388,-3.9388,-3.9388,-3.9388,-3.9388,-3.9388,-3.9388,-3.9388,-3.9388,-3.9388,-3.9388,-3.9388,-3.9388,-3.9388,-3.9388,-3.9388,-3.9388,-3.9388,-3.9388,-3.9388,-3.9388,-3.9104,-3.8032,-3.6245,-3.462,-3.3997,-3.3403,-3.2617,-3.1429,-3.1217,-3.0895,-2.9934,-2.9792,-2.9792,-2.9792,0.0,-2.9858,0.0,0.0,0.0,0.0,-2.9682,-2.9415,0.0,0.0,0.0,0.0,0.0,0.0,-2.9252,-2.9603,-2.9792,-2.9792,-2.9792,-3.0068,-3.062,-3.1348,-3.219,-3.3124,-3.3124,-3.3124,-3.3124,-3.3124,-3.3124,-3.3124,-3.3124,-3.3124,-3.3124,-3.3124,-3.3124,-3.3124,-3.3124,-3.3124,-3.3124,-4.1519,-4.1519,-4.1519,0.0,-4.1519,0.0,-4.1519,-4.1519,-4.128,-4.0621,-4.0502,-4.0217,-3.9559,-3.9454,-3.9388,-3.9388,0.0,0.0,0.0,-3.9388,-3.9388,-3.9388,-3.9388,-3.9388,-3.9388,-3.9388,-3.9388,-3.9388,-3.9388,-3.9388,-3.9388,-3.9388,-3.9388,-3.9388,-3.9388,-3.9388,-3.9388,-3.9388,-3.9388,-3.9388,-3.9388,-3.9388,-3.9388,-3.9388,-3.9388,-3.9388,-3.9388,-3.9388,-3.9388,-3.9388,-3.9388,-3.9388,-3.9388,-3.9388,-3.9388,-3.9388,-3.9388,-3.9388,-3.9388,-3.9388,-3.9388,-3.9388,-3.9388,-3.9141,-3.8144,-3.6722,-3.5429,-3.4766,-3.4191,-3.3325,-3.168,-3.1352,-3.097,-3.0037,-2.9818,-2.9792,-2.9792,-2.9792,-2.9961,0.0,0.0,0.0,-3.0451,-2.9659,-2.9265,0.0,0.0,0.0,0.0,0.0,-2.9202,-2.9779,-2.9792,-2.9792,-2.9792,-2.9829,-3.0143,-3.0733,-3.1775,-3.2554,-3.3124,-3.3124,-3.3124,-3.3124,-3.3124,-3.3124,-3.3124,-3.3124,-3.3124,-3.3124,-3.3124,-3.3124,-3.3124,-3.3124,-3.3124,-3.3124,0.0,0.0,-4.2826,-4.2826,-4.2826,-4.2826,-4.2826,-4.2826,-4.2641,-4.2021,-4.1497,-4.0905,-4.0247,-3.9723,-3.9388,-3.9388,-3.9388,-3.9388,-3.9388,-3.9388,-3.9388,-3.9388,-3.9388,-3.9388,-3.9388,-3.9388,-3.9388,-3.9388,-3.9388,-3.9388,-3.9388,-3.9388,-3.9388,-3.9388,-3.9388,-3.9388,-3.9388,-3.9388,-3.9388,-3.9388,-3.9388,-3.9388,-3.9388,-3.9388,-3.9388,-3.9388,-3.9388,-3.9388,-3.9388,-3.9388,-3.9388,-3.9388,-3.9388,-3.9388,-3.9388,-3.9388,-3.9388,-3.9388,-3.9388,-3.9388,-3.9388,-3.9388,-3.9388,-3.9337,-3.9068,-3.8339,-3.7481,-3.6819,-3.6202,-3.5317,-3.3646,-3.2749,-3.196,-3.1007,-3.0279,-2.9792,-2.9792,-2.9792,-3.0088,0.0,-3.0797,-3.1043,-3.1973,-3.1226,-3.0544,0.0,0.0,0.0,0.0,-2.8963,-2.9202,-2.9779,-2.9792,-2.9792,-2.9792,-3.0218,-3.0896,-3.1838,-3.2541,-3.2943,-3.3124,-3.3124,-3.3124,-3.3124,-3.3124,-3.3124,-3.3124,-3.3124,-3.3124,-3.3124,-3.3124,-3.3124,-3.3124,-3.3124,-3.3124,-3.3124,-4.4066,-4.4004,-4.3849,-4.3369,-4.329,-4.329,-4.329,-4.329,-4.309,-4.2485,-4.1826,-4.113,-4.0472,-3.9813,-3.9388,-3.9388,-3.9388,-3.9388,-3.9388,-3.9388,-3.9388,-3.9388,-3.9388,-3.9388,-3.9388,-3.9388,-3.9388,-3.9388,-3.9388,-3.9388,-3.9388,-3.9388,-3.9388,-3.9388,-3.9388,-3.9388,-3.9388,-3.9388,-3.9388,-3.9388,-3.9388,-3.9388,-3.9388,-3.9388,-3.9388,-3.9388,-3.9388,-3.9388,-3.9388,-3.9388,-3.9388,-3.9388,-3.9388,-3.9388,-3.9388,-3.9388,-3.9388,-3.9388,-3.9388,-3.9388,-3.9388,-3.9388,-3.9388,-3.9388,-3.9388,-3.9125,-3.8676,-3.8003,-3.7345,-3.6401,-3.4746,-3.3787,-3.2925,-3.1997,-3.1153,-3.0719,-3.1018,-3.0834,-3.1073,-3.2316,-3.2105,-3.2213,-3.3136,-3.1997,-3.1269,-3.1397,-3.0511,0.0,-3.0572,-3.0179,-2.9909,-2.9818,-2.9792,-2.9917,-3.0168,-3.0959,-3.1637,-3.2227,-3.2805,-3.3124,-3.3124,-3.3124,-3.3124,-3.3124,-3.3124,-3.3124,-3.3124,-3.3124,-3.3124,-3.3124,-3.3124,-3.3124,-3.3124,-3.3124,-3.3124,-3.3124,-4.5153,-4.502,-4.4759,-4.3912,-4.3615,-4.3512,-4.3512,-4.3409,-4.3135,-4.262,-4.1886,-4.1175,-4.0606,-3.9873,-3.9388,-3.9388,-3.9388,-3.9388,-3.9388,-3.9388,-3.9388,-3.9388,-3.9388,-3.9388,-3.9388,-3.9388,-3.9388,-3.9388,-3.9388,-3.9388,-3.9388,-3.9388,-3.9388,-3.9388,-3.9388,-3.9388,-3.9388,-3.9388,-3.9388,-3.9388,-3.9388,-3.9388,-3.9388,-3.9388,-3.9388,-3.9388,-3.9388,-3.9388,-3.9388,-3.9388,-3.9388,-3.9388,-3.9388,-3.9388,-3.9388,-3.9388,-3.9388,-3.9388,-3.9388,-3.9388,-3.9388,-3.9388,-3.9388,-3.9388,-3.9388,-3.9388,-3.923,-3.8527,-3.7868,-3.6941,-3.549,-3.4562,-3.3711,-3.28,-3.2145,-3.1916,-3.2364,0.0,-3.2305,-3.3819,-3.331,-3.3171,-3.4129,-3.2642,-3.196,-3.2749,-3.1815,-3.1536,-3.2357,-3.1646,-3.081,-2.9956,-2.9917,-3.0218,-3.0859,-3.1763,-3.2252,-3.2353,-3.2842,-3.3124,-3.3124,-3.3124,-3.3124,-3.3124,-3.3124,-3.3124,-3.3124,-3.3124,-3.3124,-3.3124,-3.3124,-3.3124,-3.3124,-3.3124,-3.3124,-3.3124,-4.6012,-4.5977,-4.5925,-4.5782,-4.5101,-4.4548,-4.4548,-4.3849,-4.326,-4.3155,-4.2132,-4.1339,-4.1272,-4.0142,-3.9388,-3.9388,-3.9388,-3.9388,-3.9388,-3.9388,-3.9388,-3.9388,-3.9388,-3.9388,-3.9388,-3.9388,-3.9388,-3.9388,-3.9388,-3.9388,-3.9388,-3.9388,-3.9388,-3.9388,-3.9388,-3.9388,-3.9388,-3.9388,-3.9388,-3.9388,-3.9388,-3.9388,-3.9388,-3.9388,-3.9388,-3.9388,-3.9388,-3.9388,-3.9388,-3.9388,-3.9388,-3.9388,-3.9388,-3.9388,-3.9388,-3.9388,-3.9388,-3.9388,-3.9388,-3.9388,-3.9388,-3.9388,-3.9388,-3.9388,-3.9388,-3.9388,-3.923,-3.8527,-3.7868,-3.7176,-3.6414,-3.5015,-3.3786,-3.3149,-3.2709,-3.2282,-3.1833,0.0,-3.2814,-3.3876,-3.3876,-3.4177,-3.5166,-3.4225,-3.3636,-3.3774,-3.2177,-3.1241,-3.1426,-3.1278,-3.0979,-3.047,-3.0482,-3.0959,-3.1951,-3.2127,-3.2453,-3.2943,-3.3074,-3.3124,-3.3124,-3.3124,-3.3124,-3.3124,-3.3124,-3.3124,-3.3124,-3.3124,-3.3124,-3.3124,-3.3124,-3.3124,-3.3124,-3.3124,-3.3124,-3.3124,-4.7054,-4.6952,-4.6781,-4.6279,-4.5834,-4.5561,-4.5561,-4.4706,-4.4105,-4.4105,-4.2523,-4.1422,-4.1422,-4.0202,-3.9388,-3.9388,-3.9388,-3.9388,-3.9388,-3.9388,-3.9388,-3.9388,-3.9388,-3.9388,-3.9388,-3.9388,-3.9388,-3.9388,-3.9388,-3.9388,-3.9388,-3.9388,-3.9388,-3.9388,-3.9388,-3.9388,-3.9388,-3.9388,-3.9388,-3.9388,-3.9388,-3.9388,-3.9388,-3.9388,-3.9388,-3.9388,-3.9388,-3.9388,-3.9388,-3.9388,-3.9388,-3.9388,-3.9388,-3.9388,-3.9388,-3.9388,-3.9388,-3.9388,-3.9388,-3.9388,-3.9388,-3.9388,-3.9388,-3.9388,-3.9388,-3.9388,-3.9334,-3.9005,-3.8407,-3.7749,-3.7105,-3.6081,-3.5148,-3.4482,-3.3962,0.0,-3.3677,-3.3667,-3.3935,-3.4714,-3.4806,-3.4986,-3.5457,-3.4576,-3.4211,-3.4758,-3.3498,-3.2925,-3.3478,-3.3339,-3.2887,-3.2127,-3.1698,-3.1712,-3.2202,-3.2516,-3.2805,-3.3124,-3.3124,-3.3124,-3.3124,-3.3124,-3.3124,-3.3124,-3.3124,-3.3124,-3.3124,-3.3124,-3.3124,-3.3124,-3.3124,-3.3124,-3.3124,-3.3124,-3.3124,-3.3124,-4.808,-4.795,-4.7688,-4.6986,-4.6678,-4.6539,-4.6539,-4.5742,-4.5116,-4.5116,-4.3325,-4.196,-4.1753,-4.0501,-3.961,-3.9409,-3.9388,-3.9388,-3.9388,-3.9388,-3.9388,-3.9388,-3.9388,-3.9388,-3.9388,-3.9388,-3.9388,-3.9388,-3.9388,-3.9388,-3.9388,-3.9388,-3.9388,-3.9388,-3.9388,-3.9388,-3.9388,-3.9388,-3.9388,-3.9388,-3.9388,-3.9388,-3.9388,-3.9388,-3.9388,-3.9388,-3.9388,-3.9388,-3.9388,-3.9388,-3.9388,-3.9388,-3.9388,-3.9388,-3.9388,-3.9388,-3.9388,-3.9388,-3.9388,-3.9388,-3.9388,-3.9388,-3.9388,-3.9388,-3.9388,-3.9388,-3.9388,-3.9388,-3.8871,-3.8227,-3.7734,-3.7,-3.6267,-3.5609,0.0,-3.4846,-3.522,-3.4951,-3.4906,-3.5444,-3.5504,-3.5504,-3.5504,-3.4806,-3.4658,-3.5424,-3.4576,-3.4385,-3.534,-3.5146,-3.4761,-3.42,-3.2919,-3.2403,-3.2768,-3.297,-3.3124,-3.3124,-3.3124,-3.3124,-3.3124,-3.3124,-3.3124,-3.3124,-3.3124,-3.3124,-3.3124,-3.3124,-3.3124,-3.3124,-3.3124,-3.3124,-3.3124,-3.3124,-3.3124,-3.3124,-4.8909,-4.8909,-4.8861,-4.8798,-4.808,-4.7489,-4.7489,-4.6712,-4.6103,-4.6103,-4.4835,-4.3598,-4.2771,-4.1442,-4.0274,-3.9481,-3.9388,-3.9388,-3.9388,-3.9388,-3.9388,-3.9388,-3.9388,-3.9388,-3.9388,-3.9388,-3.9388,-3.9388,-3.9388,-3.9388,-3.9388,-3.9388,-3.9388,-3.9388,-3.9388,-3.9388,-3.9388,-3.9388,-3.9388,-3.9388,-3.9388,-3.9388,-3.9388,-3.9388,-3.9388,-3.9388,-3.9388,-3.9388,-3.9388,-3.9388,-3.9388,-3.9388,-3.9388,-3.9388,-3.9388,-3.9388,-3.9388,-3.9388,-3.9388,-3.9388,-3.9388,-3.9388,-3.9388,-3.9388,-3.9388,-3.9388,-3.9388,-3.9388,-3.8871,-3.8377,-3.8332,-3.7315,-3.6267,-3.5609,0.0,0.0,-3.4668,-3.5055,-3.5444,-3.5489,-3.5504,-3.5504,-3.5504,-3.5424,-3.5424,-3.5504,-3.4576,-3.432,-3.5016,-3.5004,-3.546,-3.6515,-3.3713,-3.2944,-3.4515,-3.3573,-3.3124,-3.3124,-3.3124,-3.3124,-3.3124,-3.3124,-3.3124,-3.3124,-3.3124,-3.3124,-3.3124,-3.3124,-3.3124,-3.3124,-3.3124,-3.3124,-3.3124,-3.3124,-3.3124,-3.3124,-4.9001,-4.9001,-4.9001,-4.9001,-4.8719,-4.8482,-4.8482,-4.7655,-4.7054,-4.7054,-4.5348,-4.3974,-4.3633,-4.2349,-4.1379,-4.1028,-4.0995,-4.0995,-4.0995,-4.0516,-3.9955,-3.9409,-3.9388,-3.9388,-3.9388,-3.9388,-3.9388,-3.9388,-3.9388,-3.9388,-3.9388,-3.9388,-3.9388,-3.9388,-3.9388,-3.9388,-3.9388,-3.9388,-3.9388,-3.9388,-3.9388,-3.9388,-3.9388,-3.9388,-3.9388,-3.9388,-3.9388,-3.9388,-3.9388,-3.9388,-3.9388,-3.9388,-3.9388,-3.9388,-3.9388,-3.9388,-3.9388,-3.9388,-3.9388,-3.9388,-3.9388,-3.9388,-3.9388,-3.9388,-3.9388,-3.9388,-3.9388,-3.9388,-3.9215,-3.8901,-3.8467,-3.7988,-3.733,-3.6282,0.0,-3.5878,-3.5205,-3.534,-3.5504,-3.5504,-3.5504,-3.5504,-3.5504,-3.5504,-3.5504,-3.5504,-3.5537,-3.5661,-3.5931,-3.6046,-3.6802,-3.8369,-3.5983,-3.4685,-3.4705,-3.4317,-3.3755,-3.3124,-3.3124,-3.3124,-3.3124,-3.3124,-3.3124,-3.3124,-3.3124,-3.3124,-3.3124,-3.3124,-3.3124,-3.3124,-3.3124,-3.3124,-3.3124,-3.3124,-3.3124,-3.3124,-4.9001,-4.9001,-4.9001,-4.9001,-4.9001,-4.9001,-4.9001,-4.8433,-4.8047,-4.8047,-4.624,-4.4838,-4.4576,-4.3267,-4.23,-4.2029,-4.1997,-4.1997,-4.1997,-4.1445,-4.0603,-3.9445,-3.9666,-3.9666,-3.9424,-3.9388,-3.9388,-3.9388,-3.9388,-3.9388,-3.9388,-3.9388,-3.9388,-3.9388,-3.9388,-3.9388,-3.9388,-3.9388,-3.9388,-3.9388,-3.9388,-3.9388,-3.9388,-3.9388,-3.9388,-3.9388,-3.9388,-3.9388,-3.9388,-3.9388,-3.9388,-3.9388,-3.9388,-3.9388,-3.9388,-3.9388,-3.9388,-3.9388,-3.9388,-3.9388,-3.9388,-3.9388,-3.9388,-3.9388,-3.9388,-3.9388,-3.9388,-3.9388,-3.9388,-3.9275,-3.8796,-3.8542,-3.8108,-3.7225,-3.6911,-3.6611,-3.6163,-3.5938,-3.5804,-3.5804,-3.5624,-3.5594,-3.5789,-3.5804,-3.5893,-3.6088,-3.6522,-3.6866,-3.7075,-3.7428,-3.8135,-3.9358,-3.7965,-3.6696,-3.5695,-3.502,-3.4304,-3.3598,-3.3283,-3.3124,-3.3124,-3.3124,-3.3124,-3.3124,-3.3124,-3.3124,-3.3124,-3.3124,-3.3124,-3.3124,-3.3124,-3.3124,-3.3124,-3.3124,-3.3124,-3.3124,-4.9001,-4.9001,-4.9001,-4.9001,-4.9001,-4.9001,-4.9001,-4.9001,-4.9001,-4.9001,-4.7716,-4.6484,-4.5619,-4.4177,-4.2939,-4.2093,-4.2029,-4.2029,-4.1997,-4.2029,-4.1262,-3.9517,-4.0239,-4.0309,-3.9424,-3.9409,-3.9388,-3.9388,-3.9388,-3.9388,-3.9388,-3.9388,-3.9388,-3.9388,-3.9388,-3.9388,-3.9388,-3.9388,-3.9409,-3.9424,-3.9424,-3.9424,-3.9424,-3.9424,-3.9424,-3.9388,-3.9388,-3.9388,-3.9388,-3.9388,-3.9388,-3.9388,-3.9388,-3.9388,-3.9388,-3.9388,-3.9388,-3.9388,-3.9388,-3.9388,-3.9388,-3.9388,-3.9388,-3.9388,-3.9388,-3.9388,-3.9388,-3.9388,-3.9388,-3.9388,-3.9388,-3.8856,-3.8407,-3.8392,-3.7838,-3.7419,-3.7404,-3.6881,-3.6492,-3.6492,-3.5923,-3.5774,-3.6432,-3.6492,-3.6746,-3.736,-3.7404,-3.7704,-3.8362,-3.905,-3.9388,-3.9388,-3.9388,-3.8907,-3.7829,-3.5735,-3.4705,-3.4705,-3.3598,-3.3124,-3.3124,-3.3124,-3.3124,-3.3124,-3.3124,-3.3124,-3.3124,-3.3124,-3.3124,-3.3124,-3.3124,-3.3124,-3.3124,-3.3124,-3.3124,-3.3124,-4.9001,-4.9001,-4.9001,-4.9001,-4.9001,-4.9001,-4.9001,-4.9001,-4.9001,-4.9001,-4.7716,-4.668,-4.6438,-4.5114,-4.4093,-4.3856,-4.3827,-4.3575,-4.2939,-4.3486,-4.3061,-4.1295,-4.0894,-4.0588,-4.0309,-3.9702,-3.9388,-3.9388,-3.9388,-3.9388,-3.9388,-3.9388,-3.9388,-3.9388,-3.9388,-3.9388,-3.9388,-3.9388,-3.9758,-4.0309,-4.0309,-4.0309,-4.0309,-4.0309,-3.992,-3.9388,-3.9388,-3.9388,-3.9388,-3.9388,-3.9388,-3.9388,-3.9388,-3.9388,-3.9388,-3.9388,-3.9388,-3.9388,-3.9388,-3.9388,-3.9388,-3.9388,-3.9388,-3.9388,-3.9388,-3.9388,-3.9388,-3.9388,-3.9388,-3.9388,-3.9388,-3.9245,-3.896,-3.8467,-3.8227,-3.7943,-3.7479,-3.7255,-3.7135,-3.7135,-3.6956,-3.6926,-3.712,-3.7135,-3.721,-3.7404,-3.7838,-3.8392,-3.908,-3.9305,-3.9388,-3.9388,-3.9388,-3.9265,-3.8943,-3.6813,-3.54,-3.4705,-3.3598,-3.3124,-3.3124,-3.3124,-3.3124,-3.3124,-3.3124,-3.3124,-3.3124,-3.3124,-3.3124,-3.3124,-3.3124,-3.3124,-3.3124,-3.3124,-3.3124,-3.3124,-4.9001,-4.9001,-4.9001,-4.9001,-4.9001,-4.9001,-4.9001,-4.9001,-4.9001,-4.9001,-4.7716,-4.6786,-4.6786,-4.5495,-4.4615,-4.4615,-4.4615,-4.4384,-4.3844,-4.4327,-4.4121,-4.3061,-4.2189,-4.1576,-4.1213,-4.0706,-4.0428,-4.0428,-4.0428,-4.0428,-4.0413,-4.0095,-3.992,-3.99,-3.9538,-3.9574,-3.992,-3.992,-4.0413,-4.1213,-4.1213,-4.1013,-4.069,-4.069,-4.015,-3.9388,-3.9388,-3.9388,-3.9388,-3.9388,-3.9388,-3.9388,-3.9388,-3.9388,-3.9388,-3.9388,-3.9388,-3.9388,-3.9388,-3.9388,-3.9388,-3.9388,-3.9388,-3.9388,-3.9388,-3.9388,-3.9388,-3.9388,-3.9388,-3.9388,-3.9388,-3.9388,-3.929,-3.8871,-3.8796,-3.8661,-3.8257,-3.7973,-3.7808,-3.7808,-3.7569,-3.7509,-3.7778,-3.7808,-3.7913,-3.8182,-3.8571,-3.8975,-3.9394,-3.9388,-3.9388,-3.9388,-3.9388,-3.9388,-3.9388,-3.7686,-3.654,-3.5895,-3.4428,-3.3713,-3.3713,-3.3283,-3.3124,-3.3124,-3.3124,-3.3124,-3.3124,-3.3124,-3.3124,-3.3124,-3.3124,-3.3124,-3.3124,-3.3124,-3.3124,-3.3124,-4.9001,-4.9001,-4.9001,-4.9001,-4.9001,-4.9001,-4.9001,-4.9001,-4.8984,-4.8917,-4.7665,-4.6769,-4.6701,-4.5461,-4.4615,-4.4615,-4.4615,-4.4615,-4.4615,-4.4615,-4.4615,-4.4615,-4.3844,-4.3031,-4.2252,-4.2093,-4.1997,-4.1997,-4.1997,-4.1997,-4.1997,-4.118,-4.0826,-4.0792,-3.999,-4.006,-4.0826,-4.0826,-4.1313,-4.2125,-4.2125,-4.1642,-4.0912,-4.086,-4.0289,-3.9517,-3.9424,-3.9388,-3.9388,-3.9388,-3.9388,-3.9388,-3.9388,-3.9388,-3.9388,-3.9388,-3.9388,-3.9388,-3.9388,-3.9388,-3.9388,-3.9388,-3.9388,-3.9388,-3.9388,-3.9388,-3.9388,-3.9388,-3.9388,-3.9388,-3.9388,-3.9388,-3.9388,-3.9388,-3.9388,-3.9388,-3.9388,-3.8871,-3.8482,-3.8482,-3.7958,-3.7823,-3.8422,-3.8482,-3.8736,-3.9328,-3.9388,-3.9388,-3.9388,-3.9388,-3.9388,-3.9388,-3.9388,-3.9388,-3.9388,-3.8435,-3.7866,-3.7791,-3.5775,-3.4815,-3.4787,-3.3827,-3.3313,-3.324,-3.324,-3.3197,-3.3124,-3.3124,-3.3124,-3.3124,-3.3124,-3.3124,-3.3124,-3.3124,-3.3124,-3.3124,-4.9001,-4.9001,-4.9001,-4.9001,-4.9001,-4.9001,-4.9001,-4.9001,-4.8798,-4.8193,-4.7361,-4.6583,-4.6007,-4.5128,-4.4615,-4.4615,-4.4615,-4.4615,-4.4615,-4.4615,-4.4615,-4.4615,-4.4412,-4.4224,-4.4035,-4.2707,-4.1997,-4.1997,-4.1997,-4.1997,-4.1997,-4.1804,-4.1739,-4.1707,-4.1511,-4.1543,-4.1739,-4.1739,-4.2221,-4.3017,-4.3017,-4.2909,-4.2645,-4.1965,-4.118,-4.0343,-3.9646,-3.9388,-3.9388,-3.9388,-3.9388,-3.9388,-3.9388,-3.9388,-3.9388,-3.9388,-3.9388,-3.9388,-3.9388,-3.9388,-3.9388,-3.9388,-3.9388,-3.9388,-3.9388,-3.9388,-3.9388,-3.9388,-3.9388,-3.9388,-3.9388,-3.9388,-3.9388,-3.9388,-3.9388,-3.9388,-3.9388,-3.9254,-3.9185,-3.9185,-3.9065,-3.9,-3.9185,-3.9185,-3.926,-3.9373,-3.9388,-3.9388,-3.9388,-3.9388,-3.9388,-3.9388,-3.9388,-3.9388,-3.9388,-3.9177,-3.862,-3.7791,-3.6501,-3.5854,-3.5854,-3.5614,-3.5116,-3.4345,-3.4345,-3.3869,-3.3124,-3.3124,-3.3124,-3.3124,-3.3124,-3.3124,-3.3124,-3.3124,-3.3124,-3.3124,-4.9001,-4.9001,-4.9001,-4.9001,-4.9001,-4.9001,-4.9001,-4.8714,-4.8359,-4.7939,-4.6955,-4.6126,-4.5737,-4.5026,-4.4615,-4.4615,-4.4615,-4.4615,-4.4615,-4.4615,-4.4615,-4.4615,-4.4615,-4.4615,-4.4615,-4.371,-4.3243,-4.3243,-4.3243,-4.3243,-4.3213,-4.28,-4.2614,-4.2583,-4.2189,-4.2221,-4.2614,-4.2614,-4.3139,-4.3902,-4.3902,-4.3651,-4.3246,-4.2785,-4.1836,-4.0622,-4.017,-3.9758,-3.9388,-3.9388,-3.9388,-3.9388,-3.9388,-3.9388,-3.9388,-3.9388,-3.9388,-3.9388,-3.9388,-3.9388,-3.9388,-3.9388,-3.9388,-3.9388,-3.9388,-3.9388,-3.9388,-3.9388,-3.9388,-3.9388,-3.9388,-3.9388,-3.9388,-3.9388,-3.9388,-3.9388,-3.9388,-3.9388,-3.9388,-3.9388,-3.9388,-3.9388,-3.9388,-3.9388,-3.9388,-3.9388,-3.9388,-3.9388,-3.9388,-3.9388,-3.9388,-3.9388,-3.9388,-3.9388,-3.9388,-3.9388,-3.9104,-3.8546,-3.7458,-3.6968,-3.693,-3.5948,-3.521,-3.4664,-3.415,-3.3641,-3.3124,-3.3124,-3.3124,-3.3124,-3.3124,-3.3124,-3.3124,-3.3124,-3.3124,-3.3124,-4.9001,-4.9001,-4.9001,-4.9001,-4.9001,-4.8968,-4.8832,-4.8308,-4.7804,-4.7551,-4.6464,-4.5652,-4.5534,-4.4987,-4.4615,-4.4615,-4.4615,-4.4615,-4.4615,-4.4615,-4.4615,-4.4615,-4.4615,-4.4615,-4.4615,-4.4615,-4.4615,-4.4615,-4.4615,-4.4615,-4.457,-4.3844,-4.3532,-4.3502,-4.2769,-4.2847,-4.3532,-4.3532,-4.3948,-4.4615,-4.4615,-4.4167,-4.3502,-4.3366,-4.2379,-4.1113,-4.0811,-4.015,-3.9388,-3.9388,-3.9388,-3.9388,-3.9388,-3.9388,-3.9388,-3.9388,-3.9388,-3.9388,-3.9388,-3.9388,-3.9388,-3.9388,-3.9388,-3.9388,-3.9388,-3.9388,-3.9388,-3.9388,-3.9388,-3.9388,-3.9388,-3.9388,-3.9388,-3.9388,-3.9388,-3.9388,-3.9388,-3.9388,-3.9388,-3.9388,-3.9388,-3.9388,-3.9388,-3.9388,-3.9388,-3.9388,-3.9388,-3.9388,-3.9388,-3.9388,-3.9388,-3.9388,-3.9388,-3.9388,-3.9388,-3.9388,-3.9388,-3.9388,-3.8509,-3.8069,-3.7994,-3.6094,-3.5142,-3.4897,-3.3827,-3.3283,-3.3124,-3.3124,-3.3124,-3.3124,-3.3124,-3.3124,-3.3124,-3.3124,-3.3124,-3.3124,-4.9001,-4.9001,-4.9001,-4.9001,-4.9001,-4.8781,-4.8156,-4.7939,-4.7432,-4.6177,-4.5821,-4.5466,-4.4835,-4.4666,-4.4615,-4.4615,-4.4615,-4.4615,-4.4615,-4.4615,-4.4615,-4.4615,-4.4615,-4.4615,-4.4615,-4.4615,-4.4615,-4.4615,-4.4615,-4.4615,-4.4615,-4.4485,-4.4412,-4.4412,-4.4281,-4.431,-4.4412,-4.4412,-4.4485,-4.4615,-4.4615,-4.4542,-4.4355,-4.3591,-4.3139,-4.2754,-4.1247,-4.015,-3.9388,-3.9388,-3.9388,-3.9388,-3.9388,-3.9388,-3.9388,-3.9388,-3.9388,-3.9388,-3.9388,-3.9388,-3.9388,-3.9388,-3.9388,-3.9388,-3.9388,-3.9388,-3.9388,-3.9388,-3.9388,-3.9388,-3.9388,-3.9388,-3.9388,-3.9388,-3.9388,-3.9388,-3.9388,-3.9388,-3.9388,-3.9388,-3.9388,-3.9388,-3.9388,-3.9388,-3.9388,-3.9388,-3.9388,-3.9388,-3.9388,-3.9388,-3.9388,-3.9388,-3.9388,-3.9388,-3.9388,-3.9388,-3.9388,-3.9388,-3.9265,-3.9177,-3.9141,-3.7919,-3.6866,-3.5934,-3.4925,-3.3953,-3.3124,-3.3124,-3.3124,-3.3124,-3.3124,-3.3124,-3.3124,-3.3124,-3.3124,-3.3124,-4.8934,-4.9001,-4.9001,-4.9001,-4.8663,-4.8291,-4.7939,-4.7179,-4.6447,-4.5788,-4.5331,-4.4942,-4.4649,-4.4615,-4.4615,-4.4615,-4.4615,-4.4615,-4.4615,-4.4615,-4.4615,-4.4615,-4.4615,-4.4615,-4.4615,-4.4615,-4.4615,-4.4615,-4.4615,-4.4615,-4.4615,-4.4615,-4.4615,-4.4615,-4.4615,-4.4615,-4.4615,-4.4615,-4.4615,-4.4615,-4.4615,-4.4615,-4.4542,-4.4167,-4.371,-4.3139,-4.1869,-4.1196,-4.0842,-4.0842,-4.0842,-4.0842,-4.0842,-4.0842,-4.0774,-4.0274,-4.0115,-4.0025,-3.9553,-3.9388,-3.9388,-3.9388,-3.9388,-3.9388,-3.9388,-3.9388,-3.9388,-3.9388,-3.9388,-3.9388,-3.9388,-3.9388,-3.9388,-3.9388,-3.9388,-3.9388,-3.9388,-3.9388,-3.9388,-3.9388,-3.9388,-3.9388,-3.9388,-3.9388,-3.9388,-3.9388,-3.9388,-3.9388,-3.9388,-3.9388,-3.9388,-3.9388,-3.9388,-3.9388,-3.9388,-3.9388,-3.9388,-3.9388,-3.9388,-3.9388,-3.9337,-3.8308,-3.7548,-3.7021,-3.5987,-3.4966,-3.3995,-3.3995,-3.3641,-3.3124,-3.3124,-3.3124,-3.3124,-3.3124,-3.3124,-3.3124]},{"header":{"parameterUnit":"m.s-1","parameterCategory":1,"la1":30.6,"la2":28.766,"lo1":-90.7593,"lo2":-88.6598,"dy":0.0162,"dx":0.0183,"nx":116,"ny":114,"refTime":"2023-07-03T18:00:00:Z","depth":0,"parameterNumber":3,"parameterNumberName":"V-component_of_WINDS"},"data":[0.0,0.0,0.0,0.0,0.0,0.0,0.0,0.0,0.0,0.0,0.0,0.0,0.0,0.0,0.0,0.0,0.0,0.0,0.0,0.0,0.0,0.0,0.0,0.0,0.0,0.0,0.0,0.0,0.0,0.0,0.0,0.0,0.0,0.0,0.0,0.0,0.0,0.0,0.0,0.0,0.0,0.0,0.0,0.0,0.0,0.0,0.0,0.0,0.0,0.0,0.0,0.0,0.0,0.0,0.0,0.0,0.0,0.0,0.0,0.0,0.0,0.0,0.0,0.0,0.0,0.0,0.0,0.0,0.0,0.0,0.0,0.0,0.0,0.0,0.0,0.0,0.0,0.0,0.0,0.0,0.0,0.0,0.0,0.0,0.0,0.0,0.0,0.0,0.0,0.0,0.0,0.0,0.0,0.0,0.0,0.0,0.0,0.0,0.0,0.0,0.0,0.0,0.0,0.0,0.0,0.0,0.0,0.0,0.0,0.0,0.0,0.0,0.0,0.0,0.0,0.0,0.0,0.0,0.0,0.0,0.0,0.0,0.0,0.0,0.0,0.0,0.0,0.0,0.0,0.0,0.0,0.0,0.0,0.0,0.0,0.0,0.0,0.0,0.0,0.0,0.0,0.0,0.0,0.0,0.0,0.0,0.0,0.0,0.0,0.0,0.0,0.0,0.0,0.0,0.0,0.0,0.0,0.0,0.0,0.0,0.0,0.0,0.0,0.0,0.0,0.0,0.0,0.0,0.0,0.0,0.0,0.0,0.0,0.0,0.0,0.0,0.0,0.0,0.0,0.0,0.0,0.0,0.0,0.0,0.0,0.0,0.0,0.0,0.0,0.0,0.0,0.0,0.0,0.0,0.0,0.0,0.0,0.0,0.0,0.0,0.0,0.0,0.0,0.0,0.0,0.0,0.0,0.0,0.0,0.0,0.0,0.0,0.0,0.0,0.0,0.0,0.0,0.0,0.0,0.0,0.0,0.0,0.0,0.0,0.0,0.0,0.0,0.0,0.0,0.0,0.0,0.0,0.0,0.0,0.0,0.0,0.0,0.0,0.0,0.0,0.0,0.0,0.0,0.0,0.0,0.0,0.0,0.0,0.0,0.0,0.0,0.0,0.0,0.0,0.0,0.0,0.0,0.0,0.0,0.0,0.0,0.0,0.0,0.0,0.0,0.0,0.0,0.0,0.0,0.0,0.0,0.0,0.0,0.0,0.0,0.0,0.0,0.0,0.0,0.0,0.0,0.0,0.0,0.0,0.0,0.0,0.0,0.0,0.0,0.0,0.0,0.0,0.0,0.0,0.0,0.0,0.0,0.0,0.0,0.0,0.0,0.0,0.0,0.0,0.0,0.0,0.0,0.0,0.0,0.0,0.0,0.0,0.0,0.0,0.0,0.0,0.0,0.0,0.0,0.0,0.0,0.0,0.0,0.0,0.0,0.0,0.0,0.0,0.0,0.0,0.0,0.0,0.0,0.0,0.0,0.0,0.0,0.0,0.0,0.0,0.0,0.0,0.0,0.0,0.0,0.0,0.0,0.0,0.0,0.0,0.0,0.0,0.0,0.0,0.0,0.0,0.0,0.0,0.0,0.0,0.0,0.0,0.0,0.0,0.0,0.0,0.0,0.0,0.0,0.0,0.0,0.0,0.0,0.0,0.0,0.0,0.0,0.0,0.0,0.0,0.0,0.0,0.0,0.0,0.0,0.0,0.0,0.0,0.0,0.0,0.0,0.0,0.0,0.0,0.0,0.0,0.0,0.0,0.0,0.0,0.0,0.0,0.0,0.0,0.0,0.0,0.0,0.0,0.0,0.0,0.0,0.0,0.0,0.0,0.0,0.0,0.0,0.0,0.0,0.0,0.0,0.0,0.0,0.0,0.0,0.0,0.0,0.0,0.0,0.0,0.0,0.0,0.0,0.0,0.0,0.0,0.0,0.0,0.0,0.0,0.0,0.0,0.0,0.0,0.0,0.0,0.0,0.0,0.0,0.0,0.0,0.0,0.0,0.0,0.0,0.0,0.0,0.0,0.0,0.0,0.0,0.0,0.0,0.0,0.0,0.0,0.0,0.0,0.0,0.0,0.0,0.0,0.0,0.0,0.0,0.0,0.0,0.0,0.0,0.0,0.0,0.0,0.0,0.0,0.0,0.0,0.0,0.0,0.0,0.0,0.0,0.0,0.0,0.0,0.0,0.0,0.0,0.0,0.0,0.0,0.0,0.0,0.0,0.0,0.0,0.0,0.0,0.0,0.0,0.0,0.0,0.0,0.0,0.0,0.0,0.0,0.0,0.0,0.0,0.0,0.0,0.0,0.0,0.0,0.0,0.0,0.0,0.0,0.0,0.0,0.0,0.0,0.0,0.0,0.0,0.0,0.0,0.0,0.0,0.0,0.0,0.0,0.0,0.0,0.0,0.0,0.0,0.0,0.0,0.0,0.0,0.0,0.0,0.0,0.0,0.0,0.0,0.0,0.0,0.0,0.0,0.0,0.0,0.0,0.0,0.0,0.0,0.0,0.0,0.0,0.0,0.0,0.0,0.0,0.0,0.0,0.0,0.0,0.0,0.0,0.0,0.0,0.0,0.0,0.0,0.0,0.0,0.0,0.0,0.0,0.0,0.0,0.0,0.0,0.0,0.0,0.0,0.0,0.0,0.0,0.0,0.0,0.0,0.0,0.0,0.0,0.0,0.0,0.0,0.0,0.0,0.0,0.0,0.0,0.0,0.0,0.0,0.0,0.0,0.0,0.0,0.0,0.0,0.0,0.0,0.0,0.0,0.0,0.0,0.0,0.0,0.0,0.0,0.0,0.0,0.0,0.0,0.0,0.0,0.0,0.0,0.0,0.0,0.0,0.0,0.0,0.0,0.0,0.0,0.0,0.0,0.0,0.0,0.0,0.0,0.0,0.0,0.0,0.0,0.0,0.0,0.0,0.0,0.0,0.0,0.0,0.0,0.0,0.0,0.0,0.0,0.0,0.0,0.0,0.0,0.0,0.0,0.0,0.0,0.0,0.0,0.0,0.0,0.0,0.0,0.0,0.0,0.0,0.0,0.0,0.0,0.0,0.0,0.0,0.0,0.0,0.0,0.0,0.0,0.0,0.0,0.0,0.0,0.0,0.0,0.0,0.0,0.0,0.0,0.0,0.0,0.0,0.0,0.0,0.0,0.0,0.0,0.0,0.0,0.0,0.0,0.0,0.0,0.0,0.0,0.0,0.0,0.0,0.0,0.0,0.0,0.0,0.0,0.0,0.0,0.0,0.0,0.0,0.0,0.0,0.0,0.0,0.0,0.0,0.0,0.0,0.0,0.0,0.0,0.0,0.0,0.0,0.0,0.0,0.0,0.0,0.0,0.0,0.0,0.0,0.0,0.0,0.0,0.0,0.0,0.0,0.0,0.0,0.0,0.0,0.0,0.0,0.0,0.0,0.0,0.0,0.0,0.0,0.0,0.0,0.0,0.0,0.0,0.0,0.0,0.0,0.0,0.0,0.0,0.0,0.0,0.0,0.0,0.0,0.0,0.0,0.0,0.0,0.0,0.0,0.0,0.0,0.0,0.0,0.0,0.0,0.0,0.0,0.0,0.0,0.0,0.0,0.0,0.0,0.0,0.0,0.0,0.0,0.0,0.0,0.0,0.0,0.0,0.0,0.0,0.0,0.0,0.0,0.0,0.0,0.0,0.0,0.0,0.0,0.0,0.0,0.0,0.0,0.0,0.0,0.0,0.0,0.0,0.0,0.0,0.0,0.0,0.0,0.0,0.0,0.0,0.0,0.0,0.0,0.0,0.0,0.0,0.0,0.0,0.0,0.0,0.0,0.0,0.0,0.0,0.0,0.0,0.0,0.0,0.0,0.0,0.0,0.0,0.0,0.0,0.0,0.0,0.0,0.0,0.0,0.0,0.0,0.0,0.0,0.0,0.0,0.0,0.0,0.0,0.0,0.0,0.0,0.0,0.0,0.0,0.0,0.0,0.0,0.0,0.0,0.0,0.0,0.0,0.0,0.0,0.0,0.0,0.0,0.0,0.0,0.0,0.0,0.0,0.0,0.0,0.0,0.0,0.0,0.0,0.0,0.0,0.0,0.0,0.0,0.0,0.0,0.0,0.0,0.0,0.0,0.0,0.0,0.0,0.0,0.0,0.0,0.0,0.0,0.0,0.0,0.0,0.0,0.0,0.0,0.0,0.0,0.0,0.0,0.0,0.0,0.0,0.0,0.0,0.0,0.0,0.0,0.0,0.0,0.0,0.0,0.0,0.0,0.0,0.0,0.0,0.0,0.0,0.0,0.0,0.0,0.0,0.0,0.0,0.0,0.0,0.0,0.0,0.0,0.0,0.0,0.0,0.0,0.0,0.0,0.0,0.0,0.0,0.0,0.0,0.0,0.0,0.0,0.0,0.0,0.0,0.0,0.0,0.0,0.0,0.0,0.0,0.0,0.0,0.0,0.0,0.0,0.0,0.0,0.0,0.0,0.0,0.0,0.0,0.0,0.0,0.0,0.0,0.0,0.0,0.0,0.0,0.0,0.0,0.0,0.0,0.0,0.0,0.0,0.0,0.0,0.0,0.0,0.0,0.0,0.0,0.0,0.0,0.0,0.0,0.0,0.0,0.0,0.0,0.0,0.0,0.0,0.0,0.0,0.0,0.0,0.0,0.0,0.0,0.0,0.0,0.0,0.0,0.0,0.0,0.0,0.0,0.0,0.0,0.0,0.0,0.0,0.0,0.0,0.0,0.0,0.0,0.0,0.0,0.0,0.0,0.0,0.0,0.0,0.0,0.0,0.0,0.0,0.0,0.0,0.0,0.0,0.0,0.0,0.0,0.0,0.0,0.0,0.0,0.0,0.0,0.0,0.0,0.0,0.0,0.0,0.0,0.0,0.0,0.0,0.0,0.0,0.0,0.0,0.0,0.0,0.0,0.0,0.0,0.0,0.0,0.0,0.0,0.0,0.0,0.0,0.0,0.0,0.0,0.0,0.0,0.0,0.0,0.0,0.0,0.0,0.0,0.0,0.0,0.0,0.0,0.0,0.0,0.0,0.0,0.0,0.0,0.0,0.0,0.0,0.0,0.0,0.0,0.0,0.0,0.0,0.0,0.0,0.0,0.0,0.0,0.0,0.0,0.0,0.0,0.0,0.0,0.0,0.0,0.0,0.0,0.0,0.0,0.0,0.0,0.0,0.0,0.0,0.0,0.0,0.0,0.0,0.0,0.0,0.0,0.0,0.0,0.0,0.0,0.0,0.0,0.0,0.0,0.0,0.0,0.0,0.0,0.0,0.0,0.0,0.0,0.0,0.0,0.0,0.0,0.0,0.0,0.0,0.0,0.0,0.0,0.0,0.0,0.0,0.0,0.0,0.0,0.0,0.0,0.0,0.0,0.0,0.0,0.0,0.0,0.0,0.0,0.0,0.0,0.0,0.0,0.0,0.0,0.0,0.0,0.0,0.0,0.0,0.0,0.0,0.0,0.0,0.0,0.0,0.0,0.0,0.0,0.0,0.0,0.0,0.0,0.0,0.0,0.0,0.0,0.0,0.0,0.0,0.0,0.0,0.0,0.0,0.0,0.0,0.0,0.0,0.0,0.0,0.0,0.0,0.0,0.0,0.0,0.0,0.0,0.0,0.0,0.0,0.0,0.0,0.0,0.0,0.0,0.0,0.0,0.0,0.0,0.0,0.0,0.0,0.0,0.0,0.0,0.0,0.0,0.0,0.0,0.0,0.0,0.0,0.0,0.0,0.0,0.0,0.0,0.0,0.0,0.0,0.0,0.0,0.0,0.0,0.0,0.0,0.0,0.0,0.0,0.0,0.0,0.0,0.0,0.0,0.0,0.0,0.0,0.0,0.0,0.0,0.0,0.0,0.0,0.0,0.0,0.0,0.0,0.0,0.0,0.0,0.0,0.0,0.0,0.0,0.0,0.0,0.0,0.0,0.0,0.0,0.0,0.0,0.0,0.0,0.0,0.0,0.0,0.0,0.0,0.0,0.0,0.0,0.0,0.0,0.0,0.0,0.0,0.0,0.0,0.0,0.0,0.0,0.0,0.0,0.0,0.0,0.0,0.0,0.0,0.0,0.0,0.0,0.0,0.0,0.0,0.0,0.0,0.0,-4.1045,0.0,0.0,0.0,0.0,0.0,0.0,0.0,0.0,0.0,0.0,0.0,0.0,0.0,0.0,0.0,0.0,0.0,0.0,0.0,0.0,0.0,0.0,0.0,0.0,0.0,0.0,0.0,0.0,0.0,0.0,0.0,0.0,0.0,0.0,0.0,0.0,0.0,0.0,0.0,0.0,0.0,0.0,0.0,0.0,0.0,0.0,0.0,0.0,0.0,0.0,0.0,0.0,0.0,0.0,0.0,0.0,0.0,0.0,0.0,0.0,0.0,0.0,0.0,0.0,0.0,0.0,0.0,0.0,0.0,0.0,0.0,0.0,0.0,0.0,0.0,0.0,0.0,0.0,0.0,0.0,0.0,0.0,0.0,0.0,0.0,0.0,0.0,0.0,0.0,0.0,0.0,0.0,0.0,0.0,0.0,0.0,0.0,0.0,0.0,0.0,0.0,0.0,0.0,0.0,0.0,0.0,0.0,0.0,0.0,0.0,0.0,0.0,0.0,0.0,0.0,0.0,-4.1925,0.0,0.0,0.0,0.0,0.0,0.0,0.0,0.0,0.0,0.0,0.0,0.0,0.0,0.0,0.0,0.0,0.0,0.0,0.0,0.0,0.0,0.0,0.0,0.0,0.0,0.0,0.0,0.0,0.0,0.0,0.0,0.0,0.0,0.0,0.0,0.0,0.0,0.0,0.0,0.0,0.0,0.0,0.0,0.0,0.0,0.0,0.0,0.0,0.0,0.0,0.0,0.0,0.0,0.0,0.0,0.0,0.0,0.0,0.0,0.0,0.0,0.0,0.0,0.0,0.0,0.0,0.0,0.0,0.0,0.0,0.0,0.0,0.0,0.0,0.0,0.0,0.0,0.0,0.0,0.0,0.0,0.0,0.0,0.0,0.0,0.0,0.0,0.0,0.0,0.0,0.0,0.0,0.0,0.0,0.0,0.0,0.0,0.0,0.0,0.0,0.0,0.0,0.0,0.0,0.0,0.0,0.0,0.0,-4.2233,-4.3077,-4.3996,-4.3889,-4.4878,-4.6524,-4.4135,-4.3996,-4.5329,-4.391,0.0,0.0,0.0,0.0,0.0,0.0,0.0,0.0,0.0,0.0,0.0,0.0,0.0,0.0,0.0,0.0,0.0,0.0,0.0,0.0,0.0,0.0,0.0,0.0,0.0,0.0,0.0,0.0,0.0,0.0,0.0,0.0,0.0,0.0,0.0,0.0,0.0,0.0,0.0,0.0,0.0,0.0,0.0,0.0,0.0,0.0,0.0,0.0,0.0,0.0,0.0,0.0,0.0,0.0,0.0,0.0,0.0,0.0,0.0,0.0,0.0,0.0,0.0,0.0,0.0,0.0,0.0,0.0,0.0,0.0,0.0,0.0,0.0,0.0,0.0,0.0,0.0,0.0,0.0,0.0,0.0,0.0,0.0,0.0,0.0,0.0,-3.7855,-3.7855,0.0,0.0,0.0,0.0,0.0,0.0,0.0,0.0,0.0,0.0,0.0,0.0,0.0,-3.9106,-3.9944,-4.1192,-4.2475,-4.3806,-4.4461,-4.5767,-4.7599,-4.7063,-4.7272,-4.8026,-4.762,0.0,-4.6779,-4.6114,0.0,0.0,0.0,0.0,0.0,0.0,0.0,0.0,0.0,0.0,0.0,0.0,0.0,0.0,0.0,0.0,0.0,0.0,0.0,0.0,0.0,0.0,0.0,0.0,0.0,0.0,0.0,0.0,0.0,0.0,0.0,0.0,0.0,0.0,0.0,0.0,0.0,0.0,0.0,0.0,0.0,0.0,0.0,0.0,0.0,0.0,0.0,0.0,0.0,0.0,0.0,0.0,0.0,0.0,0.0,0.0,0.0,0.0,0.0,0.0,0.0,0.0,0.0,0.0,0.0,0.0,0.0,0.0,0.0,0.0,0.0,0.0,0.0,0.0,0.0,0.0,0.0,0.0,0.0,0.0,0.0,0.0,0.0,0.0,0.0,-3.7083,-3.728,-3.728,-3.7015,-3.6626,0.0,0.0,0.0,0.0,0.0,0.0,0.0,0.0,0.0,-4.0189,-4.024,-4.0798,-4.1938,-4.2918,-4.3917,-4.4942,-4.5942,-4.6917,-4.7797,-4.7877,-4.8055,-4.8306,-4.8306,-4.8104,-4.7718,-4.7031,-4.6465,-4.5975,0.0,0.0,0.0,0.0,-4.5369,-4.5498,0.0,0.0,0.0,0.0,0.0,0.0,0.0,0.0,0.0,0.0,0.0,0.0,0.0,0.0,0.0,0.0,0.0,0.0,0.0,0.0,0.0,0.0,0.0,0.0,0.0,0.0,0.0,0.0,0.0,0.0,0.0,0.0,0.0,0.0,0.0,0.0,0.0,0.0,0.0,0.0,0.0,0.0,0.0,0.0,0.0,0.0,0.0,0.0,0.0,0.0,0.0,0.0,0.0,0.0,0.0,0.0,0.0,0.0,0.0,0.0,0.0,0.0,0.0,0.0,0.0,0.0,0.0,0.0,0.0,0.0,0.0,0.0,0.0,0.0,0.0,0.0,0.0,-3.7134,-3.7303,-3.7117,-3.7252,-3.7043,0.0,0.0,0.0,0.0,0.0,0.0,-3.9512,-3.9563,-4.024,-4.1728,-4.1762,-4.2468,-4.3929,-4.4432,-4.5125,-4.6007,-4.695,-4.747,-4.7635,-4.8113,-4.8306,-4.8306,-4.8306,-4.8306,-4.8251,-4.7645,-4.7278,-4.7039,-4.6452,-4.6085,-4.592,-4.614,-4.6214,-4.6324,0.0,0.0,0.0,0.0,0.0,0.0,0.0,0.0,0.0,0.0,0.0,0.0,0.0,0.0,0.0,0.0,0.0,0.0,0.0,0.0,0.0,0.0,0.0,0.0,0.0,0.0,0.0,0.0,0.0,0.0,0.0,0.0,0.0,0.0,0.0,0.0,0.0,0.0,0.0,0.0,0.0,0.0,0.0,0.0,0.0,0.0,0.0,0.0,0.0,0.0,0.0,0.0,0.0,0.0,0.0,0.0,0.0,0.0,0.0,0.0,0.0,0.0,0.0,0.0,0.0,0.0,0.0,0.0,0.0,0.0,0.0,0.0,0.0,0.0,0.0,0.0,0.0,0.0,0.0,-3.7939,-3.8464,0.0,0.0,0.0,0.0,-3.8836,-3.892,-3.9563,-4.1018,-4.1085,-4.1779,-4.324,-4.3274,-4.3966,-4.539,-4.5433,-4.6077,-4.732,-4.7363,-4.7715,-4.8267,-4.8287,-4.8306,-4.8306,-4.8306,-4.8306,-4.8306,-4.8269,-4.7791,-4.7094,-4.7058,-4.6562,-4.5993,-4.6746,-4.7039,-4.7149,0.0,0.0,0.0,0.0,0.0,0.0,0.0,0.0,0.0,0.0,0.0,0.0,0.0,0.0,0.0,0.0,0.0,0.0,0.0,0.0,0.0,0.0,0.0,0.0,0.0,0.0,0.0,0.0,0.0,0.0,0.0,0.0,0.0,0.0,0.0,0.0,0.0,0.0,0.0,0.0,0.0,0.0,0.0,0.0,0.0,0.0,0.0,0.0,0.0,0.0,0.0,0.0,0.0,0.0,0.0,0.0,0.0,0.0,0.0,0.0,0.0,0.0,0.0,0.0,0.0,0.0,0.0,0.0,0.0,0.0,0.0,0.0,0.0,0.0,0.0,0.0,0.0,0.0,0.0,-3.799,-3.8548,0.0,-3.7973,-3.8744,-3.9428,-3.9706,-4.0578,-4.1559,-4.2574,-4.2615,-4.3098,-4.413,-4.4164,-4.4421,-4.4934,-4.4934,-4.5346,-4.6185,-4.6571,-4.7106,-4.7736,-4.8114,-4.8306,-4.8343,-4.8893,-4.9132,-4.9169,-4.9701,-4.9114,-4.7939,-4.8489,-4.8526,-4.8379,-4.9187,-4.9479,-4.9536,0.0,0.0,0.0,0.0,0.0,0.0,0.0,0.0,0.0,0.0,0.0,0.0,0.0,0.0,0.0,0.0,0.0,0.0,0.0,0.0,0.0,0.0,0.0,0.0,0.0,0.0,0.0,0.0,0.0,0.0,0.0,0.0,0.0,0.0,0.0,0.0,0.0,0.0,0.0,0.0,0.0,0.0,-3.7506,0.0,0.0,0.0,0.0,0.0,0.0,0.0,0.0,0.0,0.0,0.0,0.0,0.0,0.0,0.0,0.0,0.0,0.0,0.0,0.0,0.0,0.0,0.0,0.0,0.0,0.0,0.0,0.0,0.0,0.0,0.0,0.0,0.0,0.0,0.0,-3.8717,-3.799,-3.8768,-3.9174,-3.87,-3.9741,-4.0696,-4.117,-4.2117,-4.2997,-4.3775,-4.3809,-4.4045,-4.4581,-4.4615,-4.4692,-4.4906,-4.5115,-4.5407,-4.579,-4.6641,-4.7298,-4.7843,-4.8455,-4.8893,-4.9187,-4.9738,-4.9994,-5.005,-5.0582,-5.016,-4.9205,-4.9774,-4.9994,-5.0068,-5.06,-5.0802,-5.0802,0.0,0.0,0.0,0.0,0.0,0.0,0.0,0.0,0.0,0.0,0.0,0.0,0.0,0.0,0.0,0.0,0.0,0.0,0.0,0.0,0.0,0.0,0.0,0.0,0.0,0.0,0.0,0.0,0.0,0.0,0.0,0.0,0.0,0.0,0.0,0.0,0.0,0.0,0.0,0.0,0.0,0.0,-3.8836,0.0,0.0,0.0,0.0,0.0,0.0,0.0,0.0,0.0,0.0,0.0,0.0,0.0,0.0,0.0,0.0,0.0,0.0,0.0,0.0,0.0,0.0,0.0,0.0,0.0,0.0,0.0,0.0,0.0,0.0,0.0,0.0,0.0,-3.8041,-3.8565,-3.8768,-3.8058,-3.9242,-4.0121,-4.013,-4.0806,-4.1863,-4.3291,-4.3409,-4.3792,-4.4564,-4.4615,-4.4615,-4.4615,-4.4615,-4.4879,-4.5459,-4.6046,-4.6359,-4.6383,-4.7674,-4.8393,-4.8616,-4.9334,-5.005,-5.0802,-5.0839,-5.0839,-5.0839,-5.0857,-5.0875,-5.0875,-5.0857,-5.0839,-5.0839,-5.0875,-5.0875,-5.0875,0.0,0.0,0.0,0.0,0.0,0.0,0.0,0.0,0.0,0.0,0.0,0.0,0.0,0.0,0.0,0.0,0.0,0.0,0.0,0.0,0.0,0.0,0.0,0.0,0.0,0.0,0.0,0.0,0.0,0.0,0.0,0.0,0.0,0.0,0.0,0.0,0.0,0.0,0.0,0.0,0.0,0.0,-3.8954,0.0,0.0,0.0,0.0,0.0,0.0,0.0,0.0,0.0,0.0,0.0,0.0,0.0,0.0,0.0,0.0,0.0,0.0,0.0,0.0,0.0,0.0,0.0,0.0,0.0,0.0,0.0,0.0,0.0,0.0,0.0,0.0,-3.892,-3.8717,-3.9326,-3.9723,-3.9537,-4.0324,-4.0899,-4.0899,-4.204,-4.2953,-4.3358,-4.3944,-4.4378,-4.4598,-4.4615,-4.4615,-4.4615,-4.4615,-4.4665,-4.4841,-4.5025,-4.532,-4.5757,-4.7175,-4.8115,-4.8634,-4.9898,-5.0582,-5.0839,-5.1426,-5.1665,-5.172,-5.2307,-5.2546,-5.2491,-5.1903,-5.1665,-5.1738,-5.2325,-5.2546,-5.2546,0.0,0.0,0.0,0.0,0.0,0.0,0.0,0.0,0.0,0.0,0.0,0.0,0.0,0.0,0.0,0.0,0.0,0.0,0.0,0.0,0.0,0.0,0.0,0.0,0.0,0.0,0.0,0.0,0.0,0.0,0.0,0.0,0.0,0.0,0.0,0.0,0.0,0.0,0.0,0.0,0.0,0.0,-3.9436,-3.9106,-3.887,-3.8664,-3.8362,-3.8116,-3.8023,-3.8307,0.0,0.0,0.0,0.0,0.0,0.0,0.0,0.0,0.0,0.0,0.0,0.0,0.0,0.0,0.0,0.0,0.0,0.0,0.0,0.0,0.0,0.0,0.0,0.0,-3.8971,-3.9469,-3.9469,-3.9842,-4.0214,-4.051,-4.0933,-4.1441,-4.2066,-4.2885,-4.3527,-4.3876,-4.4333,-4.4615,-4.4615,-4.4615,-4.4615,-4.4615,-4.4615,-4.4615,-4.4615,-4.5175,-4.5616,-4.6031,-4.774,-4.8908,-4.9653,-5.0775,-5.1481,-5.183,-5.2307,-5.2509,-5.2546,-5.3023,-5.3185,0.0,0.0,0.0,0.0,0.0,-5.3185,-5.3185,0.0,0.0,0.0,0.0,0.0,0.0,0.0,0.0,0.0,0.0,0.0,0.0,0.0,0.0,0.0,0.0,0.0,0.0,0.0,0.0,0.0,0.0,0.0,0.0,0.0,0.0,0.0,0.0,0.0,0.0,0.0,0.0,0.0,0.0,0.0,0.0,0.0,0.0,0.0,0.0,0.0,0.0,-4.0028,-3.9385,-3.9419,-3.9755,-3.9158,-3.9252,-3.9636,-3.9755,0.0,0.0,0.0,0.0,0.0,0.0,0.0,0.0,0.0,0.0,0.0,0.0,0.0,0.0,0.0,0.0,0.0,0.0,0.0,0.0,0.0,0.0,0.0,0.0,-3.9622,-4.013,-4.0214,-4.0231,-4.0485,-4.1119,-4.1356,-4.1965,-4.3257,-4.3477,-4.3842,-4.4564,-4.4615,-4.4615,-4.4615,0.0,0.0,0.0,0.0,-4.4767,-4.4852,-4.6035,-4.6705,-4.6864,-4.8811,-5.0167,-5.1031,-5.1782,-5.2527,-5.3185,-5.3185,-5.3185,-5.3185,-5.3185,-5.3185,-5.3185,-5.3185,-5.3185,-5.3185,-5.3185,-5.3185,-5.3185,0.0,0.0,0.0,0.0,0.0,0.0,0.0,0.0,0.0,0.0,0.0,0.0,0.0,0.0,0.0,0.0,0.0,0.0,0.0,0.0,0.0,0.0,0.0,0.0,0.0,0.0,0.0,0.0,0.0,0.0,0.0,0.0,0.0,0.0,0.0,0.0,0.0,0.0,0.0,0.0,0.0,0.0,-4.0079,-3.9943,-3.9951,-4.0073,-4.0377,-4.0162,-3.9883,-4.0756,-4.0422,-3.9633,-3.9856,0.0,0.0,0.0,0.0,0.0,0.0,0.0,0.0,0.0,0.0,0.0,0.0,0.0,0.0,0.0,0.0,0.0,0.0,0.0,0.0,-3.8971,-3.9622,-4.0316,-4.0899,-4.0984,-4.1035,-4.1187,-4.2269,-4.3071,-4.3358,-4.3995,-4.4418,-4.4598,-4.4615,-4.4615,-4.4615,-4.4615,-4.4886,-4.5466,-4.5483,-4.5771,-4.6363,-4.6627,-4.7044,-4.7609,0.0,0.0,-5.1031,-5.2367,-5.3059,-5.3185,-5.3185,-5.3185,-5.3185,-5.3185,-5.3185,-5.3185,-5.3185,-5.3185,-5.3185,-5.3185,-5.3185,-5.3185,0.0,0.0,0.0,0.0,0.0,0.0,0.0,0.0,0.0,0.0,0.0,0.0,0.0,0.0,0.0,0.0,0.0,0.0,0.0,0.0,0.0,0.0,0.0,0.0,0.0,0.0,0.0,0.0,0.0,0.0,0.0,0.0,0.0,0.0,0.0,0.0,0.0,0.0,0.0,0.0,0.0,0.0,-4.0121,-4.0392,-4.0696,-4.103,-4.1595,-4.1733,-4.1717,-4.2286,-4.205,-4.1523,-4.1359,-4.1143,-4.0709,0.0,0.0,0.0,0.0,0.0,0.0,0.0,0.0,0.0,0.0,0.0,0.0,0.0,0.0,-3.8024,0.0,0.0,-3.9106,-3.9503,-3.9859,-4.0367,-4.1102,-4.1525,-4.1897,-4.2269,-4.2936,-4.3572,-4.3961,-4.435,-4.4615,-4.4615,-4.4615,-4.4767,-4.5128,-4.5145,-4.5483,-4.6227,-4.6244,-4.643,-4.6786,-4.7175,-4.7889,-4.8907,-5.0019,-5.1088,-5.2124,-5.2859,-5.3185,-5.3185,-5.3185,-5.3185,-5.3185,-5.3185,-5.3185,-5.3185,-5.3185,-5.3185,-5.3185,-5.3185,-5.3185,-5.3185,0.0,0.0,0.0,0.0,0.0,0.0,0.0,0.0,0.0,0.0,0.0,0.0,0.0,0.0,0.0,0.0,0.0,0.0,0.0,0.0,0.0,0.0,0.0,0.0,0.0,0.0,0.0,0.0,0.0,0.0,0.0,0.0,0.0,0.0,0.0,0.0,0.0,0.0,0.0,0.0,0.0,0.0,-4.0171,-4.0703,-4.1201,-4.1707,-4.244,-4.2976,-4.3375,-4.3462,-4.3515,-4.3404,-4.2745,-4.2433,-4.1908,-3.9929,-3.9608,0.0,0.0,0.0,0.0,0.0,0.0,0.0,0.0,0.0,-3.7455,-3.8176,-3.8328,-3.8514,-3.9089,-3.9208,-3.9469,-4.0197,-4.0316,-4.0612,-4.1508,-4.2134,-4.2794,-4.3555,-4.3639,-4.3893,-4.4547,-4.4615,-4.4615,-4.4615,-4.4733,-4.506,-4.5669,-4.5838,-4.6261,-4.6989,-4.7005,-4.7073,-4.7225,-4.7834,-4.8747,-5.0047,-5.0751,-5.1777,-5.2999,-5.3124,-5.3185,-5.3185,-5.3185,-5.3185,-5.3185,-5.3185,-5.3185,-5.3185,-5.3185,-5.3185,-5.3185,-5.3185,-5.3185,-5.3185,0.0,0.0,0.0,0.0,0.0,0.0,0.0,0.0,0.0,0.0,0.0,0.0,0.0,0.0,0.0,0.0,0.0,0.0,0.0,0.0,0.0,0.0,0.0,0.0,0.0,0.0,0.0,0.0,0.0,0.0,0.0,0.0,0.0,0.0,0.0,0.0,0.0,0.0,0.0,0.0,0.0,0.0,-4.0171,-4.0703,-4.0949,-4.1155,-4.2302,-4.275,-4.2864,-4.3339,-4.3515,-4.3478,-4.3404,-4.2873,-4.2018,-4.06,0.0,-3.8288,-3.6806,-3.6753,-3.7359,-3.8325,-3.8174,-3.8132,0.0,0.0,-3.8954,-3.9706,-3.9859,-3.9893,-3.996,-3.9977,-4.0231,-4.0967,-4.1085,-4.1559,-4.2953,-4.3206,-4.3572,-4.4378,-4.4479,-4.4513,-4.4598,-4.4615,-4.4615,-4.4615,-4.5213,-4.5618,-4.5703,-4.6312,-4.7005,-4.7736,-4.78,-4.8105,-4.8748,-4.8849,-4.9287,-5.0105,-5.0779,-5.1494,-5.2247,-5.2915,-5.3185,-5.3185,-5.3185,-5.3185,-5.3185,-5.3185,-5.3185,-5.3185,-5.3185,-5.3185,-5.3185,-5.3185,-5.3185,-5.3185,0.0,0.0,0.0,0.0,0.0,0.0,0.0,0.0,0.0,0.0,0.0,0.0,0.0,0.0,0.0,0.0,0.0,0.0,0.0,0.0,0.0,0.0,0.0,0.0,0.0,0.0,0.0,0.0,0.0,0.0,0.0,0.0,0.0,0.0,0.0,0.0,0.0,0.0,0.0,0.0,0.0,0.0,-4.0171,-4.0703,-4.0831,-4.0822,-4.1646,-4.2158,0.0,0.0,-4.28,-4.28,-4.28,-4.2561,-4.1945,-4.0129,-3.9553,0.0,-3.9015,-3.819,-3.7802,0.0,-3.9152,-3.8781,-3.9662,-3.9418,-3.9191,-3.996,-4.0096,-4.0096,-4.0096,-4.0468,-4.0832,0.0,-4.1559,-4.2202,-4.324,-4.3392,-4.3707,-4.4513,-4.4615,-4.4615,-4.4615,-4.4976,-4.5229,-4.5229,-4.5923,-4.6532,-4.6972,-4.7276,-4.7784,-4.8528,-4.8545,-4.8697,-4.9001,-4.9001,-4.9346,-5.0039,-5.0342,-5.106,-5.2112,-5.2422,-5.2791,-5.3185,-5.3185,-5.3185,-5.3185,-5.3185,-5.3185,-5.3185,-5.3185,-5.3185,-5.3185,-5.3185,-5.3185,-5.3185,0.0,0.0,0.0,0.0,0.0,0.0,0.0,0.0,0.0,0.0,0.0,0.0,0.0,0.0,0.0,0.0,0.0,0.0,0.0,0.0,0.0,0.0,0.0,0.0,0.0,0.0,0.0,0.0,0.0,0.0,0.0,0.0,0.0,0.0,0.0,0.0,0.0,0.0,0.0,0.0,0.0,0.0,-4.0112,-4.0306,-4.0393,-4.0454,-4.1008,-4.1451,0.0,0.0,-4.175,-4.175,-4.175,-4.1604,-4.1063,-3.9211,-3.8842,-3.9134,-3.9673,0.0,0.0,-3.9953,-3.9825,-3.9399,-3.9723,-3.9559,-3.9445,-3.9994,-4.0096,-4.0163,-4.0383,-4.0832,-4.1339,-4.1745,-4.2252,-4.2861,-4.3623,-4.3741,-4.3944,-4.4547,-4.4784,-4.4919,-4.4919,-4.5382,-4.5788,-4.5991,-4.6684,-4.7344,-4.7855,-4.8075,-4.846,-4.8984,-4.9001,-4.9001,-4.9001,-4.9001,-4.9226,-4.9722,-4.9919,-5.0527,-5.1526,-5.1928,-5.2381,-5.2915,-5.3103,-5.3185,-5.3185,-5.3185,-5.3185,-5.3185,-5.3185,-5.3185,-5.3185,-5.3185,-5.3185,-5.3185,0.0,0.0,0.0,0.0,0.0,0.0,0.0,0.0,0.0,0.0,0.0,0.0,0.0,0.0,0.0,0.0,0.0,0.0,0.0,0.0,0.0,0.0,0.0,0.0,0.0,0.0,0.0,0.0,0.0,0.0,0.0,0.0,0.0,0.0,0.0,0.0,0.0,0.0,0.0,0.0,0.0,0.0,-4.0028,-3.9317,-3.9371,-3.9889,-4.05,0.0,0.0,0.0,-4.0366,-4.0366,-4.0366,-3.9824,0.0,-3.7945,-3.6741,0.0,0.0,0.0,-3.8201,-3.9416,-3.9908,-4.0062,-4.0087,-4.0079,-4.0079,-4.0096,-4.0096,-4.0333,-4.1035,-4.1187,-4.1677,-4.3088,-4.3341,-4.3656,-4.4462,-4.4564,-4.4581,-4.4615,-4.5229,-4.5669,0.0,-4.5703,-4.6007,-4.6701,-4.7462,-4.7872,-4.7889,-4.8595,-4.8984,-4.9001,-4.9001,-4.9001,-4.9001,-4.9001,-4.9001,-4.9032,-4.9693,-5.0033,-5.01,-5.1476,-5.2112,-5.2159,-5.2875,-5.3185,-5.3185,-5.3185,-5.3185,-5.3185,-5.3185,-5.3185,-5.3185,-5.3185,-5.3185,-5.3185,0.0,0.0,0.0,0.0,0.0,0.0,0.0,0.0,0.0,0.0,0.0,0.0,0.0,0.0,0.0,0.0,0.0,0.0,0.0,0.0,0.0,0.0,0.0,0.0,0.0,0.0,0.0,0.0,0.0,0.0,0.0,0.0,0.0,0.0,0.0,0.0,0.0,0.0,0.0,0.0,0.0,0.0,-3.9326,-3.9089,-3.8692,-3.8261,0.0,0.0,0.0,0.0,0.0,0.0,-3.904,0.0,0.0,-3.7146,-3.6598,-3.6598,-3.7512,0.0,-3.8834,-3.9725,-4.0042,-4.0096,-4.0096,-4.0096,-4.0096,-4.0096,-4.0096,-4.018,-4.0409,-4.1255,-4.2083,-4.2591,-4.3521,-4.4282,-4.4564,-4.4615,-4.4615,-4.4615,-4.5246,0.0,0.0,0.0,0.0,-4.7513,-4.8223,-4.8646,-4.8646,-4.8883,-4.9001,-4.9001,-4.9001,-4.9001,-4.9001,-4.9001,-4.9001,-4.9001,-4.9664,-5.0004,-5.0061,-5.1469,-5.1856,-5.1494,-5.268,-5.2915,-5.2513,-5.2999,-5.3185,-5.3185,-5.3185,-5.3185,-5.3185,-5.3185,-5.3185,-5.3185,0.0,0.0,0.0,0.0,0.0,0.0,0.0,0.0,0.0,0.0,0.0,0.0,0.0,0.0,0.0,0.0,0.0,0.0,0.0,0.0,0.0,0.0,0.0,0.0,0.0,0.0,0.0,0.0,0.0,0.0,0.0,0.0,0.0,0.0,0.0,0.0,0.0,0.0,0.0,0.0,0.0,0.0,-3.8582,-3.8294,-3.7802,0.0,0.0,0.0,0.0,0.0,0.0,0.0,0.0,-3.7559,-3.7279,-3.6711,-3.666,-3.7032,-3.8024,-3.8633,-3.9174,-3.9926,-4.0096,-4.0096,-4.0096,-4.0096,-4.018,-4.0426,-4.0282,-4.0265,-4.0807,-4.167,-4.2286,-4.2286,-4.3335,-4.4164,-4.4164,-4.4164,-4.4367,-4.4925,-4.5635,-4.638,0.0,0.0,0.0,-4.8308,-4.8731,-4.9001,-4.9001,-4.9001,-4.9001,-4.9001,-4.9001,-4.9001,-4.9001,-4.9001,-4.9001,-4.9001,-4.9449,-4.9652,-4.9664,-5.0832,-5.112,-5.077,-5.194,-5.233,-5.2136,-5.2599,-5.2959,-5.3185,-5.3185,-5.3185,-5.3185,-5.3185,-5.3185,-5.3185,0.0,0.0,0.0,0.0,0.0,0.0,0.0,0.0,0.0,0.0,0.0,0.0,0.0,0.0,0.0,0.0,0.0,0.0,0.0,0.0,0.0,0.0,0.0,0.0,0.0,0.0,0.0,0.0,0.0,0.0,0.0,0.0,0.0,0.0,0.0,0.0,0.0,0.0,0.0,0.0,0.0,0.0,-3.777,-3.7083,0.0,0.0,0.0,0.0,0.0,0.0,0.0,0.0,0.0,-3.6126,-3.5853,-3.6643,-3.688,-3.7218,-3.8616,-3.9022,-3.9208,-3.9926,-4.0096,-4.0096,-4.0096,-4.0096,-4.0316,-4.1001,-4.0578,-4.0536,0.0,0.0,-4.2286,-4.2286,-4.2963,-4.3443,-4.3443,-4.3443,-4.4001,0.0,0.0,0.0,0.0,0.0,0.0,-4.9001,0.0,-4.9001,-4.9001,-4.9001,-4.9001,-4.9001,-4.9001,-4.9001,-4.9001,-4.9001,-4.9001,-4.9001,-4.9001,-4.9001,-4.9032,-4.9693,-4.9976,-5.0004,-5.077,-5.1444,-5.2,-5.2071,-5.2513,-5.3143,-5.3185,-5.3185,-5.3185,-5.3185,-5.3185,-5.3185,0.0,0.0,0.0,0.0,0.0,0.0,0.0,0.0,0.0,0.0,0.0,0.0,0.0,0.0,0.0,0.0,0.0,0.0,0.0,0.0,0.0,0.0,0.0,0.0,0.0,0.0,0.0,0.0,0.0,0.0,0.0,0.0,0.0,0.0,0.0,0.0,0.0,0.0,0.0,0.0,0.0,0.0,-3.7043,0.0,0.0,0.0,0.0,0.0,0.0,0.0,0.0,0.0,0.0,-3.743,-3.7364,-3.7567,-3.8007,-3.8514,-3.8886,-3.9394,-3.9859,-4.0045,-4.0096,-4.0096,-4.0096,-4.0096,-4.0146,-4.035,-4.0231,-4.0214,0.0,0.0,0.0,-4.2286,-4.342,0.0,-4.4282,-4.4282,0.0,-4.5602,0.0,-4.709,-4.7821,-4.8578,0.0,0.0,-4.9001,-4.9001,-4.9001,-4.9001,-4.9001,-4.9001,-4.9001,-4.9001,-4.9001,-4.9001,-4.9001,-4.9001,-4.9001,-4.9001,-4.9032,-4.9693,-4.9722,-4.9299,-5.0572,-5.0876,-5.0635,-5.1667,-5.2224,-5.2445,-5.2999,-5.3185,-5.3185,-5.3185,-5.3185,-5.3185,0.0,0.0,0.0,0.0,0.0,0.0,0.0,0.0,0.0,0.0,0.0,0.0,0.0,0.0,0.0,0.0,0.0,0.0,0.0,0.0,0.0,0.0,0.0,0.0,0.0,0.0,0.0,0.0,0.0,0.0,0.0,0.0,0.0,0.0,0.0,0.0,0.0,0.0,0.0,0.0,0.0,0.0,0.0,0.0,0.0,0.0,0.0,0.0,0.0,0.0,0.0,-3.7347,-3.777,-3.7905,-3.7973,-3.8294,0.0,-3.9056,-3.9377,-3.9791,-4.0096,-4.0096,-4.0096,-4.0028,-3.9706,-3.9622,-3.9698,-4.002,-3.9834,0.0,-4.046,0.0,0.0,0.0,0.0,0.0,-4.4062,-4.4062,-4.4604,0.0,-4.6549,0.0,-4.8291,-4.8765,-4.9001,0.0,-4.9001,-4.9001,-4.9001,-4.9001,-4.9001,-4.9001,-4.9001,-4.9001,-4.9001,-4.9001,-4.9001,-4.9001,-4.9001,-4.9001,-4.9001,-4.9389,-4.9359,-4.9032,0.0,-5.0118,-5.0044,-5.0858,-5.1368,-5.1734,-5.2445,-5.2725,-5.2747,-5.3082,-5.3185,-5.3185,0.0,0.0,0.0,0.0,0.0,0.0,0.0,0.0,0.0,0.0,0.0,0.0,0.0,0.0,0.0,0.0,0.0,0.0,0.0,0.0,0.0,0.0,0.0,0.0,0.0,0.0,0.0,0.0,0.0,0.0,0.0,0.0,0.0,0.0,0.0,0.0,0.0,0.0,0.0,0.0,0.0,0.0,0.0,0.0,0.0,0.0,0.0,0.0,0.0,0.0,-3.7973,-3.8075,-3.8159,-3.8193,-3.8328,-3.8954,-3.914,-3.9276,-3.9943,-4.0096,-4.0096,-4.0096,-4.0096,-3.991,-3.9157,-3.8988,-3.914,-3.969,0.0,-3.9377,-4.0679,-4.1593,-4.1965,-4.1441,0.0,-4.3426,-4.3527,-4.3572,-4.4384,-4.6532,-4.6786,-4.7378,-4.8866,-4.9001,-4.9001,-4.9001,-4.9001,-4.9001,-4.9001,-4.9001,-4.9001,-4.9001,-4.9001,-4.9001,-4.9001,-4.9001,-4.9001,-4.9001,-4.9001,-4.9001,-4.9001,-4.9001,-4.9001,-4.9001,-4.9001,-4.9329,-4.9879,-4.9976,-5.038,-5.1034,-5.1692,-5.1976,-5.2065,-5.2787,-5.3042,-5.3082,0.0,0.0,0.0,0.0,0.0,0.0,0.0,0.0,0.0,0.0,0.0,0.0,0.0,0.0,0.0,0.0,0.0,0.0,0.0,0.0,0.0,0.0,0.0,0.0,0.0,0.0,0.0,0.0,0.0,0.0,0.0,0.0,0.0,0.0,0.0,0.0,0.0,0.0,0.0,0.0,0.0,0.0,0.0,0.0,0.0,0.0,0.0,0.0,0.0,0.0,-3.8311,-3.8903,-3.9537,-3.9723,-3.9757,-3.9876,-3.991,-3.9943,-4.0079,-4.0096,-4.0096,-4.0096,-4.0096,-3.991,-3.9157,-3.8988,0.0,0.0,-3.8667,-3.9073,-3.9326,-4.0476,-4.1542,-4.2016,0.0,0.0,0.0,0.0,-4.4976,0.0,0.0,0.0,0.0,0.0,0.0,0.0,0.0,-4.9001,-4.9001,-4.9001,-4.9001,-4.9001,-4.9001,-4.9001,-4.9001,-4.9001,-4.9001,-4.9001,-4.9001,-4.9001,-4.9001,-4.9001,-4.9001,-4.9001,-4.9001,0.0,-4.9212,-4.9763,-5.009,-5.0269,-5.0981,-5.1266,-5.1343,-5.2042,-5.2294,-5.2381,0.0,0.0,0.0,0.0,0.0,0.0,0.0,0.0,0.0,0.0,-3.1511,0.0,0.0,0.0,0.0,0.0,0.0,0.0,0.0,0.0,0.0,0.0,0.0,0.0,0.0,0.0,0.0,0.0,0.0,0.0,0.0,0.0,0.0,0.0,0.0,0.0,0.0,0.0,0.0,0.0,0.0,0.0,0.0,0.0,0.0,0.0,0.0,0.0,0.0,0.0,-3.8058,-3.9123,-3.9876,-4.0096,-4.0096,-4.0096,-4.0096,-4.0096,-4.0096,-4.0096,-4.0096,-4.0096,-4.0096,-3.9808,-3.8684,0.0,0.0,0.0,-3.7601,-3.8099,-3.8853,0.0,0.0,0.0,0.0,0.0,0.0,0.0,0.0,0.0,0.0,0.0,0.0,0.0,0.0,0.0,0.0,-4.9001,-4.9001,-4.9001,-4.9001,-4.9001,-4.9001,-4.9001,-4.9001,-4.9001,-4.9001,-4.9001,-4.9001,-4.9001,-4.9001,-4.9001,-4.9001,-4.9001,-4.9001,0.0,-4.9032,-4.9346,-4.9492,-4.9551,-5.0241,-5.0527,-5.0608,-5.1317,-5.1808,-5.2159,0.0,0.0,0.0,0.0,0.0,0.0,0.0,0.0,-3.1511,-3.1511,-3.1511,-3.1511,-3.1511,-3.1511,0.0,0.0,0.0,0.0,0.0,0.0,0.0,0.0,0.0,0.0,0.0,0.0,0.0,0.0,0.0,0.0,0.0,0.0,0.0,0.0,0.0,0.0,0.0,0.0,0.0,0.0,0.0,0.0,0.0,0.0,0.0,0.0,0.0,0.0,0.0,0.0,-3.7574,-3.8674,-3.9402,-3.974,-3.9859,-3.9859,-3.9859,-3.991,-4.0062,-4.0096,-4.0096,-4.0096,-4.0096,-3.9723,-3.8244,-3.7905,0.0,0.0,-3.6694,-3.7202,-3.8514,0.0,-4.0172,0.0,0.0,0.0,0.0,0.0,0.0,0.0,0.0,0.0,0.0,0.0,0.0,0.0,0.0,0.0,-4.9001,-4.9001,-4.9001,-4.9001,-4.9001,-4.9001,-4.9001,-4.9001,-4.9001,-4.9001,-4.9001,-4.9001,-4.9001,-4.9001,-4.9001,-4.9001,-4.9001,0.0,0.0,-4.9001,-4.9001,-4.9046,-4.9593,-4.9809,-4.9879,-5.0599,-5.1215,-5.1692,0.0,0.0,0.0,0.0,0.0,0.0,0.0,0.0,-3.1511,-3.1511,-3.1511,-3.1511,-3.1511,-3.1511,0.0,0.0,0.0,0.0,0.0,0.0,0.0,0.0,0.0,0.0,0.0,0.0,0.0,-3.2695,-3.2734,0.0,0.0,0.0,0.0,0.0,0.0,0.0,0.0,0.0,0.0,0.0,0.0,0.0,0.0,0.0,0.0,0.0,0.0,0.0,0.0,0.0,0.0,-3.7134,-3.7872,-3.8565,-3.9089,-3.9089,0.0,0.0,-3.9926,-4.0096,-4.0096,-4.0096,-4.0096,-3.9723,-3.8244,0.0,0.0,-3.6005,-3.6282,-3.7049,-3.7855,-3.8599,-3.9563,0.0,0.0,0.0,0.0,0.0,0.0,0.0,0.0,0.0,0.0,0.0,0.0,0.0,0.0,0.0,-4.9001,-4.9001,-4.9001,-4.9001,-4.9001,-4.9001,-4.9001,-4.9001,-4.9001,-4.9001,-4.9001,-4.9001,-4.9001,-4.9001,-4.9001,-4.9001,-4.9001,0.0,0.0,-4.9001,-4.9001,-4.9001,-4.9077,-4.9077,-4.9182,-4.985,-5.0129,-5.039,0.0,0.0,0.0,0.0,0.0,0.0,0.0,-3.1511,-3.1511,-3.1511,-3.1511,-3.1511,-3.1511,-3.1511,0.0,0.0,0.0,0.0,0.0,0.0,0.0,0.0,0.0,0.0,0.0,0.0,0.0,-3.1923,-3.2382,0.0,0.0,0.0,0.0,0.0,0.0,-3.4988,0.0,0.0,0.0,0.0,0.0,0.0,0.0,0.0,0.0,0.0,0.0,0.0,0.0,0.0,0.0,0.0,-3.6586,-3.7043,0.0,0.0,-3.8988,-3.9157,-3.991,-4.0096,-4.0096,-4.0096,-3.9774,-3.9157,-3.8142,0.0,-3.6924,-3.5819,-3.5836,-3.6315,-3.7077,-3.7838,-3.8684,0.0,0.0,0.0,0.0,0.0,0.0,0.0,0.0,0.0,0.0,0.0,0.0,0.0,0.0,0.0,-4.9001,-4.9001,-4.9001,-4.9001,-4.9001,-4.9001,-4.9001,-4.9001,-4.9001,-4.9001,-4.9001,-4.9001,-4.9001,-4.9001,-4.9001,-4.9001,-4.9001,0.0,0.0,-4.9001,-4.9001,-4.9001,-4.9001,-4.9001,-4.9032,-4.9316,-4.9634,-5.0072,0.0,0.0,0.0,0.0,0.0,0.0,-3.1511,-3.1511,-3.1511,-3.1511,-3.1511,-3.1511,-3.1511,-3.1511,-3.1511,-3.1511,0.0,0.0,0.0,0.0,0.0,0.0,0.0,0.0,0.0,0.0,0.0,-3.1511,-3.2007,-3.2272,0.0,0.0,-3.3313,-3.3339,0.0,0.0,0.0,0.0,0.0,0.0,0.0,0.0,0.0,0.0,0.0,0.0,0.0,0.0,0.0,0.0,0.0,0.0,0.0,0.0,0.0,0.0,-3.8497,-3.8836,-3.9571,-3.9943,-4.0096,-4.0096,-3.9554,-3.8802,0.0,0.0,-3.6552,-3.5752,-3.56,-3.5859,-3.666,-3.7398,-3.8142,0.0,0.0,0.0,0.0,0.0,0.0,0.0,0.0,0.0,0.0,0.0,0.0,0.0,0.0,0.0,-4.9001,-4.9001,-4.9001,-4.9001,-4.9001,-4.9001,-4.9001,-4.9001,-4.9001,-4.9001,-4.9001,-4.9001,-4.9001,-4.9001,-4.9001,-4.9001,-4.9001,0.0,0.0,-4.9001,-4.9001,-4.9001,-4.9001,-4.9001,-4.9001,-4.9001,-4.9316,-4.9722,0.0,0.0,0.0,0.0,0.0,0.0,0.0,-3.1511,-3.1511,-3.1511,-3.1511,-3.1511,-3.1511,-3.1511,-3.1511,-3.1511,0.0,0.0,0.0,0.0,0.0,0.0,0.0,0.0,0.0,0.0,0.0,-3.1511,-3.1511,-3.1496,-3.1524,-3.2287,-3.2614,-3.2641,0.0,0.0,0.0,0.0,0.0,0.0,0.0,0.0,0.0,0.0,0.0,0.0,0.0,0.0,0.0,0.0,0.0,0.0,0.0,0.0,0.0,0.0,-3.733,-3.8075,-3.8802,-3.9529,-4.0096,-4.0096,-3.9554,-3.8802,0.0,0.0,-3.6552,-3.5752,-3.56,-3.5859,-3.666,-3.7398,-3.8142,-3.887,0.0,0.0,0.0,0.0,0.0,0.0,0.0,0.0,0.0,0.0,0.0,0.0,0.0,0.0,-4.9001,-4.9001,-4.9001,-4.9001,-4.9001,-4.9001,-4.9001,-4.9001,-4.9001,-4.9001,-4.9001,-4.9001,-4.9001,-4.9001,-4.9001,-4.9001,0.0,0.0,0.0,-4.9001,-4.9001,-4.9001,-4.9001,-4.9001,-4.9001,-4.9001,-4.9001,-4.9107,0.0,0.0,0.0,0.0,0.0,0.0,0.0,0.0,-3.1511,-3.1511,-3.1511,-3.1511,-3.1511,-3.1511,-3.1511,-3.1511,0.0,0.0,0.0,0.0,0.0,0.0,0.0,0.0,0.0,0.0,0.0,-3.1511,-3.1511,-3.1511,-3.1511,-3.1739,-3.1853,-3.1881,-3.2598,0.0,0.0,0.0,0.0,0.0,0.0,0.0,0.0,0.0,0.0,0.0,0.0,0.0,0.0,0.0,0.0,0.0,0.0,0.0,0.0,0.0,0.0,0.0,-3.8058,-3.8413,-3.8599,-3.8599,-3.8024,-3.7455,-3.7218,0.0,-3.591,-3.565,-3.56,-3.5667,-3.5943,-3.7043,-3.799,-3.821,-3.9276,0.0,0.0,0.0,0.0,0.0,0.0,0.0,0.0,0.0,0.0,0.0,0.0,0.0,-4.9001,-4.9001,-4.9001,-4.9001,-4.9001,-4.9001,-4.9001,-4.9001,-4.9001,-4.9001,-4.9001,-4.9001,-4.9001,-4.9001,-4.9001,0.0,0.0,0.0,0.0,-4.9001,-4.9001,-4.9001,-4.9001,-4.9001,-4.9001,-4.9001,-4.9001,-4.9032,0.0,0.0,0.0,0.0,0.0,0.0,0.0,0.0,-3.1511,-3.1511,-3.1511,-3.1511,-3.1511,-3.1511,-3.1511,-3.1511,0.0,0.0,0.0,0.0,0.0,0.0,0.0,0.0,0.0,0.0,0.0,0.0,-3.1511,-3.1511,-3.1511,-3.1511,-3.1511,-3.1524,-3.1979,0.0,0.0,0.0,0.0,0.0,0.0,0.0,-3.3633,0.0,0.0,0.0,0.0,0.0,0.0,0.0,0.0,0.0,0.0,0.0,0.0,0.0,-3.5566,0.0,0.0,-3.7702,-3.7905,-3.7905,-3.7347,0.0,0.0,0.0,-3.56,-3.56,-3.56,-3.5684,-3.6011,-3.706,-3.799,-3.8278,-3.9334,0.0,0.0,0.0,0.0,0.0,0.0,0.0,0.0,0.0,0.0,0.0,0.0,0.0,-4.9001,-4.9001,-4.9001,-4.9001,-4.9001,-4.9001,-4.9001,-4.9001,-4.9001,-4.9001,-4.9001,-4.9001,-4.9001,-4.9001,-4.9001,0.0,0.0,0.0,0.0,-4.9001,-4.9001,-4.9001,-4.9001,-4.9001,-4.9001,-4.9001,-4.9001,-4.9001,0.0,0.0,0.0,0.0,0.0,0.0,0.0,0.0,0.0,0.0,0.0,-3.1511,-3.1511,-3.1511,0.0,0.0,0.0,0.0,0.0,0.0,0.0,0.0,0.0,0.0,0.0,0.0,0.0,-3.1511,-3.1511,-3.1511,-3.1511,-3.1511,-3.1511,-3.1511,-3.1511,0.0,0.0,0.0,0.0,0.0,0.0,0.0,0.0,0.0,0.0,0.0,0.0,0.0,0.0,0.0,0.0,0.0,0.0,0.0,0.0,0.0,0.0,0.0,0.0,0.0,0.0,0.0,0.0,0.0,0.0,0.0,0.0,0.0,0.0,-3.5774,-3.6637,-3.7374,-3.8094,-3.887,0.0,0.0,0.0,0.0,0.0,0.0,0.0,0.0,0.0,0.0,0.0,0.0,0.0,0.0,-4.9001,-4.9001,-4.9001,-4.9001,-4.9001,-4.9001,-4.9001,-4.9001,-4.9001,-4.9001,-4.9001,-4.9001,-4.9001,-4.9001,-4.9001,0.0,0.0,0.0,0.0,-4.9001,-4.9001,-4.9001,-4.9001,-4.9001,-4.9001,-4.9001,-4.9001,-4.9001,0.0,0.0,0.0,0.0,0.0,0.0,0.0,0.0,0.0,0.0,0.0,-3.1511,-3.1511,0.0,0.0,0.0,0.0,0.0,0.0,0.0,0.0,0.0,0.0,0.0,0.0,0.0,0.0,-3.1511,-3.1511,-3.1511,-3.1511,-3.1511,-3.1511,-3.1511,-3.1511,0.0,0.0,0.0,0.0,0.0,0.0,0.0,0.0,0.0,0.0,0.0,-3.3417,-3.371,0.0,0.0,0.0,0.0,0.0,0.0,0.0,0.0,-3.3836,-3.3894,-3.4248,0.0,-3.5497,-3.5992,-3.6005,-3.5893,0.0,0.0,0.0,0.0,0.0,0.0,0.0,0.0,0.0,0.0,0.0,0.0,0.0,0.0,0.0,0.0,0.0,0.0,0.0,0.0,0.0,0.0,0.0,-4.9001,-4.9001,-4.9001,-4.9001,-4.9001,-4.9001,-4.9001,-4.9001,-4.9001,-4.9001,-4.9001,-4.9001,-4.9001,-4.9001,-4.9001,-4.9001,0.0,0.0,0.0,-4.9001,-4.9001,-4.9001,-4.9001,-4.9001,-4.9001,-4.9001,-4.9001,-4.9001,-4.9001,0.0,0.0,0.0,0.0,0.0,0.0,0.0,0.0,0.0,0.0,0.0,0.0,0.0,0.0,0.0,0.0,0.0,0.0,0.0,0.0,0.0,0.0,0.0,0.0,0.0,0.0,0.0,0.0,0.0,-3.1511,-3.1511,-3.1511,-3.1511,-3.1511,-3.1511,0.0,0.0,0.0,0.0,0.0,-3.1511,0.0,0.0,0.0,0.0,0.0,-3.2516,-3.2853,0.0,-3.3145,-3.3145,-3.3145,0.0,0.0,0.0,0.0,-3.3145,-3.3224,-3.3521,-3.4087,-3.4688,-3.5052,-3.5144,-3.5144,0.0,0.0,0.0,0.0,0.0,0.0,0.0,0.0,0.0,0.0,0.0,0.0,0.0,0.0,0.0,0.0,0.0,0.0,0.0,0.0,0.0,0.0,0.0,-4.9001,-4.9001,-4.9001,-4.9001,-4.9001,-4.9001,-4.9001,-4.9001,-4.9001,-4.9001,-4.9001,-4.9001,-4.9001,-4.9001,-4.9001,-4.9001,0.0,0.0,0.0,-4.9001,-4.9001,-4.9001,-4.9001,-4.9001,-4.9001,-4.9001,-4.9001,-4.9001,-4.9001,0.0,0.0,0.0,0.0,0.0,0.0,0.0,0.0,0.0,0.0,0.0,0.0,0.0,0.0,0.0,0.0,0.0,0.0,0.0,0.0,0.0,0.0,0.0,0.0,0.0,0.0,0.0,0.0,0.0,0.0,0.0,0.0,-3.1511,-3.1511,-3.1511,0.0,0.0,0.0,0.0,0.0,-3.1511,0.0,0.0,0.0,0.0,0.0,0.0,0.0,0.0,-3.2437,-3.2437,-3.2437,-3.2437,0.0,0.0,0.0,0.0,0.0,-3.313,-3.385,-3.4423,-3.4423,-3.4455,-3.4455,0.0,0.0,0.0,0.0,0.0,0.0,0.0,0.0,0.0,0.0,0.0,0.0,0.0,0.0,0.0,0.0,0.0,0.0,0.0,0.0,0.0,0.0,0.0,-4.9001,-4.9001,-4.9001,-4.9001,-4.9001,-4.9001,-4.9001,-4.9001,-4.9001,-4.9001,-4.9001,-4.9001,-4.9001,-4.9001,-4.9001,-4.9001,-4.9001,0.0,0.0,-4.9001,-4.9001,-4.9001,-4.9001,-4.9001,-4.9001,-4.9001,-4.9001,-4.9001,-4.9001,0.0,0.0,0.0,0.0,0.0,0.0,0.0,0.0,0.0,0.0,0.0,0.0,0.0,0.0,0.0,0.0,0.0,0.0,0.0,0.0,0.0,0.0,0.0,0.0,0.0,0.0,0.0,0.0,0.0,0.0,-3.1511,-3.1511,-3.1511,-3.1511,-3.1511,-3.1511,-3.1511,-3.1511,-3.1511,-3.1511,-3.1511,0.0,0.0,0.0,0.0,0.0,0.0,0.0,0.0,-3.1668,-3.1668,-3.1668,-3.1668,0.0,0.0,0.0,0.0,0.0,-3.1781,-3.2739,-3.3677,-3.3726,-3.3761,-3.3761,0.0,0.0,0.0,0.0,0.0,0.0,0.0,0.0,0.0,0.0,0.0,0.0,0.0,0.0,0.0,0.0,0.0,0.0,0.0,0.0,0.0,0.0,0.0,-4.9001,-4.9001,-4.9001,-4.9001,-4.9001,-4.9001,-4.9001,-4.9001,-4.9001,-4.9001,-4.9001,-4.9001,-4.9001,-4.9001,-4.9001,-4.9001,-4.9001,0.0,-4.9001,-4.9001,-4.9001,-4.9001,-4.9001,-4.9001,-4.9001,-4.9001,-4.9001,-4.9001,-4.9001,0.0,0.0,0.0,0.0,0.0,0.0,0.0,0.0,0.0,0.0,0.0,0.0,0.0,0.0,0.0,0.0,0.0,0.0,0.0,0.0,0.0,0.0,0.0,0.0,0.0,0.0,0.0,0.0,0.0,-3.1511,-3.1511,-3.1511,-3.1511,-3.1511,0.0,-3.1511,-3.1511,-3.1511,-3.1511,-3.1511,0.0,0.0,0.0,0.0,0.0,0.0,0.0,0.0,0.0,0.0,-3.1511,-3.1511,-3.1511,0.0,0.0,0.0,0.0,0.0,-3.1511,-3.195,-3.2505,-3.2918,-3.3556,-3.4097,-3.4097,0.0,0.0,0.0,0.0,0.0,0.0,0.0,0.0,0.0,0.0,0.0,0.0,0.0,0.0,0.0,0.0,0.0,0.0,0.0,0.0,0.0,0.0,0.0,-4.9001,-4.9001,-4.9001,-4.9001,-4.9001,-4.8815,-4.8426,-4.8426,-4.8426,-4.8426,-4.8426,-4.8426,-4.8426,-4.8426,-4.8629,-4.9001,0.0,-4.9001,-4.9001,-4.9001,-4.9001,-4.9001,-4.9001,-4.9001,-4.9001,-4.9001,-4.9001,-4.9001,0.0,0.0,0.0,0.0,0.0,0.0,0.0,0.0,0.0,0.0,0.0,0.0,0.0,0.0,0.0,0.0,0.0,0.0,0.0,0.0,0.0,0.0,0.0,0.0,0.0,0.0,-3.1511,-3.1511,-3.1511,-3.1511,-3.1511,-3.1511,-3.1511,-3.1511,0.0,-3.1511,-3.1511,-3.1511,-3.1511,-3.1511,0.0,0.0,0.0,0.0,0.0,0.0,0.0,0.0,0.0,0.0,0.0,0.0,0.0,0.0,0.0,-3.1511,-3.1511,-3.1511,-3.1511,-3.1615,-3.1854,-3.2363,0.0,-3.388,-3.4187,0.0,0.0,0.0,0.0,0.0,0.0,0.0,0.0,0.0,0.0,0.0,0.0,0.0,0.0,0.0,0.0,0.0,0.0,0.0,0.0,0.0,0.0,0.0,-4.9001,-4.9001,-4.9001,-4.9001,-4.8832,-4.8477,-4.7889,-4.775,-4.7618,-4.7618,-4.7618,-4.7618,-4.7618,-4.7618,-4.7953,-4.8477,-4.8477,-4.8578,-4.8748,-4.8748,-4.8849,-4.9001,-4.9001,-4.9001,-4.9001,-4.9001,-4.9001,-4.9001,0.0,0.0,0.0,0.0,0.0,0.0,0.0,0.0,0.0,0.0,0.0,0.0,0.0,0.0,0.0,0.0,0.0,0.0,0.0,0.0,0.0,0.0,0.0,0.0,0.0,-3.1511,-3.1511,-3.1511,-3.1511,-3.1511,-3.1511,-3.1511,-3.1511,-3.1511,0.0,-3.1511,-3.1511,-3.1511,-3.1511,-3.1511,-3.1511,0.0,0.0,0.0,0.0,0.0,0.0,0.0,0.0,0.0,0.0,0.0,0.0,0.0,-3.1511,-3.1511,-3.1511,-3.1511,-3.1511,-3.1944,-3.2452,-3.2497,0.0,0.0,-3.3306,-3.3051,0.0,0.0,0.0,0.0,0.0,0.0,0.0,0.0,0.0,0.0,0.0,0.0,0.0,0.0,0.0,0.0,0.0,0.0,0.0,0.0,0.0,0.0,-4.9001,-4.9001,-4.9001,-4.9001,-4.8359,-4.7939,-4.7889,-4.7225,-4.687,-4.687,-4.687,-4.687,-4.687,-4.687,-4.6904,-4.6955,-4.6955,-4.7344,-4.7973,-4.7973,-4.8392,-4.9001,-4.9001,-4.9001,-4.9001,-4.9001,-4.9001,-4.9001,0.0,0.0,0.0,0.0,0.0,0.0,0.0,0.0,0.0,0.0,0.0,0.0,0.0,0.0,0.0,0.0,0.0,0.0,0.0,0.0,0.0,0.0,0.0,-3.1511,-3.1511,-3.1511,-3.1511,-3.1511,-3.1511,-3.1511,-3.1511,-3.1511,0.0,0.0,0.0,-3.1511,-3.1511,-3.1511,-3.1511,-3.1511,-3.1511,-3.1511,0.0,0.0,0.0,0.0,0.0,0.0,0.0,0.0,-3.1511,0.0,0.0,0.0,-3.1511,-3.1511,-3.1511,-3.1511,-3.1511,-3.1989,-3.2512,-3.2512,0.0,0.0,0.0,0.0,0.0,0.0,0.0,0.0,0.0,0.0,0.0,0.0,0.0,0.0,0.0,0.0,0.0,0.0,0.0,0.0,0.0,0.0,0.0,0.0,0.0,0.0,-4.9001,-4.9001,-4.9001,-4.9001,-4.8261,-4.7699,-4.7225,-4.6481,-4.5889,-4.5461,-4.5889,-4.6126,-4.6126,-4.6126,-4.6363,-4.6786,-4.6786,-4.6955,-4.7225,-4.7225,-4.7665,-4.8376,-4.8832,-4.9001,-4.9001,-4.9001,-4.9001,-4.9001,0.0,0.0,0.0,0.0,0.0,0.0,0.0,0.0,0.0,0.0,0.0,0.0,0.0,0.0,0.0,0.0,0.0,0.0,0.0,0.0,0.0,0.0,0.0,-3.1511,-3.1511,-3.1511,-3.1511,-3.1511,-3.1511,-3.1511,-3.1511,0.0,0.0,0.0,0.0,-3.1511,-3.1511,-3.1511,-3.1511,-3.1511,-3.1511,-3.1511,0.0,0.0,0.0,0.0,0.0,0.0,0.0,0.0,0.0,0.0,0.0,0.0,0.0,0.0,-3.1511,-3.1555,-3.1765,-3.2138,-3.2557,0.0,0.0,0.0,0.0,0.0,0.0,0.0,0.0,0.0,0.0,0.0,0.0,0.0,0.0,0.0,0.0,0.0,0.0,0.0,0.0,0.0,0.0,0.0,0.0,0.0,0.0,0.0,0.0,-4.9001,-4.89,-4.8663,-4.7953,-4.7208,-4.6447,-4.572,-4.5094,-4.4615,-4.5111,-4.5348,-4.5348,-4.5348,-4.5618,-4.6092,-4.6092,-4.6227,-4.6447,-4.6447,-4.7022,-4.7939,-4.8477,-4.8798,-4.9001,-4.9001,-4.9001,-4.9001,0.0,0.0,0.0,0.0,0.0,0.0,0.0,0.0,0.0,0.0,0.0,0.0,0.0,0.0,0.0,0.0,0.0,0.0,0.0,0.0,0.0,0.0,0.0,-3.1511,-3.1511,-3.1511,-3.1511,-3.1511,-3.1511,-3.1511,-3.1511,-3.1511,0.0,0.0,0.0,-3.1511,-3.1511,-3.1511,-3.1511,-3.1511,-3.1511,-3.1511,-3.1511,0.0,0.0,0.0,0.0,0.0,0.0,0.0,-3.1511,0.0,0.0,0.0,0.0,0.0,-3.1496,-3.1645,-3.2303,-3.2512,-3.2677,0.0,0.0,0.0,0.0,0.0,0.0,0.0,0.0,0.0,0.0,0.0,0.0,0.0,0.0,0.0,0.0,0.0,0.0,0.0,0.0,0.0,0.0,0.0,0.0,0.0,0.0,0.0,0.0,-4.9001,-4.8663,-4.7906,-4.7175,-4.643,-4.572,-4.4987,-4.4615,-4.4615,-4.4615,-4.4615,-4.4615,-4.4615,-4.4615,-4.4615,-4.4615,-4.4993,-4.5703,-4.5703,-4.6566,-4.7872,-4.7889,-4.8359,-4.8984,-4.9001,-4.9001,-4.9001,0.0,0.0,0.0,0.0,0.0,0.0,0.0,0.0,0.0,0.0,0.0,0.0,0.0,0.0,0.0,0.0,0.0,0.0,0.0,0.0,0.0,0.0,0.0,0.0,0.0,0.0,-3.1511,-3.1511,-3.1511,-3.1511,0.0,0.0,0.0,-3.1511,0.0,-3.1511,-3.1511,-3.1511,-3.1511,-3.1511,-3.1511,-3.1511,-3.1511,0.0,0.0,0.0,0.0,0.0,0.0,0.0,0.0,0.0,0.0,0.0,0.0,0.0,-3.1122,-3.154,-3.1735,-3.2497,0.0,0.0,0.0,0.0,0.0,0.0,0.0,0.0,0.0,0.0,0.0,0.0,0.0,0.0,0.0,0.0,0.0,0.0,0.0,0.0,0.0,0.0,0.0,0.0,0.0,0.0,0.0,0.0,0.0,-4.8138,-4.8139,-4.7889,-4.6684,-4.5923,-4.5703,-4.4987,-4.4615,-4.4615,-4.4615,-4.4615,-4.4615,-4.4615,-4.4615,-4.4615,-4.4615,-4.4733,-4.4987,-4.5483,-4.5974,-4.6464,-4.7483,-4.8024,-4.8308,-4.8815,-4.9001,-4.9001,0.0,0.0,0.0,0.0,0.0,0.0,0.0,0.0,0.0,0.0,0.0,0.0,0.0,0.0,0.0,0.0,0.0,0.0,0.0,0.0,0.0,0.0,0.0,0.0,0.0,-3.1511,-3.1511,0.0,0.0,0.0,0.0,0.0,-3.1511,-3.1511,0.0,-3.1511,-3.1511,-3.1511,-3.1511,-3.1511,-3.1511,-3.1511,-3.1511,0.0,0.0,0.0,0.0,0.0,0.0,0.0,0.0,0.0,0.0,0.0,0.0,-3.127,-3.1376,-3.1675,-3.2452,0.0,0.0,0.0,0.0,0.0,0.0,0.0,0.0,0.0,0.0,0.0,0.0,0.0,0.0,0.0,0.0,0.0,0.0,0.0,0.0,0.0,0.0,0.0,0.0,0.0,0.0,0.0,0.0,0.0,0.0,-4.7446,-4.7368,-4.7449,-4.6329,-4.5568,-4.5263,-4.4835,-4.4615,-4.4615,-4.4615,-4.4615,-4.4615,-4.4615,-4.4615,-4.4615,-4.4615,-4.4615,-4.4632,-4.5077,-4.5432,-4.5821,-4.7005,-4.7618,-4.7973,-4.8731,-4.9001,-4.9001,0.0,0.0,0.0,0.0,0.0,0.0,0.0,0.0,0.0,0.0,0.0,0.0,0.0,0.0,0.0,0.0,0.0,0.0,0.0,0.0,0.0,0.0,0.0,0.0,0.0,0.0,0.0,0.0,0.0,0.0,0.0,0.0,-3.1511,-3.1511,0.0,-3.1511,-3.1511,-3.1511,-3.1511,-3.1511,-3.1511,-3.1511,-3.1511,-3.1511,0.0,0.0,0.0,0.0,0.0,0.0,0.0,0.0,0.0,0.0,0.0,-3.1988,-3.1959,-3.1989,0.0,0.0,0.0,0.0,0.0,0.0,0.0,0.0,0.0,0.0,0.0,0.0,0.0,0.0,0.0,0.0,0.0,0.0,0.0,0.0,0.0,0.0,0.0,0.0,0.0,0.0,0.0,0.0,0.0,0.0,0.0,-4.6586,-4.6263,-4.6477,-4.5753,-4.5046,-4.4355,-4.4355,-4.4412,-4.4485,-4.4485,-4.4514,-4.4615,-4.4615,-4.4615,-4.4615,-4.4615,-4.4615,-4.4615,-4.4615,-4.4993,-4.5686,-4.6481,-4.7208,-4.7889,-4.8714,-4.9001,-4.9001,0.0,0.0,0.0,0.0,0.0,0.0,0.0,0.0,0.0,0.0,0.0,0.0,0.0,0.0,0.0,0.0,0.0,0.0,0.0,0.0,0.0,0.0,0.0,0.0,0.0,0.0,0.0,0.0,0.0,0.0,0.0,0.0,0.0,-3.1511,0.0,-3.1511,-3.1511,-3.1511,-3.1511,-3.1511,-3.1511,-3.1511,-3.1511,-3.1511,-3.1511,0.0,0.0,0.0,0.0,0.0,0.0,0.0,-3.0896,-3.0972,-3.1241,-3.1016,-3.1555,-3.2392,0.0,0.0,0.0,0.0,0.0,0.0,0.0,0.0,0.0,0.0,0.0,0.0,0.0,0.0,0.0,0.0,0.0,0.0,0.0,0.0,0.0,0.0,0.0,0.0,0.0,0.0,0.0,0.0,0.0,0.0,-4.4598,-4.4124,-4.3832,-4.388,-4.3167,-4.2729,-4.2552,-4.2567,-4.2909,0.0,-4.3591,-4.3948,-4.4615,-4.4615,-4.4615,-4.4615,-4.4615,-4.4615,-4.4615,-4.4615,-4.4699,-4.4987,-4.6278,-4.6887,-4.7192,-4.8511,-4.9001,-4.9001,0.0,0.0,0.0,0.0,0.0,0.0,0.0,0.0,0.0,0.0,0.0,0.0,0.0,0.0,0.0,0.0,0.0,0.0,0.0,0.0,0.0,0.0,0.0,0.0,0.0,0.0,0.0,0.0,0.0,0.0,0.0,0.0,0.0,-3.1511,0.0,-3.1511,-3.1511,-3.1511,-3.1511,-3.1511,-3.1511,-3.1511,-3.1466,-3.1137,-3.1017,-3.1017,-3.1017,0.0,0.0,0.0,0.0,0.0,0.0,0.0,-3.1496,-3.148,-3.1749,-3.2228,0.0,0.0,0.0,0.0,0.0,0.0,0.0,0.0,0.0,0.0,0.0,0.0,0.0,0.0,0.0,0.0,0.0,0.0,0.0,0.0,0.0,0.0,0.0,0.0,0.0,0.0,0.0,0.0,0.0,-4.2855,-4.3299,-4.2745,-4.2639,-4.3087,-4.2382,-4.2189,-4.2614,-4.2221,-4.2645,-4.3919,-4.3502,-4.3756,-4.4615,-4.4615,-4.4615,-4.4615,-4.4615,-4.4615,-4.4615,-4.4615,-4.4615,-4.475,-4.621,-4.6786,-4.6972,-4.846,-4.9001,-4.9001,0.0,0.0,0.0,0.0,0.0,0.0,0.0,0.0,0.0,0.0,0.0,0.0,0.0,0.0,0.0,0.0,0.0,0.0,0.0,0.0,0.0,0.0,0.0,0.0,0.0,0.0,0.0,0.0,0.0,0.0,0.0,0.0,0.0,-3.1511,0.0,-3.1511,-3.1496,-3.1376,-3.1331,-3.1316,-3.1212,-3.1167,-3.1107,-3.0567,-3.0342,-3.0342,-3.0342,-3.0342,-3.0432,-3.0972,0.0,0.0,0.0,0.0,-3.1451,-3.2123,-3.2004,-3.2034,0.0,0.0,0.0,0.0,0.0,0.0,0.0,0.0,0.0,0.0,0.0,0.0,0.0,0.0,0.0,0.0,0.0,0.0,0.0,0.0,0.0,0.0,0.0,0.0,0.0,0.0,0.0,0.0,0.0,-4.1549,-4.233,-4.1698,-4.1662,-4.2449,-4.1861,-4.1901,-4.263,-4.1901,-4.2347,-4.3931,-4.3366,-4.3621,-4.4598,-4.444,-4.4457,-4.4598,-4.444,-4.444,-4.4615,-4.4615,-4.4615,-4.4733,-4.6075,-4.6684,-4.6955,-4.8308,-4.89,-4.9001,0.0,0.0,0.0,0.0,0.0,0.0,0.0,0.0,0.0,0.0,0.0,0.0,0.0,0.0,0.0,0.0,0.0,0.0,-2.9002,0.0,0.0,-2.9129,-2.8556,0.0,0.0,0.0,0.0,0.0,0.0,0.0,0.0,0.0,0.0,-3.1511,0.0,0.0,-3.1466,-3.0896,-3.0642,-3.0597,-3.0058,-2.9849,-2.9834,-2.9744,-2.9726,-2.9726,-2.9726,-2.9726,-2.9714,-2.9804,-2.9849,0.0,0.0,0.0,-3.0776,-3.1436,-3.1974,-3.2437,0.0,0.0,0.0,0.0,0.0,0.0,0.0,0.0,0.0,0.0,0.0,0.0,0.0,0.0,0.0,0.0,0.0,0.0,0.0,0.0,0.0,0.0,0.0,0.0,0.0,0.0,0.0,0.0,-4.0846,-4.0606,-4.0686,-4.007,-3.9781,-3.9909,-3.9783,-3.9809,-3.99,-3.9809,-4.0255,-4.1247,-4.1869,-4.3031,-4.457,-4.3814,-4.3873,-4.4542,-4.3814,-4.3902,-4.4615,-4.4615,-4.4615,-4.4682,-4.5517,-4.6244,-4.6887,-4.775,-4.846,-4.9001,0.0,0.0,0.0,0.0,0.0,0.0,0.0,0.0,0.0,0.0,0.0,0.0,0.0,0.0,0.0,-2.7571,-2.7604,-2.7604,-2.7604,-2.767,-2.7855,-2.8247,-2.8363,-2.862,-2.9002,0.0,0.0,0.0,0.0,0.0,0.0,-3.0644,-3.0837,0.0,0.0,0.0,0.0,0.0,-2.9869,-2.9767,-2.9179,-2.9637,-3.0552,-2.9445,-2.9475,-2.9998,-2.9295,-2.9026,-2.9086,-2.9487,-2.9606,-2.9651,-2.9909,0.0,0.0,0.0,-3.1406,0.0,0.0,0.0,0.0,0.0,0.0,0.0,0.0,0.0,0.0,0.0,0.0,0.0,0.0,0.0,0.0,0.0,0.0,0.0,0.0,0.0,0.0,0.0,0.0,0.0,0.0,0.0,0.0,0.0,-4.0023,-3.9843,-3.9843,-3.9574,-3.9388,-3.9388,-3.9388,-3.9646,-4.0115,-3.9631,-3.9829,-4.0724,-4.1576,-4.241,-4.3122,-4.2252,-4.2862,-4.4542,-4.3697,-4.3532,-4.3844,-4.335,-4.3152,-4.3265,-4.4477,-4.5437,-4.6216,-4.7433,-4.8376,-4.9001,0.0,0.0,0.0,0.0,0.0,0.0,0.0,0.0,0.0,0.0,0.0,0.0,0.0,0.0,0.0,0.0,-2.6499,-2.6499,-2.6499,-2.7074,-2.7384,-2.7384,-2.8019,-2.8363,-2.8363,0.0,0.0,0.0,0.0,0.0,-2.9628,-2.9858,-2.9858,0.0,-3.0748,-3.0866,0.0,0.0,0.0,-2.903,-2.8598,-2.9345,-3.0625,-2.9692,-2.9939,-3.0569,-2.9065,-2.8551,-2.8539,-2.854,-2.868,-2.8845,-2.9008,-2.9488,0.0,0.0,0.0,0.0,0.0,0.0,0.0,0.0,0.0,0.0,0.0,0.0,0.0,0.0,0.0,0.0,0.0,0.0,0.0,0.0,0.0,0.0,0.0,0.0,0.0,0.0,0.0,0.0,0.0,0.0,0.0,0.0,-3.9388,-3.9388,-3.9388,-3.9388,-3.9388,-3.9388,-3.9388,-3.9702,-4.0363,-3.9737,-3.9829,-4.0724,-4.1113,-4.1576,-4.1965,-4.1113,-4.1885,-4.3902,-4.3031,-4.2754,-4.2909,-4.2252,-4.1997,-4.211,-4.3324,-4.4499,-4.5654,-4.6859,-4.8006,-4.9001,0.0,0.0,0.0,0.0,0.0,0.0,0.0,0.0,0.0,0.0,0.0,0.0,-2.6499,-2.6499,-2.6499,-2.6499,-2.6499,-2.6499,-2.6499,-2.6521,-2.6555,-2.6555,-2.6624,0.0,-2.6624,0.0,0.0,0.0,0.0,0.0,-2.7855,-2.8684,-2.862,-2.792,-2.9597,-3.0329,-3.0152,0.0,0.0,0.0,0.0,0.0,0.0,0.0,-3.1391,-3.1185,-2.9142,-2.8409,-2.8123,-2.6259,-2.6072,-2.6765,-2.7426,-2.8118,-2.8816,0.0,0.0,0.0,0.0,0.0,0.0,0.0,0.0,0.0,0.0,0.0,0.0,0.0,0.0,0.0,0.0,0.0,0.0,0.0,0.0,0.0,0.0,0.0,0.0,0.0,0.0,0.0,0.0,0.0,0.0,0.0,-3.9388,-3.9388,-3.9388,-3.9388,-3.9388,-3.9388,-3.9388,-3.9409,-3.9481,-3.9409,-3.9829,-4.069,-3.99,-4.0393,-4.1965,-4.1113,-4.1247,-4.2093,-4.1213,-4.1297,-4.2062,-4.2029,-4.1997,-4.1997,-4.2094,-4.3507,-4.5509,-4.559,-4.7053,-4.9001,0.0,0.0,0.0,0.0,0.0,0.0,0.0,0.0,0.0,0.0,0.0,0.0,0.0,-2.6499,-2.6499,-2.6499,-2.6499,-2.6499,-2.6499,-2.6499,-2.6499,-2.6499,-2.6499,-2.6499,-2.6499,0.0,0.0,0.0,0.0,-2.7517,-2.7703,-2.8019,-2.7986,-2.7769,-2.8939,-2.916,-2.8538,-2.7107,0.0,0.0,0.0,0.0,0.0,0.0,-3.1294,-3.1618,-2.9577,-2.8857,-2.8655,-2.7527,-2.7459,-2.7809,-2.7602,-2.8036,-2.8801,-2.9864,-3.0328,0.0,0.0,0.0,0.0,0.0,0.0,0.0,0.0,0.0,0.0,0.0,0.0,0.0,0.0,0.0,0.0,0.0,0.0,0.0,0.0,0.0,0.0,0.0,0.0,0.0,0.0,0.0,0.0,0.0,0.0,-3.9388,-3.9388,-3.9388,-3.9388,-3.9388,-3.9388,-3.9388,-3.9388,-3.9388,-3.9538,-3.9864,-3.9538,-3.9737,-4.0324,-3.999,-4.0025,-4.0324,-3.999,-4.0378,-4.1113,-4.0585,-4.0324,-4.0393,-4.0961,-4.2296,-4.401,-4.4464,-4.6169,-4.8267,0.0,0.0,0.0,0.0,0.0,0.0,0.0,0.0,0.0,0.0,0.0,0.0,0.0,0.0,-2.6499,-2.6499,-2.6499,-2.6499,-2.6499,-2.6499,-2.6499,-2.6499,-2.6499,-2.6499,-2.6499,0.0,0.0,0.0,0.0,0.0,0.0,-2.7284,-2.7284,-2.7317,-2.7675,-2.7799,0.0,0.0,0.0,-2.6052,0.0,0.0,-2.9405,0.0,0.0,-3.1521,-2.9978,-2.9424,-2.9325,-2.8717,-2.8814,-2.9005,-2.7849,-2.768,-2.8145,-2.9417,-2.9984,0.0,-3.1824,0.0,0.0,0.0,0.0,0.0,0.0,0.0,0.0,0.0,0.0,0.0,0.0,0.0,0.0,0.0,0.0,0.0,0.0,0.0,0.0,0.0,0.0,0.0,0.0,0.0,0.0,0.0,0.0,0.0,-3.9388,-3.9388,-3.9388,-3.9388,-3.9388,-3.9388,-3.9388,-3.9388,-3.9388,-3.9388,-3.9388,-3.9388,-3.9388,-3.9388,-3.9388,-3.9388,-3.9388,-3.9737,-4.0205,-3.9646,-3.9388,-3.9445,-4.006,-4.1246,-4.2752,-4.3432,-4.5095,-4.7035,0.0,0.0,0.0,0.0,0.0,0.0,0.0,0.0,0.0,-2.6499,0.0,0.0,0.0,0.0,0.0,-2.6499,-2.6499,-2.6499,-2.6499,-2.6499,-2.6499,-2.6499,-2.6499,-2.6499,-2.6499,0.0,0.0,0.0,0.0,0.0,0.0,0.0,-2.6461,-2.6449,-2.5824,-2.635,-2.7486,0.0,-2.5281,-2.6175,0.0,-2.7601,-2.7509,0.0,0.0,0.0,-3.034,-3.0104,-3.0026,-2.9473,-2.978,-3.0009,-2.7912,-2.6905,-2.6755,-2.8035,-2.8958,0.0,0.0,0.0,0.0,0.0,0.0,0.0,0.0,0.0,0.0,0.0,0.0,0.0,0.0,0.0,0.0,0.0,0.0,0.0,0.0,0.0,0.0,0.0,0.0,0.0,0.0,0.0,0.0,0.0,-3.9388,-3.9388,-3.9388,-3.9388,-3.9388,-3.9388,-3.9388,-3.9388,-3.9388,-3.9388,-3.9388,-3.9388,-3.9388,-3.9388,-3.9388,-3.9388,-3.9388,-3.9388,-3.9388,-3.9388,-3.9388,-3.9388,-3.9388,-3.9388,-3.9388,-4.0365,-4.1845,-4.2492,-4.3749,-4.5369,0.0,0.0,0.0,0.0,0.0,0.0,0.0,0.0,0.0,0.0,0.0,0.0,-2.6499,-2.6499,-2.6499,-2.6499,-2.6499,-2.6499,-2.6499,-2.6499,-2.6499,-2.6499,-2.6499,-2.6499,-2.6499,0.0,0.0,0.0,0.0,0.0,0.0,0.0,0.0,0.0,-2.5272,-2.5252,-2.5535,-2.4614,0.0,-2.5301,-2.7144,-2.846,0.0,0.0,0.0,0.0,0.0,-3.0288,-3.0335,-2.9496,-2.9398,-2.9244,-2.7151,-2.6497,-2.6755,-2.8035,-2.8958,0.0,-3.1152,0.0,0.0,0.0,0.0,0.0,0.0,0.0,0.0,0.0,0.0,0.0,0.0,0.0,0.0,0.0,0.0,0.0,0.0,0.0,0.0,0.0,0.0,0.0,0.0,0.0,0.0,0.0,-3.9388,-3.9388,-3.9388,-3.9388,-3.9388,-3.9388,-3.9388,-3.9388,-3.9388,-3.9388,-3.9388,-3.9388,-3.9388,-3.9388,-3.9388,-3.9388,-3.9388,-3.9388,-3.9388,-3.9388,-3.9388,-3.9388,-3.9388,-3.9388,-3.9388,-4.0076,-4.1028,-4.106,-4.2477,-4.4459,0.0,0.0,0.0,0.0,0.0,0.0,0.0,0.0,-2.6499,0.0,0.0,0.0,-2.6499,-2.6499,-2.6499,-2.6499,-2.6499,-2.6499,-2.6499,-2.6499,-2.6499,-2.6499,-2.6499,-2.6499,-2.6499,0.0,0.0,0.0,0.0,0.0,0.0,0.0,0.0,0.0,0.0,0.0,0.0,0.0,0.0,0.0,-2.6554,0.0,0.0,-3.0062,-3.0829,0.0,0.0,0.0,-3.0516,-3.0618,-2.9922,-2.881,-2.7366,-2.6599,-2.6468,-2.7598,0.0,0.0,0.0,0.0,0.0,0.0,0.0,0.0,-3.2796,-3.3514,-3.4337,0.0,0.0,0.0,0.0,0.0,0.0,0.0,0.0,0.0,0.0,0.0,0.0,0.0,0.0,0.0,0.0,-3.9388,-3.9388,-3.9388,-3.9388,-3.9388,-3.9388,-3.9388,-3.9388,-3.9388,-3.9388,-3.9388,-3.9388,-3.9388,-3.9388,-3.9388,-3.9388,-3.9388,-3.9388,-3.9388,-3.9388,-3.9388,-3.9388,-3.9388,-3.9388,-3.9388,-3.9388,-3.9388,-3.9388,-3.9702,-4.0172,-4.0347,-4.1325,-4.2669,0.0,0.0,0.0,0.0,0.0,0.0,0.0,0.0,-2.6499,0.0,0.0,-2.6499,-2.6499,-2.6499,-2.6499,-2.6499,-2.6499,-2.6499,-2.6499,-2.6499,-2.6499,-2.6499,-2.6499,-2.6499,-2.6499,0.0,0.0,0.0,0.0,0.0,0.0,0.0,0.0,0.0,0.0,0.0,0.0,0.0,0.0,-2.4217,-2.5783,-2.674,0.0,0.0,-2.9215,-2.9751,-3.0197,-3.0342,-3.0559,-3.1823,-3.0645,-2.8547,-2.8034,-2.7139,-2.6387,-2.7157,-2.8434,0.0,0.0,0.0,0.0,0.0,-3.1511,0.0,-3.3006,-3.3335,-3.3724,0.0,0.0,0.0,0.0,0.0,0.0,0.0,0.0,0.0,0.0,0.0,0.0,0.0,0.0,0.0,-3.9388,-3.9388,-3.9388,-3.9388,-3.9388,-3.9388,-3.9388,-3.9388,-3.9388,-3.9388,-3.9388,-3.9388,-3.9388,-3.9388,-3.9388,-3.9388,-3.9388,-3.9388,-3.9388,-3.9388,-3.9388,-3.9388,-3.9388,-3.9388,-3.9388,-3.9388,-3.9388,-3.9388,-3.9388,-3.9388,-3.9448,-4.0083,-4.0337,-4.0709,-2.6499,0.0,0.0,0.0,0.0,0.0,0.0,0.0,0.0,0.0,0.0,-2.6499,-2.6499,-2.6499,-2.6499,-2.6499,-2.6499,-2.6499,-2.6499,-2.6499,-2.6499,-2.6499,-2.6499,-2.6499,-2.6499,-2.6499,0.0,0.0,0.0,0.0,0.0,0.0,0.0,0.0,0.0,0.0,0.0,0.0,0.0,-2.472,-2.5473,0.0,-2.8443,-2.8766,-2.9739,-3.079,-3.015,-3.0068,-3.0197,-3.0078,-2.9229,-2.8176,0.0,-2.8053,-2.8359,-2.8094,-2.9459,0.0,0.0,0.0,-3.1511,-3.1511,-3.1511,0.0,-3.1824,-3.2303,-3.2781,0.0,0.0,0.0,0.0,0.0,0.0,0.0,0.0,0.0,0.0,0.0,0.0,0.0,0.0,0.0,-3.9388,-3.9388,-3.9388,-3.9388,-3.9388,-3.9388,-3.9388,-3.9388,-3.9388,-3.9388,-3.9388,-3.9388,-3.9388,-3.9388,-3.9388,-3.9388,-3.9388,-3.9388,-3.9388,-3.9388,-3.9388,-3.9388,-3.9388,-3.9388,-3.9388,-3.9388,-3.9388,-3.9388,-3.9388,-3.9388,-3.9439,-3.9574,-3.9948,-4.0539,-2.6499,0.0,0.0,0.0,0.0,0.0,0.0,0.0,0.0,0.0,0.0,0.0,-2.6499,-2.6499,-2.6499,-2.6499,-2.6499,-2.6499,-2.6499,-2.6499,-2.6499,-2.6499,-2.6499,-2.6499,-2.6499,-2.6499,-2.6499,0.0,0.0,0.0,0.0,0.0,0.0,0.0,0.0,0.0,0.0,0.0,-2.3891,-2.4531,-2.5887,0.0,-2.9126,-2.9287,-3.0124,-3.1068,-3.0139,-2.9897,-2.9956,-2.9711,-2.9096,0.0,-2.8573,-2.8885,-2.9232,-2.9136,-2.9885,-3.0729,0.0,0.0,-3.0999,-3.1409,-3.1511,0.0,0.0,-3.2243,-3.2572,0.0,0.0,0.0,0.0,0.0,0.0,0.0,0.0,0.0,0.0,0.0,0.0,0.0,0.0,0.0,-3.8871,-3.8616,-3.8407,-3.8407,-3.8407,-3.8407,-3.8407,-3.8407,-3.8407,-3.8407,-3.8407,-3.8407,-3.8407,-3.8407,-3.8586,-3.8901,-3.8901,-3.9095,-3.9388,-3.9388,-3.9388,-3.9388,-3.9388,-3.9388,-3.9388,-3.9388,-3.9388,-3.9388,-3.9388,-3.9388,-3.9388,-3.9388,-3.9634,-4.0008,-2.6499,0.0,0.0,0.0,0.0,0.0,0.0,0.0,0.0,0.0,0.0,0.0,-2.665,-2.6751,-2.6813,-2.6813,-2.6813,-2.6763,-2.6663,-2.665,-2.665,-2.665,-2.6549,-2.6549,-2.665,-2.6549,-2.6499,0.0,0.0,0.0,0.0,0.0,0.0,0.0,0.0,0.0,0.0,0.0,0.0,-2.4782,0.0,-2.7889,-2.8795,-2.9276,-2.9947,-3.052,-2.9999,-2.9792,-2.9792,-2.9792,-2.9478,-2.9139,-2.9536,-2.983,0.0,0.0,0.0,0.0,0.0,0.0,0.0,-3.1087,-3.1278,-3.1455,0.0,0.0,0.0,0.0,0.0,0.0,0.0,0.0,0.0,0.0,0.0,0.0,0.0,0.0,0.0,0.0,0.0,0.0,-3.7988,-3.7539,-3.7285,-3.7404,-3.73,-3.7285,-3.7404,-3.7404,-3.7404,-3.7404,-3.7404,-3.7404,-3.7404,-3.7404,-3.7674,-3.8197,-3.8332,-3.8676,-3.923,-3.9328,-3.9388,-3.9388,-3.9388,-3.9388,-3.9388,-3.9388,-3.9388,-3.9388,-3.9388,-3.9388,-3.9388,-3.9388,-3.9388,-3.9514,-2.6499,-2.6499,0.0,0.0,0.0,0.0,0.0,0.0,0.0,0.0,0.0,0.0,-2.7228,-2.762,-2.7921,-2.7921,-2.7921,-2.7708,-2.7218,-2.7228,-2.7228,-2.7228,-2.6751,-2.6725,-2.7216,-2.6738,-2.6499,-2.6499,0.0,0.0,0.0,0.0,0.0,0.0,-2.4775,0.0,0.0,0.0,-2.5937,0.0,-2.718,-2.6785,0.0,-2.7718,-2.8371,-2.8558,-2.9466,-2.9792,-2.9792,0.0,-2.9741,-2.9744,0.0,-3.1088,-3.1883,-3.0014,0.0,0.0,0.0,0.0,0.0,0.0,-3.0419,-3.0628,-3.144,0.0,-3.1645,-3.1705,0.0,0.0,0.0,0.0,0.0,0.0,0.0,0.0,0.0,0.0,0.0,0.0,0.0,0.0,0.0,-3.6641,-3.6821,-3.736,-3.6896,-3.6836,-3.7375,-3.7404,-3.7404,-3.7404,-3.7404,-3.7404,-3.7404,-3.7404,-3.7449,-3.7524,-3.8108,-3.8437,-3.8527,-3.914,-3.9388,-3.9388,-3.9388,-3.9388,-3.9388,-3.9388,-3.9388,-3.9388,-3.9388,-3.9388,-3.9388,-3.9388,-3.9388,-3.9514,-2.6499,-2.6499,-2.6499,0.0,0.0,0.0,0.0,0.0,0.0,0.0,0.0,0.0,-2.6839,-2.7052,-2.7281,-2.7607,-2.7632,-2.7532,-2.7293,-2.7281,-2.7178,-2.6851,-2.6612,-2.66,-2.6839,-2.6612,-2.6499,-2.6499,-2.6499,0.0,0.0,0.0,0.0,0.0,-2.5925,0.0,-2.6239,0.0,-2.6411,0.0,0.0,0.0,0.0,-2.8323,-2.9089,-2.9151,-2.9628,-2.9792,-2.9842,0.0,-3.0055,0.0,0.0,0.0,0.0,-3.1239,0.0,0.0,0.0,0.0,0.0,0.0,0.0,0.0,-3.1498,-3.1511,-3.1511,-3.1511,0.0,0.0,0.0,0.0,0.0,0.0,-3.2049,0.0,0.0,0.0,0.0,0.0,0.0,0.0,0.0,0.0,0.0,0.0,-3.6058,-3.6028,-3.6282,-3.6312,-3.6312,-3.6312,-3.6312,-3.6312,-3.6312,-3.6312,-3.6492,-3.6881,-3.7524,-3.8018,-3.8407,-3.9095,-3.9388,-3.9388,-3.9388,-3.9388,-3.9388,-3.9388,-3.9388,-3.9388,-3.9388,-3.9388,-3.9388,-3.9388,-3.9388,-3.9454,-2.6499,-2.6499,-2.6499,0.0,0.0,0.0,0.0,0.0,0.0,0.0,0.0,0.0,-2.6713,-2.6989,-2.7293,-2.7695,-2.7883,-2.7908,-2.7745,-2.7595,-2.7394,-2.719,-2.6738,-2.6637,-2.6939,-2.665,-2.6499,-2.6499,0.0,0.0,0.0,0.0,0.0,0.0,0.0,-2.6801,-2.7256,0.0,-2.6901,-2.719,-2.7406,-2.7492,-2.7555,-2.8825,-2.9528,-2.9817,-2.9967,-3.0018,-3.0093,-3.0645,-3.0557,0.0,-3.1978,-3.2736,-3.3005,0.0,0.0,0.0,-3.0468,0.0,0.0,0.0,0.0,0.0,0.0,0.0,0.0,-3.1511,-3.1511,0.0,0.0,0.0,0.0,0.0,0.0,-3.2049,0.0,0.0,0.0,0.0,0.0,0.0,0.0,0.0,0.0,-3.525,-3.522,-3.531,-3.5489,-3.5504,-3.5504,-3.5504,-3.5504,-3.5504,-3.5504,-3.5504,-3.5744,-3.6237,-3.703,-3.7659,-3.8153,-3.902,-3.9388,-3.9388,-3.9388,-3.9388,-3.9388,-3.9388,-3.9388,-3.9388,-3.9388,-3.9388,-3.9388,-3.9388,-3.9388,-3.9388,-2.6499,-2.6499,-2.6499,0.0,0.0,0.0,0.0,0.0,0.0,0.0,0.0,0.0,0.0,0.0,-2.8813,-2.8838,-2.939,-2.9478,-2.8875,-2.8373,-2.831,-2.8787,-2.7318,-2.7002,-2.8034,-2.704,-2.6499,-2.6499,0.0,0.0,0.0,0.0,0.0,0.0,0.0,-2.6801,-2.7281,-2.7268,-2.7871,-2.8762,-2.8285,-2.8725,-2.9578,0.0,-2.8837,-2.9867,-3.0407,0.0,0.0,-3.1185,-3.1348,0.0,0.0,0.0,0.0,0.0,0.0,0.0,0.0,0.0,0.0,-2.9019,0.0,0.0,0.0,0.0,-3.1511,0.0,0.0,0.0,0.0,0.0,0.0,0.0,0.0,0.0,0.0,0.0,0.0,0.0,0.0,0.0,0.0,0.0,-3.3844,-3.4488,-3.4533,-3.4833,-3.5474,-3.5504,-3.5504,-3.5504,-3.5504,-3.5504,-3.5504,-3.5504,-3.5519,-3.5549,-3.6806,-3.7419,-3.7479,-3.8811,-3.9388,-3.9388,-3.9388,-3.9388,-3.9388,-3.9388,-3.9388,-3.9388,-3.9388,-3.9388,-3.9388,-3.9388,-3.9388,-3.9388,-2.6499,-2.6499,-2.6499,0.0,0.0,0.0,0.0,-2.6499,0.0,0.0,-2.7203,0.0,0.0,-2.816,-2.8499,-2.8863,-2.9076,-2.9139,-2.89,-2.8411,-2.8185,-2.8373,-2.719,-2.6839,-2.7544,-2.6876,-2.6499,-2.6499,0.0,0.0,0.0,0.0,0.0,0.0,0.0,-2.7341,0.0,0.0,0.0,0.0,0.0,-2.9114,-2.9754,0.0,-2.9679,-3.0357,-3.0545,-3.0834,0.0,-3.175,-3.1687,-3.1512,-3.2265,-3.2911,-3.3352,-3.3476,-3.4186,-3.4645,0.0,0.0,-3.398,-3.2075,0.0,0.0,0.0,0.0,0.0,0.0,0.0,0.0,0.0,0.0,0.0,0.0,0.0,0.0,0.0,0.0,0.0,0.0,0.0,0.0,0.0,0.0,0.0,-3.4488,-3.4906,-3.525,-3.5489,-3.5504,-3.5504,-3.5504,-3.5504,-3.5504,-3.5504,-3.5504,-3.5504,-3.5519,-3.6387,-3.7015,-3.7434,-3.8332,-3.899,-3.9388,-3.9388,-3.9388,-3.9388,-3.9388,-3.9388,-3.9388,-3.9388,-3.9388,-3.9388,-3.9388,-3.9388,-3.9388,-2.6499,-2.6499,0.0,0.0,0.0,0.0,0.0,0.0,0.0,0.0,-2.757,0.0,-2.8624,0.0,-2.9139,0.0,-2.9704,-2.9729,-2.9502,-2.9202,-2.8913,-2.8712,-2.7833,-2.7507,-2.7858,-2.7165,-2.6788,-2.6788,0.0,-2.6499,0.0,0.0,0.0,0.0,0.0,-2.7406,-2.8134,-2.8486,-2.8863,0.0,0.0,-2.9453,0.0,0.0,-3.0306,-3.067,0.0,-3.1399,-3.1763,-3.2328,-3.229,-3.2114,-3.2855,-3.3506,-3.4084,-3.4539,-3.5394,-3.6006,-3.5176,-3.5617,0.0,-3.3911,-3.3877,0.0,-3.2697,0.0,-3.1854,0.0,0.0,0.0,0.0,0.0,0.0,0.0,0.0,0.0,0.0,-3.1511,0.0,0.0,0.0,0.0,0.0,0.0,-3.3978,-3.4474,-3.4891,-3.525,0.0,0.0,-3.5504,-3.5504,-3.5504,-3.5504,-3.5504,-3.5504,-3.5504,-3.5519,-3.6178,-3.6806,-3.7434,-3.8093,-3.8766,-3.9388,-3.9388,-3.9388,-3.9388,-3.9388,-3.9388,-3.9388,-3.9388,-3.9388,-3.9388,-3.9388,-3.9388,-3.9388,-2.6499,-2.6499,0.0,0.0,-2.6512,0.0,0.0,0.0,-2.6977,0.0,-2.821,-2.8649,-2.9754,-3.0331,-3.0658,-3.0658,-3.111,-3.1185,-3.0683,-3.0633,-3.0394,-2.9892,-2.9264,-2.89,-2.8938,-2.7858,-2.7281,-2.7281,0.0,0.0,0.0,0.0,0.0,0.0,-2.6499,0.0,-2.8109,-2.8109,-2.8762,-2.9792,-2.9792,-2.9817,-2.9892,-3.0444,-3.067,-3.0821,-3.1851,-3.2227,-3.234,-3.2893,-3.3124,-3.3124,-3.3124,-3.4444,-3.6053,-3.6119,-3.761,-3.8934,-3.7455,-3.7098,-3.6611,-3.457,-3.4086,0.0,0.0,0.0,-3.2557,0.0,0.0,0.0,0.0,0.0,0.0,0.0,0.0,0.0,0.0,0.0,-3.1511,0.0,0.0,0.0,0.0,-3.2497,-3.308,-3.4354,-3.4488,0.0,0.0,0.0,-3.5474,-3.5504,-3.5504,-3.5504,-3.5504,-3.5504,-3.5504,-3.5519,-3.6148,-3.6776,-3.7434,-3.8063,-3.8736,-3.9388,-3.9388,-3.9388,-3.9388,-3.9388,-3.9388,-3.9388,-3.9388,-3.9388,-3.9388,-3.9388,-3.9388,-3.9388,-2.6499,-2.6499,-2.6625,0.0,-2.6763,-2.6637,0.0,0.0,0.0,0.0,-2.9716,-3.0231,-3.0909,-3.111,-3.1185,-3.1185,-3.1311,0.0,0.0,0.0,0.0,-3.0972,-2.9666,-2.9126,-2.9566,-2.8072,-2.7281,-2.7281,0.0,0.0,-2.6499,0.0,0.0,0.0,0.0,0.0,-2.8109,-2.8109,-2.8762,-2.9792,-2.9792,-3.0043,-3.0457,0.0,-3.1449,-3.1838,-3.2114,-3.2491,-3.288,-3.3074,-3.3124,-3.3124,-3.3124,-3.3471,-3.4053,-3.4856,-3.5987,-3.7094,-3.7476,-3.8186,-3.8536,-3.75,-3.6522,-3.5637,0.0,0.0,0.0,0.0,0.0,0.0,0.0,0.0,0.0,0.0,0.0,0.0,0.0,0.0,0.0,-3.1511,-3.1929,-3.2108,-3.1795,-3.2677,-3.338,-3.3724,-3.4234,0.0,0.0,0.0,0.0,-3.5489,-3.5504,-3.5504,-3.5504,-3.5504,-3.5504,-3.5504,-3.5669,-3.6342,-3.7419,-3.7584,-3.8302,-3.9388,-3.9388,-3.9388,-3.9388,-3.9388,-3.9388,-3.9388,-3.9388,-3.9388,-3.9388,-3.9388,-3.9388,-3.9388,-2.6801,-2.7052,0.0,-2.7595,0.0,0.0,-2.7959,-2.8059,0.0,-2.9967,-3.0419,0.0,-3.1675,-3.1976,-3.2127,-3.2127,-3.2127,0.0,-3.1763,0.0,0.0,-3.1399,-3.0733,-3.0407,-3.0495,-2.9114,-2.826,-2.7996,-2.7241,0.0,-2.6499,0.0,0.0,0.0,0.0,-2.6977,-2.777,-2.826,-2.8837,-2.944,-2.9691,-3.0118,0.0,-3.1198,-3.1738,-3.224,-3.2503,-3.2805,-3.3124,-3.3124,-3.3124,-3.3124,-3.3124,-3.3441,-3.3911,-3.4511,-3.5722,-3.7021,-3.7625,-3.8583,-3.9334,-3.8931,-3.8078,-3.7075,-3.6148,-3.513,-3.4292,0.0,-3.3694,-3.3559,0.0,0.0,0.0,0.0,0.0,0.0,0.0,0.0,-3.1511,0.0,-3.1824,-3.1914,-3.154,-3.2721,-3.3499,-3.3499,-3.3844,0.0,0.0,0.0,0.0,-3.504,-3.5355,-3.5504,-3.5504,-3.5504,-3.5504,-3.5504,-3.5504,-3.6178,-3.7404,-3.7404,-3.8138,-3.9388,-3.9388,-3.9388,-3.9388,-3.9388,-3.9388,-3.9388,-3.9388,-3.9388,-3.9388,-3.9388,-3.9388,-3.9388,-2.7293,-2.777,0.0,0.0,0.0,0.0,0.0,-2.885,0.0,-3.062,0.0,-3.1286,-3.2227,-3.278,-3.3124,-3.3124,-3.3124,-3.2867,-3.2353,-3.2805,-3.2641,-3.165,-3.2001,-3.1989,-3.1499,-3.0444,-2.9578,-2.8888,-2.7896,-2.7102,0.0,0.0,0.0,0.0,0.0,0.0,0.0,-2.8449,-2.8938,-2.9051,-2.9666,-3.0231,-3.0771,-3.1298,-3.1838,-3.239,-3.2893,-3.3124,-3.3124,-3.3124,-3.3124,-3.3124,-3.3124,-3.3755,-3.4511,-3.4511,-3.5855,-3.7434,-3.7548,-3.8383,-3.9228,-3.9337,-3.8901,-3.8078,-3.6881,-3.6103,-3.5444,-3.4788,-3.4158,-3.4083,0.0,0.0,0.0,0.0,0.0,0.0,-3.1765,-3.1765,-3.1735,-3.1645,0.0,0.0,-3.1525,-3.2647,-3.3365,-3.3365,0.0,0.0,0.0,0.0,0.0,-3.4638,-3.519,-3.5504,-3.5504,0.0,-3.5504,-3.5504,-3.5504,-3.6178,-3.7404,-3.7404,-3.8138,-3.9388,-3.9388,-3.9388,-3.9388,-3.9388,-3.9388,-3.9388,-3.9388,-3.9388,-3.9388,-3.9388,-3.9388,-3.9388,-2.7946,0.0,0.0,0.0,0.0,-2.9942,-3.0821,-3.0871,-3.1085,-3.1838,-3.2353,-3.2717,-3.2905,-3.3061,-3.3124,-3.3124,-3.3124,0.0,0.0,0.0,0.0,-3.2792,-3.2416,-3.2177,-3.2077,-3.1022,-2.9967,-2.8888,-2.8285,-2.7444,-2.6499,0.0,0.0,0.0,0.0,0.0,-2.8009,-2.8612,0.0,-2.9691,-3.0244,-3.0783,-3.1311,-3.1863,-3.2428,-3.2943,-3.3043,-3.3124,-3.3124,-3.3124,-3.3124,-3.3124,-3.3124,-3.324,-3.3398,-3.3398,-3.4275,-3.5413,-3.6251,-3.7252,-3.8308,-3.9177,-3.8901,-3.8182,-3.7419,-3.6761,-3.6118,-3.5459,-3.5235,-3.5055,-3.4711,0.0,0.0,0.0,0.0,0.0,0.0,0.0,-3.2946,-3.2378,-3.2826,-3.2721,-3.1615,-3.2198,-3.2691,0.0,0.0,0.0,0.0,0.0,0.0,0.0,-3.5444,0.0,0.0,0.0,-3.5504,-3.5504,-3.5504,-3.6178,-3.7404,-3.7404,-3.8138,-3.9388,-3.9388,-3.9388,-3.9388,-3.9388,-3.9388,-3.9388,-3.9388,-3.9388,-3.9388,-3.9388,-3.9388,-3.9388,-2.8499,0.0,0.0,0.0,0.0,0.0,0.0,-3.2064,-3.2252,-3.2215,-3.2453,-3.2629,-3.2629,-3.2893,-3.3124,-3.3124,-3.3124,-3.3124,-3.3124,-3.3124,-3.3124,-3.3124,-3.2805,-3.2667,-3.2667,-3.1863,-3.0909,-2.9765,-2.8913,-2.7971,-2.6914,0.0,0.0,0.0,0.0,-2.718,0.0,0.0,0.0,-2.9415,-3.0269,-3.0922,-3.1449,-3.2001,-3.2566,-3.3124,-3.3124,-3.3124,-3.3124,-3.3124,-3.3124,-3.3124,-3.3124,-3.3124,-3.3124,-3.3124,-3.3869,-3.4828,-3.5278,-3.6186,-3.7084,-3.761,-3.7935,-3.7923,-3.7227,-3.7045,-3.6791,-3.6148,-3.5744,-3.5295,-3.4638,-3.3933,0.0,0.0,0.0,0.0,0.0,0.0,-3.338,-3.3066,-3.3006,-3.2736,-3.2079,0.0,0.0,0.0,0.0,0.0,0.0,0.0,0.0,0.0,0.0,0.0,0.0,0.0,0.0,-3.5504,-3.5848,-3.6507,-3.7419,-3.7764,-3.8467,-3.9388,-3.9388,-3.9388,-3.9388,-3.9388,-3.9388,-3.9388,-3.9388,-3.9388,-3.9388,-3.9388,-3.9388,-3.9388,0.0,-2.9654,0.0,0.0,-3.121,0.0,-3.2152,-3.2704,-3.2918,-3.2453,-3.239,-3.239,-3.239,-3.2805,-3.3124,-3.3124,-3.3124,-3.3124,-3.3124,-3.3124,-3.3124,-3.3124,-3.3124,-3.3124,-3.3124,-3.2629,-3.1863,-3.0783,-2.974,-2.8662,-2.7444,-2.6927,0.0,0.0,0.0,0.0,0.0,0.0,-2.9176,-2.9352,-3.0507,-3.1198,-3.1625,-3.219,-3.2679,-3.3124,-3.3124,-3.3124,-3.3124,-3.3124,-3.3124,-3.3124,-3.3124,-3.3124,-3.3124,-3.3124,-3.3713,-3.4428,-3.4622,-3.5278,-3.5934,-3.6172,-3.7021,-3.7618,-3.6956,-3.7122,-3.724,-3.6611,-3.5968,-3.5295,-3.4638,-3.4173,0.0,0.0,0.0,0.0,0.0,0.0,-3.3858,0.0,-3.3245,-3.2886,-3.2736,0.0,0.0,0.0,0.0,0.0,-3.3455,0.0,0.0,0.0,0.0,-3.5295,-3.5295,0.0,-3.5504,-3.5519,-3.6178,-3.6806,-3.7434,-3.8093,-3.8766,-3.9388,-3.9388,-3.9388,-3.9388,-3.9388,-3.9388,-3.9388,-3.9388,-3.9388,-3.9388,-3.9388,-3.9388,-3.9388,0.0,0.0,0.0,0.0,0.0,0.0,-3.2202,-3.2704,-3.3056,-3.3006,-3.3006,-3.3006,-3.3006,-3.3086,-3.3124,-3.3124,-3.3124,-3.3124,-3.3124,-3.3124,-3.3124,-3.3124,-3.3124,-3.3124,-3.3124,-3.3018,-3.2441,-3.1323,-3.0733,-2.9628,-2.8009,-2.7469,0.0,0.0,0.0,0.0,0.0,-2.9453,-3.0005,-3.0557,-3.1637,-3.2089,-3.2202,-3.278,-3.3031,-3.3124,-3.3124,-3.3124,-3.3124,-3.3124,-3.3124,-3.3124,-3.3124,-3.3124,-3.3124,-3.3124,-3.3154,-3.3484,-3.4428,-3.4787,-3.5047,-3.5974,-3.7021,-3.7618,-3.6956,-3.7122,-3.724,-3.6611,-3.5968,-3.5295,-3.4638,-3.4936,-3.5115,0.0,0.0,0.0,0.0,0.0,-3.5085,-3.4488,0.0,-3.4053,-3.3469,-3.335,0.0,0.0,-3.2841,0.0,0.0,0.0,0.0,-3.4488,0.0,-3.4593,-3.4593,-3.519,-3.5504,-3.5519,-3.6178,-3.6806,-3.7434,-3.8093,-3.8766,-3.9388,-3.9388,-3.9388,-3.9388,-3.9388,-3.9388,-3.9388,-3.9388,-3.9388,-3.9388,-3.9388,-3.9388,-3.9388,0.0,0.0,0.0,0.0,0.0,0.0,0.0,-3.293,-3.3124,-3.3124,-3.3124,-3.3124,-3.3124,-3.3124,-3.3124,-3.3124,-3.3124,-3.3124,-3.3124,-3.3124,-3.3124,-3.3124,-3.3124,-3.3124,-3.3124,-3.3124,-3.2679,0.0,-3.1035,-3.0105,-2.9114,-2.8536,0.0,0.0,0.0,-2.9528,-2.998,-3.052,-3.0884,-3.1148,-3.1901,-3.2215,-3.2277,-3.2855,-3.3124,-3.3124,-3.3124,-3.3124,-3.3124,-3.3124,-3.3124,-3.3124,-3.3124,-3.3124,-3.3124,-3.3124,-3.3124,-3.3197,-3.3641,-3.3755,-3.3839,-3.4262,-3.5129,-3.6026,-3.6375,-3.645,-3.6608,-3.6988,-3.6222,-3.5429,-3.5145,-3.4981,-3.4936,-3.507,0.0,0.0,0.0,0.0,0.0,-3.513,0.0,-3.4399,-3.4144,-3.3724,0.0,0.0,0.0,0.0,0.0,0.0,0.0,-3.4503,0.0,-3.51,-3.51,-3.537,-3.5504,-3.5519,-3.6552,-3.7165,-3.7449,-3.8512,-3.9155,-3.9388,-3.9388,-3.9388,-3.9388,-3.9388,-3.9388,-3.9388,-3.9388,-3.9388,-3.9388,-3.9388,-3.9388,-3.9388,-3.1599,0.0,-3.1813,0.0,-3.2466,-3.2604,-3.3018,-3.3124,-3.3124,-3.3124,-3.3124,-3.3124,-3.3124,-3.3124,-3.3124,-3.3124,-3.3124,-3.3124,-3.3124,-3.3124,-3.3124,-3.3124,-3.3124,0.0,-3.3124,-3.3124,-3.288,-3.2466,-3.1537,-3.0809,-3.0244,-2.9515,0.0,0.0,-3.0444,-3.0708,-3.0884,-3.1411,-3.1637,-3.1675,-3.224,-3.2466,-3.2516,-3.2918,-3.3124,-3.3124,-3.3124,-3.3124,-3.3124,-3.3124,-3.3124,-3.3124,-3.3124,-3.3124,-3.3124,-3.3124,-3.3124,-3.3124,-3.3124,-3.3124,-3.3124,-3.3124,-3.3911,-3.4979,-3.5974,-3.6189,-3.6331,-3.699,-3.6267,-3.5504,-3.5504,-3.51,-3.4936,-3.5429,0.0,0.0,0.0,-3.5504,0.0,-3.5235,-3.4771,-3.4503,-3.4503,-3.4053,0.0,0.0,0.0,0.0,0.0,0.0,0.0,0.0,0.0,0.0,-3.5205,-3.54,-3.5504,-3.5519,-3.6806,-3.7404,-3.7464,-3.8811,-3.9388,-3.9388,-3.9388,-3.9388,-3.9388,-3.9388,-3.9388,-3.9388,-3.9388,-3.9388,-3.9388,-3.9388,-3.9388,-3.9388,-3.2102,-3.2202,-3.239,-3.2968,-3.3111,-3.3111,-3.3124,-3.3124,-3.3124,-3.3124,-3.3124,-3.3124,-3.3124,-3.3124,-3.3124,-3.3124,-3.3124,-3.3124,-3.3124,-3.3124,-3.3124,0.0,0.0,-3.3124,-3.3124,-3.3124,-3.3124,-3.3111,0.0,0.0,-3.1348,0.0,-3.008,-3.0608,-3.062,-3.0896,-3.1411,-3.1964,-3.2202,-3.2252,-3.283,-3.3111,-3.3111,-3.3124,-3.3124,-3.3124,-3.3124,-3.3124,-3.3124,-3.3124,-3.3124,-3.3124,-3.3124,-3.3124,-3.3124,-3.3124,-3.3124,-3.3124,-3.3124,-3.3124,-3.3124,-3.3124,-3.3911,-3.4979,-3.5974,-3.6513,-3.6722,-3.6529,-3.5968,-3.5504,-3.5504,-3.5489,-3.5489,-3.5504,0.0,0.0,0.0,-3.5504,0.0,-3.4593,-3.4503,-3.4503,-3.4503,-3.4503,0.0,0.0,0.0,0.0,0.0,0.0,0.0,-3.4503,-3.4518,0.0,-3.4518,-3.516,-3.5504,-3.5519,-3.6806,-3.7404,-3.7464,-3.8811,-3.9388,-3.9388,-3.9388,-3.9388,-3.9388,-3.9388,-3.9388,-3.9388,-3.9388,-3.9388,-3.9388,-3.9388,-3.9388,-3.9388,-3.3884,-3.3878,-3.3985,-3.4173,-3.4198,-3.4198,-3.4198,-3.4198,-3.406,-3.3684,-3.3633,-3.3495,-3.3162,-3.3124,-3.3124,0.0,-3.3124,-3.3124,0.0,-3.3124,-3.3124,-3.3124,-3.3124,-3.3124,-3.3124,-3.3124,-3.3124,-3.3124,0.0,0.0,0.0,-3.1599,-3.175,-3.229,-3.229,-3.2378,-3.2554,-3.2729,-3.2805,-3.2817,-3.3006,-3.3124,-3.3124,-3.3124,-3.3124,-3.3124,-3.3124,-3.3124,-3.3124,-3.3124,-3.3124,-3.3124,-3.3124,-3.3124,-3.3124,-3.3124,-3.3124,-3.3124,-3.3124,-3.3124,-3.3124,-3.3124,-3.3356,-3.3869,-3.4938,-3.5153,-3.5031,-3.4483,-3.3938,-3.3719,-3.4361,-3.4461,-3.4691,-3.5392,-3.5504,0.0,-3.5504,0.0,-3.5429,-3.5205,-3.5175,-3.5175,-3.5175,-3.5175,0.0,0.0,0.0,0.0,0.0,0.0,0.0,0.0,-3.4936,0.0,-3.5175,-3.5385,-3.5729,-3.6178,-3.7015,-3.7898,-3.8796,-3.923,-3.9388,-3.9388,-3.9388,-3.9388,-3.9388,-3.9388,-3.9388,-3.9388,-3.9388,-3.9388,-3.9388,-3.9388,-3.9388,-3.9388,-3.468,-3.468,-3.468,-3.468,-3.468,-3.468,-3.468,-3.468,-3.4525,-3.3972,-3.3897,-3.3684,-3.3174,-3.3124,0.0,-3.3124,-3.3124,-3.3124,-3.3124,-3.3124,-3.3124,-3.3124,-3.3124,-3.3124,-3.3124,-3.3124,0.0,-3.3124,-3.2717,-3.2541,-3.2541,-3.2541,-3.2729,-3.3124,-3.3124,-3.3124,-3.3124,-3.3124,-3.3124,-3.3124,-3.3124,-3.3124,-3.3124,-3.3124,-3.3124,-3.3124,-3.3124,-3.3124,-3.3124,-3.3124,-3.3124,-3.3124,-3.3124,-3.3124,-3.3124,-3.3124,-3.3124,-3.3124,-3.3124,-3.3124,-3.3124,-3.3124,-3.3124,-3.3398,-3.447,-3.4697,-3.4544,-3.3923,-3.333,-3.3119,-3.3851,-3.3993,-3.4312,-3.5359,-3.5504,-3.5504,-3.5504,0.0,-3.527,0.0,0.0,0.0,0.0,-3.4907,-3.5055,0.0,0.0,0.0,0.0,0.0,0.0,-3.4861,-3.528,-3.5504,-3.5504,-3.5504,-3.5833,-3.6492,-3.736,-3.8362,-3.9388,-3.9388,-3.9388,-3.9388,-3.9388,-3.9388,-3.9388,-3.9388,-3.9388,-3.9388,-3.9388,-3.9388,-3.9388,-3.9388,-3.9388,-3.9388,-3.4839,-3.4839,-3.4839,0.0,-3.4839,0.0,-3.4839,-3.4839,-3.4638,-3.4085,-3.3985,-3.3746,-3.3194,-3.3106,-3.3124,-3.3124,0.0,0.0,0.0,-3.3124,-3.3124,-3.3124,-3.3124,-3.3124,-3.3124,-3.3124,-3.3124,-3.3124,-3.3124,-3.3124,-3.3124,-3.3124,-3.3124,-3.3124,-3.3124,-3.3124,-3.3124,-3.3124,-3.3124,-3.3124,-3.3124,-3.3124,-3.3124,-3.3124,-3.3124,-3.3124,-3.3124,-3.3124,-3.3124,-3.3124,-3.3124,-3.3124,-3.3124,-3.3124,-3.3124,-3.3124,-3.3124,-3.3124,-3.3124,-3.3124,-3.3124,-3.3124,-3.3124,-3.3356,-3.4345,-3.4848,-3.4892,-3.4314,-3.3673,-3.3325,-3.375,-3.3842,-3.4245,-3.5246,-3.5457,-3.5504,-3.5504,-3.5504,-3.4925,0.0,0.0,0.0,-3.3159,-3.3894,-3.4722,0.0,0.0,0.0,0.0,0.0,-3.4801,-3.5489,-3.5504,-3.5504,-3.5504,-3.5549,-3.5923,-3.6626,-3.7868,-3.8796,-3.9388,-3.9388,-3.9388,-3.9388,-3.9388,-3.9388,-3.9388,-3.9388,-3.9388,-3.9388,-3.9388,-3.9388,-3.9388,-3.9388,-3.9388,-3.9388,0.0,0.0,-3.6015,-3.6015,-3.6015,-3.6015,-3.6015,-3.6015,-3.578,-3.5182,-3.4743,-3.4324,-3.3771,-3.3332,-3.3124,-3.3124,-3.3124,-3.3124,-3.3124,-3.3124,-3.3124,-3.3124,-3.3124,-3.3124,-3.3124,-3.3124,-3.3124,-3.3124,-3.3124,-3.3124,-3.3124,-3.3124,-3.3124,-3.3124,-3.3124,-3.3124,-3.3124,-3.3124,-3.3124,-3.3124,-3.3124,-3.3124,-3.3124,-3.3124,-3.3124,-3.3124,-3.3124,-3.3124,-3.3124,-3.3124,-3.3124,-3.3124,-3.3124,-3.3124,-3.3124,-3.3124,-3.3124,-3.3124,-3.3124,-3.3124,-3.3124,-3.3124,-3.3124,-3.3154,-3.3441,-3.3181,-3.2798,-3.2219,-3.1679,-3.1383,-3.179,-3.2464,-3.3241,-3.4211,-3.4986,-3.5504,-3.5504,-3.5504,-3.5073,0.0,-3.3979,-3.3729,-3.2821,-3.3559,-3.3997,0.0,0.0,0.0,0.0,-3.4593,-3.4801,-3.5489,-3.5504,-3.5504,-3.5504,-3.6013,-3.6821,-3.7943,-3.8781,-3.926,-3.9388,-3.9388,-3.9388,-3.9388,-3.9388,-3.9388,-3.9388,-3.9388,-3.9388,-3.9388,-3.9388,-3.9388,-3.9388,-3.9388,-3.9388,-3.9388,-3.5367,-3.5475,-3.5667,-3.631,-3.6405,-3.6405,-3.6405,-3.6405,-3.6157,-3.5571,-3.5019,-3.4512,-3.396,-3.3407,-3.3124,-3.3124,-3.3124,-3.3124,-3.3124,-3.3124,-3.3124,-3.3124,-3.3124,-3.3124,-3.3124,-3.3124,-3.3124,-3.3124,-3.3124,-3.3124,-3.3124,-3.3124,-3.3124,-3.3124,-3.3124,-3.3124,-3.3124,-3.3124,-3.3124,-3.3124,-3.3124,-3.3124,-3.3124,-3.3124,-3.3124,-3.3124,-3.3124,-3.3124,-3.3124,-3.3124,-3.3124,-3.3124,-3.3124,-3.3124,-3.3124,-3.3124,-3.3124,-3.3124,-3.3124,-3.3124,-3.3124,-3.3124,-3.3124,-3.3124,-3.3124,-3.283,-3.2453,-3.1888,-3.1336,-3.109,-3.1492,-3.1783,-3.2285,-3.3206,-3.3627,-3.3893,-3.4148,-3.3946,-3.3541,-3.2813,-3.3101,-3.2996,-3.2069,-3.3206,-3.3679,-3.2942,-3.3738,0.0,-3.3657,-3.4036,-3.4635,-3.5457,-3.5504,-3.5654,-3.5953,-3.6896,-3.7704,-3.8407,-3.9095,-3.9388,-3.9388,-3.9388,-3.9388,-3.9388,-3.9388,-3.9388,-3.9388,-3.9388,-3.9388,-3.9388,-3.9388,-3.9388,-3.9388,-3.9388,-3.9388,-3.9388,-3.3871,-3.408,-3.4422,-3.5559,-3.5953,-3.6108,-3.6108,-3.6263,-3.6194,-3.5683,-3.5069,-3.455,-3.4073,-3.3458,-3.3124,-3.3124,-3.3124,-3.3124,-3.3124,-3.3124,-3.3124,-3.3124,-3.3124,-3.3124,-3.3124,-3.3124,-3.3124,-3.3124,-3.3124,-3.3124,-3.3124,-3.3124,-3.3124,-3.3124,-3.3124,-3.3124,-3.3124,-3.3124,-3.3124,-3.3124,-3.3124,-3.3124,-3.3124,-3.3124,-3.3124,-3.3124,-3.3124,-3.3124,-3.3124,-3.3124,-3.3124,-3.3124,-3.3124,-3.3124,-3.3124,-3.3124,-3.3124,-3.3124,-3.3124,-3.3124,-3.3124,-3.3124,-3.3124,-3.3124,-3.3124,-3.3124,-3.2918,-3.2328,-3.1775,-3.1481,-3.1746,-3.1463,-3.1436,-3.2162,-3.2075,-3.2055,-3.2435,0.0,-3.1746,-3.1262,-3.1888,-3.2033,-3.1068,-3.2571,-3.3241,-3.2464,-3.338,-3.3671,-3.2855,-3.3567,-3.452,-3.5621,-3.5654,-3.6013,-3.6776,-3.7853,-3.8437,-3.8556,-3.914,-3.9388,-3.9388,-3.9388,-3.9388,-3.9388,-3.9388,-3.9388,-3.9388,-3.9388,-3.9388,-3.9388,-3.9388,-3.9388,-3.9388,-3.9388,-3.9388,-3.9388,-3.2593,-3.2644,-3.2682,-3.2883,-3.3909,-3.4727,-3.4727,-3.5667,-3.638,-3.6292,-3.5353,-3.4688,-3.4555,-3.3684,-3.3124,-3.3124,-3.3124,-3.3124,-3.3124,-3.3124,-3.3124,-3.3124,-3.3124,-3.3124,-3.3124,-3.3124,-3.3124,-3.3124,-3.3124,-3.3124,-3.3124,-3.3124,-3.3124,-3.3124,-3.3124,-3.3124,-3.3124,-3.3124,-3.3124,-3.3124,-3.3124,-3.3124,-3.3124,-3.3124,-3.3124,-3.3124,-3.3124,-3.3124,-3.3124,-3.3124,-3.3124,-3.3124,-3.3124,-3.3124,-3.3124,-3.3124,-3.3124,-3.3124,-3.3124,-3.3124,-3.3124,-3.3124,-3.3124,-3.3124,-3.3124,-3.3124,-3.2918,-3.2328,-3.1775,-3.1263,-3.0895,-3.1047,-3.1095,-3.0777,-3.1724,-3.2352,-3.1972,0.0,-3.2176,-3.1315,-3.1315,-3.1044,-3.0101,-3.102,-3.1573,-3.1426,-3.3031,-3.3945,-3.3774,-3.391,-3.4709,-3.6312,-3.6327,-3.6896,-3.8078,-3.8287,-3.8676,-3.926,-3.9328,-3.9388,-3.9388,-3.9388,-3.9388,-3.9388,-3.9388,-3.9388,-3.9388,-3.9388,-3.9388,-3.9388,-3.9388,-3.9388,-3.9388,-3.9388,-3.9388,-3.9388,-3.1071,-3.1224,-3.148,-3.218,-3.2844,-3.3254,-3.3254,-3.4459,-3.5319,-3.5319,-3.4975,-3.468,-3.468,-3.3734,-3.3124,-3.3124,-3.3124,-3.3124,-3.3124,-3.3124,-3.3124,-3.3124,-3.3124,-3.3124,-3.3124,-3.3124,-3.3124,-3.3124,-3.3124,-3.3124,-3.3124,-3.3124,-3.3124,-3.3124,-3.3124,-3.3124,-3.3124,-3.3124,-3.3124,-3.3124,-3.3124,-3.3124,-3.3124,-3.3124,-3.3124,-3.3124,-3.3124,-3.3124,-3.3124,-3.3124,-3.3124,-3.3124,-3.3124,-3.3124,-3.3124,-3.3124,-3.3124,-3.3124,-3.3124,-3.3124,-3.3124,-3.3124,-3.3124,-3.3124,-3.3124,-3.3124,-3.3006,-3.2729,-3.2227,-3.1675,-3.1135,-3.0953,-3.0689,-3.0174,-3.0379,0.0,-3.0724,-3.0648,-3.0555,-3.0443,-3.0457,-3.0279,-2.9818,-3.0658,-3.1007,-3.0482,-3.1719,-3.2285,-3.1769,-3.2477,-3.3539,-3.4907,-3.6625,-3.7793,-3.8377,-3.8751,-3.9095,-3.9388,-3.9388,-3.9388,-3.9388,-3.9388,-3.9388,-3.9388,-3.9388,-3.9388,-3.9388,-3.9388,-3.9388,-3.9388,-3.9388,-3.9388,-3.9388,-3.9388,-3.9388,-3.9388,-2.9608,-2.9817,-3.0162,-3.1173,-3.1633,-3.1836,-3.1836,-3.3005,-3.392,-3.392,-3.3849,-3.3903,-3.4189,-3.3313,-3.2797,-3.3068,-3.3124,-3.3124,-3.3124,-3.3124,-3.3124,-3.3124,-3.3124,-3.3124,-3.3124,-3.3124,-3.3124,-3.3124,-3.3124,-3.3124,-3.3124,-3.3124,-3.3124,-3.3124,-3.3124,-3.3124,-3.3124,-3.3124,-3.3124,-3.3124,-3.3124,-3.3124,-3.3124,-3.3124,-3.3124,-3.3124,-3.3124,-3.3124,-3.3124,-3.3124,-3.3124,-3.3124,-3.3124,-3.3124,-3.3124,-3.3124,-3.3124,-3.3124,-3.3124,-3.3124,-3.3124,-3.3124,-3.3124,-3.3124,-3.3124,-3.3124,-3.3124,-3.3124,-3.2616,-3.2077,-3.1662,-3.1047,-3.0432,-2.988,0.0,-2.9239,-2.9553,-2.9327,-2.9289,-2.9741,-2.9792,-2.9792,-2.9792,-3.0457,-3.0595,-2.9856,-3.0658,-3.096,-3.0317,-3.1369,-3.2486,-3.3608,-3.6721,-3.8361,-3.8282,-3.9032,-3.9388,-3.9388,-3.9388,-3.9388,-3.9388,-3.9388,-3.9388,-3.9388,-3.9388,-3.9388,-3.9388,-3.9388,-3.9388,-3.9388,-3.9388,-3.9388,-3.9388,-3.9388,-3.9388,-3.9388,-2.8451,-2.8451,-2.8495,-2.8601,-2.9608,-3.0473,-3.0473,-3.1582,-3.2431,-3.2431,-3.1687,-3.1603,-3.2746,-3.1943,-3.1821,-3.2982,-3.3124,-3.3124,-3.3124,-3.3124,-3.3124,-3.3124,-3.3124,-3.3124,-3.3124,-3.3124,-3.3124,-3.3124,-3.3124,-3.3124,-3.3124,-3.3124,-3.3124,-3.3124,-3.3124,-3.3124,-3.3124,-3.3124,-3.3124,-3.3124,-3.3124,-3.3124,-3.3124,-3.3124,-3.3124,-3.3124,-3.3124,-3.3124,-3.3124,-3.3124,-3.3124,-3.3124,-3.3124,-3.3124,-3.3124,-3.3124,-3.3124,-3.3124,-3.3124,-3.3124,-3.3124,-3.3124,-3.3124,-3.3124,-3.3124,-3.3124,-3.3124,-3.3124,-3.2616,-3.2202,-3.2164,-3.1311,-3.0432,-2.988,0.0,0.0,-2.9026,-2.9415,-2.9741,-2.9779,-2.9792,-2.9792,-2.9792,-2.9856,-2.9856,-2.9792,-3.0658,-3.138,-3.1806,-3.1935,-3.2565,-3.3754,-3.6792,-3.8233,-3.7832,-3.8877,-3.9388,-3.9388,-3.9388,-3.9388,-3.9388,-3.9388,-3.9388,-3.9388,-3.9388,-3.9388,-3.9388,-3.9388,-3.9388,-3.9388,-3.9388,-3.9388,-3.9388,-3.9388,-3.9388,-3.9388,-2.8291,-2.8291,-2.8291,-2.8291,-2.8698,-2.9059,-2.9059,-3.0214,-3.1071,-3.1071,-3.0949,-3.1078,-3.1556,-3.0698,-3.0271,-3.0777,-3.0822,-3.0822,-3.0822,-3.1512,-3.2283,-3.3068,-3.3124,-3.3124,-3.3124,-3.3124,-3.3124,-3.3124,-3.3124,-3.3124,-3.3124,-3.3124,-3.3124,-3.3124,-3.3124,-3.3124,-3.3124,-3.3124,-3.3124,-3.3124,-3.3124,-3.3124,-3.3124,-3.3124,-3.3124,-3.3124,-3.3124,-3.3124,-3.3124,-3.3124,-3.3124,-3.3124,-3.3124,-3.3124,-3.3124,-3.3124,-3.3124,-3.3124,-3.3124,-3.3124,-3.3124,-3.3124,-3.3124,-3.3124,-3.3124,-3.3124,-3.3124,-3.3124,-3.2905,-3.2641,-3.2277,-3.1876,-3.1323,-3.0444,0.0,-3.0105,-2.9541,-2.9654,-2.9792,-2.9792,-2.9792,-2.9792,-2.9792,-2.9792,-2.9792,-2.9792,-3.0418,-3.0932,-3.1097,-3.2385,-3.3209,-3.3354,-3.5749,-3.7277,-3.7791,-3.8196,-3.8745,-3.9388,-3.9388,-3.9388,-3.9388,-3.9388,-3.9388,-3.9388,-3.9388,-3.9388,-3.9388,-3.9388,-3.9388,-3.9388,-3.9388,-3.9388,-3.9388,-3.9388,-3.9388,-3.9388,-2.8291,-2.8291,-2.8291,-2.8291,-2.8291,-2.8291,-2.8291,-2.9102,-2.966,-2.966,-2.9671,-2.9818,-3.0208,-2.939,-2.9004,-2.9361,-2.9407,-2.9407,-2.9407,-3.0181,-3.1368,-3.3025,-3.2698,-3.2698,-3.3081,-3.3124,-3.3124,-3.3124,-3.3124,-3.3124,-3.3124,-3.3124,-3.3124,-3.3124,-3.3124,-3.3124,-3.3124,-3.3124,-3.3124,-3.3124,-3.3124,-3.3124,-3.3124,-3.3124,-3.3124,-3.3124,-3.3124,-3.3124,-3.3124,-3.3124,-3.3124,-3.3124,-3.3124,-3.3124,-3.3124,-3.3124,-3.3124,-3.3124,-3.3124,-3.3124,-3.3124,-3.3124,-3.3124,-3.3124,-3.3124,-3.3124,-3.3124,-3.3124,-3.3124,-3.2955,-3.2554,-3.234,-3.1976,-3.1235,-3.0972,-3.0721,-3.0344,-3.0156,-3.0043,-3.0043,-2.9892,-2.9867,-3.003,-3.0043,-3.0118,-3.0281,-3.0645,-3.0934,-3.111,-3.268,-3.3444,-3.3099,-3.4485,-3.5748,-3.6802,-3.7472,-3.8182,-3.8907,-3.9228,-3.9388,-3.9388,-3.9388,-3.9388,-3.9388,-3.9388,-3.9388,-3.9388,-3.9388,-3.9388,-3.9388,-3.9388,-3.9388,-3.9388,-3.9388,-3.9388,-3.9388,-2.8291,-2.8291,-2.8291,-2.8291,-2.8291,-2.8291,-2.8291,-2.8291,-2.8291,-2.8291,-2.7549,-2.745,-2.8645,-2.8076,-2.8085,-2.9269,-2.9361,-2.9361,-2.9407,-2.9361,-3.0463,-3.2939,-3.1865,-3.1777,-3.3081,-3.3068,-3.3124,-3.3124,-3.3124,-3.3124,-3.3124,-3.3124,-3.3124,-3.3124,-3.3124,-3.3124,-3.3124,-3.3124,-3.3068,-3.3081,-3.3081,-3.3081,-3.3081,-3.3081,-3.3081,-3.3124,-3.3124,-3.3124,-3.3124,-3.3124,-3.3124,-3.3124,-3.3124,-3.3124,-3.3124,-3.3124,-3.3124,-3.3124,-3.3124,-3.3124,-3.3124,-3.3124,-3.3124,-3.3124,-3.3124,-3.3124,-3.3124,-3.3124,-3.3124,-3.3124,-3.3124,-3.2604,-3.2227,-3.2215,-3.175,-3.1399,-3.1386,-3.0947,-3.062,-3.062,-3.0143,-3.0018,-3.057,-3.062,-3.0834,-3.1348,-3.1386,-3.1637,-3.219,-3.2767,-3.3124,-3.3124,-3.3124,-3.3598,-3.4664,-3.6763,-3.7791,-3.7791,-3.8907,-3.9388,-3.9388,-3.9388,-3.9388,-3.9388,-3.9388,-3.9388,-3.9388,-3.9388,-3.9388,-3.9388,-3.9388,-3.9388,-3.9388,-3.9388,-3.9388,-3.9388,-2.8291,-2.8291,-2.8291,-2.8291,-2.8291,-2.8291,-2.8291,-2.8291,-2.8291,-2.8291,-2.7549,-2.7155,-2.7491,-2.6774,-2.6428,-2.6744,-2.6791,-2.7163,-2.8085,-2.7305,-2.7898,-3.0418,-3.0956,-3.1356,-3.1777,-3.2655,-3.3124,-3.3124,-3.3124,-3.3124,-3.3124,-3.3124,-3.3124,-3.3124,-3.3124,-3.3124,-3.3124,-3.3124,-3.2556,-3.1777,-3.1777,-3.1777,-3.1777,-3.1777,-3.2326,-3.3124,-3.3124,-3.3124,-3.3124,-3.3124,-3.3124,-3.3124,-3.3124,-3.3124,-3.3124,-3.3124,-3.3124,-3.3124,-3.3124,-3.3124,-3.3124,-3.3124,-3.3124,-3.3124,-3.3124,-3.3124,-3.3124,-3.3124,-3.3124,-3.3124,-3.3124,-3.293,-3.2692,-3.2277,-3.2077,-3.1838,-3.1449,-3.126,-3.116,-3.116,-3.1009,-3.0984,-3.1148,-3.116,-3.1223,-3.1386,-3.175,-3.2215,-3.2792,-3.298,-3.3124,-3.3124,-3.3124,-3.324,-3.3556,-3.5628,-3.706,-3.7791,-3.8907,-3.9388,-3.9388,-3.9388,-3.9388,-3.9388,-3.9388,-3.9388,-3.9388,-3.9388,-3.9388,-3.9388,-3.9388,-3.9388,-3.9388,-3.9388,-3.9388,-3.9388,-2.8291,-2.8291,-2.8291,-2.8291,-2.8291,-2.8291,-2.8291,-2.8291,-2.8291,-2.8291,-2.7549,-2.7012,-2.7012,-2.62,-2.5693,-2.5693,-2.5693,-2.6014,-2.6802,-2.611,-2.638,-2.7898,-2.9131,-3.0,-3.0496,-3.1235,-3.1657,-3.1657,-3.1657,-3.1657,-3.1645,-3.2108,-3.2326,-3.2382,-3.2884,-3.284,-3.2326,-3.2326,-3.1645,-3.0496,-3.0496,-3.0765,-3.1223,-3.1223,-3.2008,-3.3124,-3.3124,-3.3124,-3.3124,-3.3124,-3.3124,-3.3124,-3.3124,-3.3124,-3.3124,-3.3124,-3.3124,-3.3124,-3.3124,-3.3124,-3.3124,-3.3124,-3.3124,-3.3124,-3.3124,-3.3124,-3.3124,-3.3124,-3.3124,-3.3124,-3.3124,-3.3124,-3.2968,-3.2616,-3.2554,-3.2441,-3.2102,-3.1863,-3.1725,-3.1725,-3.1524,-3.1474,-3.17,-3.1725,-3.1813,-3.2039,-3.2365,-3.2704,-3.3056,-3.3124,-3.3124,-3.3124,-3.3124,-3.3124,-3.3124,-3.4761,-3.5908,-3.6607,-3.8069,-3.8782,-3.8782,-3.9228,-3.9388,-3.9388,-3.9388,-3.9388,-3.9388,-3.9388,-3.9388,-3.9388,-3.9388,-3.9388,-3.9388,-3.9388,-3.9388,-3.9388,-2.8291,-2.8291,-2.8291,-2.8291,-2.8291,-2.8291,-2.8291,-2.8291,-2.8281,-2.8242,-2.7519,-2.7002,-2.6963,-2.6181,-2.5693,-2.5693,-2.5693,-2.5693,-2.5693,-2.5693,-2.5693,-2.5693,-2.6802,-2.7945,-2.9039,-2.9269,-2.9407,-2.9407,-2.9407,-2.9407,-2.9407,-3.0541,-3.1045,-3.1089,-3.2239,-3.2152,-3.1045,-3.1045,-3.0361,-2.9223,-2.9223,-2.9909,-3.0899,-3.1,-3.1833,-3.2939,-3.3081,-3.3124,-3.3124,-3.3124,-3.3124,-3.3124,-3.3124,-3.3124,-3.3124,-3.3124,-3.3124,-3.3124,-3.3124,-3.3124,-3.3124,-3.3124,-3.3124,-3.3124,-3.3124,-3.3124,-3.3124,-3.3124,-3.3124,-3.3124,-3.3124,-3.3124,-3.3124,-3.3124,-3.3124,-3.3124,-3.3124,-3.2616,-3.229,-3.229,-3.1851,-3.1738,-3.224,-3.229,-3.2503,-3.3074,-3.3124,-3.3124,-3.3124,-3.3124,-3.3124,-3.3124,-3.3124,-3.3124,-3.3124,-3.4079,-3.4622,-3.4705,-3.6724,-3.7663,-3.7715,-3.8657,-3.9177,-3.9265,-3.9265,-3.9301,-3.9388,-3.9388,-3.9388,-3.9388,-3.9388,-3.9388,-3.9388,-3.9388,-3.9388,-3.9388,-2.8291,-2.8291,-2.8291,-2.8291,-2.8291,-2.8291,-2.8291,-2.8291,-2.8174,-2.7894,-2.7344,-2.6894,-2.6562,-2.6055,-2.5693,-2.5693,-2.5693,-2.5693,-2.5693,-2.5693,-2.5693,-2.5693,-2.5965,-2.6245,-2.6524,-2.8402,-2.9407,-2.9407,-2.9407,-2.9407,-2.9407,-2.9681,-2.9772,-2.9818,-3.009,-3.0045,-2.9772,-2.9772,-2.9085,-2.8002,-2.8002,-2.8132,-2.8495,-2.9453,-3.0541,-3.1733,-3.2754,-3.3124,-3.3124,-3.3124,-3.3124,-3.3124,-3.3124,-3.3124,-3.3124,-3.3124,-3.3124,-3.3124,-3.3124,-3.3124,-3.3124,-3.3124,-3.3124,-3.3124,-3.3124,-3.3124,-3.3124,-3.3124,-3.3124,-3.3124,-3.3124,-3.3124,-3.3124,-3.3124,-3.3124,-3.3124,-3.3124,-3.3011,-3.288,-3.288,-3.278,-3.2797,-3.288,-3.288,-3.2943,-3.3111,-3.3124,-3.3124,-3.3124,-3.3124,-3.3124,-3.3124,-3.3124,-3.3124,-3.3124,-3.3313,-3.3869,-3.4705,-3.5948,-3.6565,-3.6565,-3.6799,-3.7329,-3.8144,-3.8144,-3.862,-3.9388,-3.9388,-3.9388,-3.9388,-3.9388,-3.9388,-3.9388,-3.9388,-3.9388,-3.9388,-2.8291,-2.8291,-2.8291,-2.8291,-2.8291,-2.8291,-2.8291,-2.8125,-2.792,-2.7748,-2.7109,-2.6631,-2.6406,-2.5996,-2.5693,-2.5693,-2.5693,-2.5693,-2.5693,-2.5693,-2.5693,-2.5693,-2.5693,-2.5693,-2.5693,-2.6982,-2.7615,-2.7615,-2.7615,-2.7615,-2.7662,-2.8262,-2.8541,-2.8588,-2.9131,-2.9085,-2.8541,-2.8541,-2.7814,-2.6706,-2.6706,-2.7078,-2.7683,-2.8319,-2.9636,-3.1311,-3.1952,-3.2556,-3.3124,-3.3124,-3.3124,-3.3124,-3.3124,-3.3124,-3.3124,-3.3124,-3.3124,-3.3124,-3.3124,-3.3124,-3.3124,-3.3124,-3.3124,-3.3124,-3.3124,-3.3124,-3.3124,-3.3124,-3.3124,-3.3124,-3.3124,-3.3124,-3.3124,-3.3124,-3.3124,-3.3124,-3.3124,-3.3124,-3.3124,-3.3124,-3.3124,-3.3124,-3.3124,-3.3124,-3.3124,-3.3124,-3.3124,-3.3124,-3.3124,-3.3124,-3.3124,-3.3124,-3.3124,-3.3124,-3.3124,-3.3124,-3.3398,-3.3953,-3.5007,-3.5467,-3.5507,-3.6501,-3.7266,-3.7829,-3.8345,-3.887,-3.9388,-3.9388,-3.9388,-3.9388,-3.9388,-3.9388,-3.9388,-3.9388,-3.9388,-3.9388,-2.8291,-2.8291,-2.8291,-2.8291,-2.8291,-2.8271,-2.8193,-2.7891,-2.7669,-2.7523,-2.6826,-2.6357,-2.6289,-2.5908,-2.5693,-2.5693,-2.5693,-2.5693,-2.5693,-2.5693,-2.5693,-2.5693,-2.5693,-2.5693,-2.5693,-2.5693,-2.5693,-2.5693,-2.5693,-2.5693,-2.5732,-2.6802,-2.7268,-2.7315,-2.8308,-2.8226,-2.7268,-2.7268,-2.6668,-2.5693,-2.5693,-2.6342,-2.7315,-2.7494,-2.8855,-3.0631,-3.1033,-3.2008,-3.3124,-3.3124,-3.3124,-3.3124,-3.3124,-3.3124,-3.3124,-3.3124,-3.3124,-3.3124,-3.3124,-3.3124,-3.3124,-3.3124,-3.3124,-3.3124,-3.3124,-3.3124,-3.3124,-3.3124,-3.3124,-3.3124,-3.3124,-3.3124,-3.3124,-3.3124,-3.3124,-3.3124,-3.3124,-3.3124,-3.3124,-3.3124,-3.3124,-3.3124,-3.3124,-3.3124,-3.3124,-3.3124,-3.3124,-3.3124,-3.3124,-3.3124,-3.3124,-3.3124,-3.3124,-3.3124,-3.3124,-3.3124,-3.3124,-3.3124,-3.3995,-3.4428,-3.4511,-3.6411,-3.7357,-3.7587,-3.8657,-3.9228,-3.9388,-3.9388,-3.9388,-3.9388,-3.9388,-3.9388,-3.9388,-3.9388,-3.9388,-3.9388,-2.8291,-2.8291,-2.8291,-2.8291,-2.8291,-2.8164,-2.7803,-2.7748,-2.7454,-2.666,-2.6455,-2.625,-2.582,-2.5723,-2.5693,-2.5693,-2.5693,-2.5693,-2.5693,-2.5693,-2.5693,-2.5693,-2.5693,-2.5693,-2.5693,-2.5693,-2.5693,-2.5693,-2.5693,-2.5693,-2.5693,-2.5878,-2.5965,-2.5965,-2.6149,-2.61,-2.5965,-2.5965,-2.5878,-2.5693,-2.5693,-2.5781,-2.6062,-2.7173,-2.7814,-2.8366,-3.0451,-3.2008,-3.3124,-3.3124,-3.3124,-3.3124,-3.3124,-3.3124,-3.3124,-3.3124,-3.3124,-3.3124,-3.3124,-3.3124,-3.3124,-3.3124,-3.3124,-3.3124,-3.3124,-3.3124,-3.3124,-3.3124,-3.3124,-3.3124,-3.3124,-3.3124,-3.3124,-3.3124,-3.3124,-3.3124,-3.3124,-3.3124,-3.3124,-3.3124,-3.3124,-3.3124,-3.3124,-3.3124,-3.3124,-3.3124,-3.3124,-3.3124,-3.3124,-3.3124,-3.3124,-3.3124,-3.3124,-3.3124,-3.3124,-3.3124,-3.3124,-3.3124,-3.324,-3.3313,-3.3356,-3.4594,-3.5601,-3.6487,-3.7534,-3.8546,-3.9388,-3.9388,-3.9388,-3.9388,-3.9388,-3.9388,-3.9388,-3.9388,-3.9388,-3.9388,-2.8252,-2.8291,-2.8291,-2.8291,-2.8096,-2.7881,-2.7748,-2.7307,-2.6816,-2.6435,-2.6172,-2.5947,-2.5713,-2.5693,-2.5693,-2.5693,-2.5693,-2.5693,-2.5693,-2.5693,-2.5693,-2.5693,-2.5693,-2.5693,-2.5693,-2.5693,-2.5693,-2.5693,-2.5693,-2.5693,-2.5693,-2.5693,-2.5693,-2.5693,-2.5693,-2.5693,-2.5693,-2.5693,-2.5693,-2.5693,-2.5693,-2.5693,-2.5781,-2.6342,-2.6982,-2.7814,-2.959,-3.0553,-3.1057,-3.1057,-3.1057,-3.1057,-3.1057,-3.1057,-3.1146,-3.1821,-3.2052,-3.2196,-3.2896,-3.3124,-3.3124,-3.3124,-3.3124,-3.3124,-3.3124,-3.3124,-3.3124,-3.3124,-3.3124,-3.3124,-3.3124,-3.3124,-3.3124,-3.3124,-3.3124,-3.3124,-3.3124,-3.3124,-3.3124,-3.3124,-3.3124,-3.3124,-3.3124,-3.3124,-3.3124,-3.3124,-3.3124,-3.3124,-3.3124,-3.3124,-3.3124,-3.3124,-3.3124,-3.3124,-3.3124,-3.3124,-3.3124,-3.3124,-3.3124,-3.3124,-3.3154,-3.4191,-3.4938,-3.544,-3.6462,-3.7496,-3.8509,-3.8509,-3.887,-3.9388,-3.9388,-3.9388,-3.9388,-3.9388,-3.9388,-3.9388]}]]